Darstellungsparameter: Aktuell verwendete Einstellungen:
Skalierung der Graphiken ... ?
xyx+y,   Skalierungsfaktor:      Skalierung: Modus: x, Faktor: 1
Darstellungszeitraum ... ?
Vom - - bis: - -   Zeitraum: 29.08.2013 - 01.03.2014
Min/Max/Avg-Anzeige ... ?
Zeige MMA aktuell
Zeige MMA Monat
Zeige MMA alles
Zeige --A aktuell
Zeige --A Monat
Zeige --A alles
Keine MMA-Anzeige
MMA:
Keine MMA-Graphiken
MMA-Basis: 29.08.2013 - 01.03.2014
Quicknavigation für Darstellung... ?
Tage:      1T, 2T, 3T, 5T -1T -2T -3T -5T +1T +2T +3T +5T
Wochen: 1W, 2W, 3W -1W -2W -3W +1W +2W +3W
Monate: 1M, 3M, 6M -1M -3M -6M +1M +3M +6M
Jahre:    1J, 3J, 5J, 10J -1J -3J -5J -10J +1J +3J +5J +10J
Nutze für die Darstellung ... ?
Originaldaten oder ...
Mittelwerte Minima Maxima auf...
Stundenbasis Tagesbasis Wochenbasis
Monatsbasis Jahresbasis      Datenbasis: Mittelwerte auf Stundenbasis
Darstellen als:
Statistik (Auto) Statistik J:M      Darstellung:
Zur Graphik,    zurück zur Übersicht aller Sensoren.
 
Tabellarische Datenbersicht: ?
 
Sensor: Nr:Datum:Temp:Abs-Feuchte:Windchill:Wind:
Aussen-T/F 1 29-08-2013 00:00:00 12.725 C 10.54 g/m*3 12.73 C 0 km/h
2 29-08-2013 01:00:00 12.275 C 10.35 g/m*3 12.28 C 0 km/h
3 29-08-2013 02:00:00 11.84167 C 10.13 g/m*3 11.84 C 0 km/h
4 29-08-2013 03:00:00 11.49167 C 9.93 g/m*3 11.49 C 0 km/h
5 29-08-2013 04:00:00 11.06667 C 9.67 g/m*3 11.07 C 0.13333 km/h
6 29-08-2013 05:00:00 10.625 C 9.47 g/m*3 10.63 C 0 km/h
7 29-08-2013 06:00:00 10.15833 C 9.21 g/m*3 10.16 C 0 km/h
8 29-08-2013 07:00:00 10.13333 C 9.19 g/m*3 10.13 C 1.06667 km/h
9 29-08-2013 08:00:00 10.59167 C 9.49 g/m*3 10.59 C 1.06667 km/h
10 29-08-2013 09:00:00 11.325 C 9.98 g/m*3 11.33 C 1.86667 km/h
11 29-08-2013 10:00:00 12.24167 C 10.53 g/m*3 12.24 C 1.46667 km/h
12 29-08-2013 11:00:00 14.35833 C 11.68 g/m*3 14.36 C 0.66667 km/h
13 29-08-2013 12:00:00 16.54167 C 12.88 g/m*3 16.54 C 0.13333 km/h
14 29-08-2013 13:00:00 18.225 C 13.43 g/m*3 18.23 C 0.4 km/h
15 29-08-2013 14:00:00 18.75 C 12.9 g/m*3 18.75 C 0 km/h
16 29-08-2013 15:00:00 21.76667 C 12.59 g/m*3 21.77 C 4.025 km/h
17 29-08-2013 16:00:00 21.06667 C 13.67 g/m*3 21.07 C 1.86667 km/h
18 29-08-2013 17:00:00 19.88333 C 14.06 g/m*3 19.88 C 0.26667 km/h
19 29-08-2013 18:00:00 18.61667 C 13.83 g/m*3 18.62 C 0.13333 km/h
20 29-08-2013 19:00:00 17.53333 C 12.96 g/m*3 17.53 C 0.26667 km/h
21 29-08-2013 20:00:00 16.625 C 12.28 g/m*3 16.63 C 0 km/h
22 29-08-2013 21:00:00 15.9 C 11.75 g/m*3 15.9 C 0 km/h
23 29-08-2013 22:00:00 15.3 C 11.67 g/m*3 15.3 C 0 km/h
24 29-08-2013 23:00:00 14.73333 C 11.64 g/m*3 14.73 C 0 km/h
25 30-08-2013 00:00:00 14.01667 C 11.22 g/m*3 14.02 C 0 km/h
Sensor: Nr:Datum:Temp:Abs-Feuchte:Windchill:Wind:
Aussen-T/F 26 30-08-2013 01:00:00 13.29167 C 10.81 g/m*3 13.29 C 0 km/h
27 30-08-2013 02:00:00 12.725 C 10.55 g/m*3 12.73 C 0 km/h
28 30-08-2013 03:00:00 12.28333 C 10.31 g/m*3 12.28 C 0 km/h
29 30-08-2013 04:00:00 11.825 C 10.12 g/m*3 11.83 C 0.26667 km/h
30 30-08-2013 05:00:00 11.44167 C 9.88 g/m*3 11.44 C 0 km/h
31 30-08-2013 06:00:00 11.025 C 9.63 g/m*3 11.03 C 0 km/h
32 30-08-2013 07:00:00 10.875 C 9.63 g/m*3 10.88 C 0 km/h
33 30-08-2013 08:00:00 11.36667 C 9.94 g/m*3 11.37 C 0.13333 km/h
34 30-08-2013 09:00:00 12.44167 C 10.62 g/m*3 12.44 C 0 km/h
35 30-08-2013 10:00:00 13.78333 C 11.4 g/m*3 13.78 C 0 km/h
36 30-08-2013 11:00:00 15.20833 C 12.13 g/m*3 15.21 C 0 km/h
37 30-08-2013 12:00:00 16.71667 C 12.71 g/m*3 16.72 C 0 km/h
38 30-08-2013 13:00:00 18.61667 C 13.33 g/m*3 18.62 C 0.4 km/h
39 30-08-2013 14:00:00 20.975 C 13.78 g/m*3 20.98 C 1.6 km/h
40 30-08-2013 15:00:00 23.15 C 12.56 g/m*3 23.15 C 5.10833 km/h
41 30-08-2013 16:00:00 20.88333 C 13.48 g/m*3 20.88 C 1.06667 km/h
42 30-08-2013 17:00:00 20.13333 C 13.31 g/m*3 20.13 C 2.26667 km/h
43 30-08-2013 18:00:00 19.6 C 13.11 g/m*3 19.6 C 2.4 km/h
44 30-08-2013 19:00:00 19.01667 C 13.43 g/m*3 19.02 C 1.2 km/h
45 30-08-2013 20:00:00 17.98333 C 13.03 g/m*3 17.98 C 0.4 km/h
46 30-08-2013 21:00:00 17.31667 C 12.6 g/m*3 17.32 C 0 km/h
47 30-08-2013 22:00:00 16.9 C 12.45 g/m*3 16.9 C 0 km/h
48 30-08-2013 23:00:00 16.16667 C 12.05 g/m*3 16.17 C 0 km/h
49 31-08-2013 00:00:00 15.30833 C 11.56 g/m*3 15.31 C 0 km/h
50 31-08-2013 01:00:00 14.28333 C 11.13 g/m*3 14.28 C 0 km/h
Sensor: Nr:Datum:Temp:Abs-Feuchte:Windchill:Wind:
Aussen-T/F 51 31-08-2013 02:00:00 14.375 C 11.13 g/m*3 14.38 C 0.53333 km/h
52 31-08-2013 03:00:00 13.975 C 10.91 g/m*3 13.98 C 1.33333 km/h
53 31-08-2013 04:00:00 13.35 C 10.65 g/m*3 13.35 C 0 km/h
54 31-08-2013 05:00:00 12.88333 C 10.47 g/m*3 12.88 C 0.26667 km/h
55 31-08-2013 06:00:00 12.5 C 10.29 g/m*3 12.5 C 1.46667 km/h
56 31-08-2013 07:00:00 12.68333 C 10.41 g/m*3 12.68 C 2.53333 km/h
57 31-08-2013 08:00:00 13.725 C 10.75 g/m*3 13.73 C 2.13333 km/h
58 31-08-2013 09:00:00 15.225 C 11.28 g/m*3 15.23 C 5.08333 km/h
59 31-08-2013 10:00:00 16.95833 C 11.76 g/m*3 16.96 C 7.125 km/h
60 31-08-2013 11:00:00 18.69167 C 12.31 g/m*3 18.69 C 8.74167 km/h
61 31-08-2013 12:00:00 19.5 C 12.53 g/m*3 19.5 C 6.16667 km/h
62 31-08-2013 13:00:00 19.45833 C 13.02 g/m*3 19.46 C 2.4 km/h
63 31-08-2013 14:00:00 19.5 C 13.05 g/m*3 19.5 C 4.825 km/h
64 31-08-2013 15:00:00 19.05 C 13.84 g/m*3 19.05 C 0.66667 km/h
65 31-08-2013 16:00:00 17.93333 C 14.11 g/m*3 17.93 C 2 km/h
66 31-08-2013 17:00:00 18.44167 C 14.74 g/m*3 18.44 C 0 km/h
67 31-08-2013 18:00:00 18.85833 C 13.88 g/m*3 18.86 C 4.96667 km/h
68 31-08-2013 19:00:00 18.825 C 13.37 g/m*3 18.83 C 2.00833 km/h
69 31-08-2013 20:00:00 16.8 C 13.09 g/m*3 16.8 C 0.13333 km/h
70 31-08-2013 21:00:00 16.80833 C 12.78 g/m*3 16.81 C 2.28333 km/h
71 31-08-2013 22:00:00 16.94167 C 11.45 g/m*3 16.94 C 4.425 km/h
72 31-08-2013 23:00:00 15.9 C 9.97 g/m*3 15.9 C 4.40833 km/h
73 01-09-2013 00:00:00 14.8 C 9.86 g/m*3 14.8 C 4.28333 km/h
74 01-09-2013 01:00:00 14.41667 C 9.67 g/m*3 14.42 C 4.13333 km/h
75 01-09-2013 02:00:00 13.025 C 9.51 g/m*3 13.03 C 1.475 km/h
Sensor: Nr:Datum:Temp:Abs-Feuchte:Windchill:Wind:
Aussen-T/F 76 01-09-2013 03:00:00 11.66667 C 9.13 g/m*3 11.67 C 0.26667 km/h
77 01-09-2013 04:00:00 10.94167 C 8.91 g/m*3 10.94 C 0 km/h
78 01-09-2013 05:00:00 10.6 C 8.75 g/m*3 10.6 C 0.66667 km/h
79 01-09-2013 06:00:00 10.68333 C 8.74 g/m*3 10.68 C 0 km/h
80 01-09-2013 07:00:00 10.825 C 8.92 g/m*3 10.83 C 0 km/h
81 01-09-2013 08:00:00 11.99167 C 9.11 g/m*3 11.99 C 1.2 km/h
82 01-09-2013 09:00:00 13.20833 C 9.25 g/m*3 13.21 C 3.86667 km/h
83 01-09-2013 10:00:00 13.93333 C 9.03 g/m*3 13.93 C 6.3 km/h
84 01-09-2013 11:00:00 15.35 C 8.7 g/m*3 15.35 C 8.6 km/h
85 01-09-2013 12:00:00 16.3 C 8.51 g/m*3 16.3 C 9.00833 km/h
86 01-09-2013 13:00:00 17.15833 C 8.45 g/m*3 17.16 C 9.95 km/h
87 01-09-2013 14:00:00 17.99167 C 8.51 g/m*3 17.99 C 9.68333 km/h
88 01-09-2013 15:00:00 18.45 C 8.12 g/m*3 18.45 C 9.95833 km/h
89 01-09-2013 16:00:00 18.56667 C 8 g/m*3 18.57 C 8.60833 km/h
90 01-09-2013 17:00:00 18.55833 C 8.37 g/m*3 18.56 C 5.75833 km/h
91 01-09-2013 18:00:00 17.81667 C 9.28 g/m*3 17.82 C 4.55 km/h
92 01-09-2013 19:00:00 16.31667 C 9.51 g/m*3 16.32 C 2.93333 km/h
93 01-09-2013 20:00:00 14.225 C 9.48 g/m*3 14.23 C 0.4 km/h
94 01-09-2013 21:00:00 13.84167 C 9.35 g/m*3 13.84 C 0.13333 km/h
95 01-09-2013 22:00:00 13.575 C 9.32 g/m*3 13.58 C 0 km/h
96 01-09-2013 23:00:00 13.98333 C 9.31 g/m*3 13.98 C 1.6 km/h
97 02-09-2013 00:00:00 13.65 C 9.43 g/m*3 13.65 C 0.26667 km/h
98 02-09-2013 01:00:00 13.35 C 9.18 g/m*3 13.35 C 0.26667 km/h
99 02-09-2013 02:00:00 13.26667 C 9.17 g/m*3 13.27 C 1.2 km/h
100 02-09-2013 03:00:00 12.9 C 9.2 g/m*3 12.9 C 1.2 km/h
Sensor: Nr:Datum:Temp:Abs-Feuchte:Windchill:Wind:
Aussen-T/F 101 02-09-2013 04:00:00 12.65833 C 9.1 g/m*3 12.66 C 0.8 km/h
102 02-09-2013 05:00:00 12.8 C 9.09 g/m*3 12.8 C 1.73333 km/h
103 02-09-2013 06:00:00 13.25833 C 8.93 g/m*3 13.26 C 8.475 km/h
104 02-09-2013 07:00:00 13.53333 C 8.92 g/m*3 13.53 C 9.01667 km/h
105 02-09-2013 08:00:00 13.53333 C 9.03 g/m*3 13.53 C 9.00833 km/h
106 02-09-2013 09:00:00 14.24167 C 9.31 g/m*3 14.24 C 9.54167 km/h
107 02-09-2013 10:00:00 15.45 C 9.91 g/m*3 15.45 C 7.93333 km/h
108 02-09-2013 11:00:00 16.66667 C 10.2 g/m*3 16.67 C 8.19167 km/h
109 02-09-2013 12:00:00 18.85 C 10.39 g/m*3 18.85 C 8.86667 km/h
110 02-09-2013 13:00:00 21.51667 C 10.4 g/m*3 21.52 C 10.34167 km/h
111 02-09-2013 14:00:00 22.28333 C 10.72 g/m*3 22.28 C 10.09167 km/h
112 02-09-2013 15:00:00 23.21667 C 10.7 g/m*3 23.22 C 8.19167 km/h
113 02-09-2013 16:00:00 23.90833 C 10.88 g/m*3 23.91 C 9.00833 km/h
114 02-09-2013 17:00:00 23.96667 C 11.36 g/m*3 23.97 C 10.76667 km/h
115 02-09-2013 18:00:00 23.4 C 11.25 g/m*3 23.4 C 10.35833 km/h
116 02-09-2013 19:00:00 21.775 C 11.38 g/m*3 21.78 C 7.65 km/h
117 02-09-2013 20:00:00 20.64167 C 11.53 g/m*3 20.64 C 6.58333 km/h
118 02-09-2013 21:00:00 18.625 C 12.18 g/m*3 18.63 C 0.53333 km/h
119 02-09-2013 22:00:00 18.19167 C 12.36 g/m*3 18.19 C 0.13333 km/h
120 02-09-2013 23:00:00 18.05833 C 12.38 g/m*3 18.06 C 0.13333 km/h
121 03-09-2013 00:00:00 17.65833 C 12.3 g/m*3 17.66 C 0.26667 km/h
122 03-09-2013 01:00:00 16.925 C 12.12 g/m*3 16.93 C 1.46667 km/h
123 03-09-2013 02:00:00 16.35833 C 11.94 g/m*3 16.36 C 0.8 km/h
124 03-09-2013 03:00:00 15.59167 C 11.65 g/m*3 15.59 C 0.66667 km/h
125 03-09-2013 04:00:00 14.775 C 11.44 g/m*3 14.78 C 0 km/h
Sensor: Nr:Datum:Temp:Abs-Feuchte:Windchill:Wind:
Aussen-T/F 126 03-09-2013 05:00:00 14.01667 C 11.1 g/m*3 14.02 C 0 km/h
127 03-09-2013 06:00:00 13.58333 C 10.88 g/m*3 13.58 C 0 km/h
128 03-09-2013 07:00:00 13.2 C 10.75 g/m*3 13.2 C 1.60833 km/h
129 03-09-2013 08:00:00 13.41667 C 10.88 g/m*3 13.42 C 1.46667 km/h
130 03-09-2013 09:00:00 15.05 C 11.6 g/m*3 15.05 C 3.61667 km/h
131 03-09-2013 10:00:00 17.69167 C 12.32 g/m*3 17.69 C 0.4 km/h
132 03-09-2013 11:00:00 19.33333 C 12.51 g/m*3 19.33 C 2.66667 km/h
133 03-09-2013 12:00:00 20.35 C 12.94 g/m*3 20.35 C 3.46667 km/h
134 03-09-2013 13:00:00 21.75833 C 13.06 g/m*3 21.76 C 5.475 km/h
135 03-09-2013 14:00:00 22.85833 C 13.12 g/m*3 22.86 C 6.025 km/h
136 03-09-2013 15:00:00 23.48333 C 13.42 g/m*3 23.48 C 8.18333 km/h
137 03-09-2013 16:00:00 23.66667 C 13.65 g/m*3 23.67 C 9.41667 km/h
138 03-09-2013 17:00:00 23.925 C 13.52 g/m*3 23.93 C 8.60833 km/h
139 03-09-2013 18:00:00 23.65833 C 13.43 g/m*3 23.66 C 8.34167 km/h
140 03-09-2013 19:00:00 20.91667 C 13.69 g/m*3 20.92 C 0.66667 km/h
141 03-09-2013 20:00:00 17.86667 C 12.89 g/m*3 17.87 C 0 km/h
142 03-09-2013 21:00:00 16.75833 C 12.44 g/m*3 16.76 C 0 km/h
143 03-09-2013 22:00:00 16.01667 C 12.18 g/m*3 16.02 C 0 km/h
144 03-09-2013 23:00:00 15.13333 C 11.86 g/m*3 15.13 C 0 km/h
145 04-09-2013 00:00:00 14.49167 C 11.55 g/m*3 14.49 C 0 km/h
146 04-09-2013 01:00:00 14.00833 C 11.38 g/m*3 14.01 C 0 km/h
147 04-09-2013 02:00:00 13.475 C 11.09 g/m*3 13.48 C 0 km/h
148 04-09-2013 03:00:00 13.05833 C 10.9 g/m*3 13.06 C 0 km/h
149 04-09-2013 04:00:00 12.78333 C 10.74 g/m*3 12.78 C 0 km/h
150 04-09-2013 05:00:00 12.45833 C 10.53 g/m*3 12.46 C 0 km/h
Sensor: Nr:Datum:Temp:Abs-Feuchte:Windchill:Wind:
Aussen-T/F 151 04-09-2013 06:00:00 12.10833 C 10.32 g/m*3 12.11 C 0 km/h
152 04-09-2013 07:00:00 12.30833 C 10.54 g/m*3 12.31 C 0 km/h
153 04-09-2013 08:00:00 12.68333 C 10.79 g/m*3 12.68 C 0.8 km/h
154 04-09-2013 09:00:00 13.3 C 11.22 g/m*3 13.3 C 0.93333 km/h
155 04-09-2013 10:00:00 14.30833 C 11.92 g/m*3 14.31 C 0 km/h
156 04-09-2013 11:00:00 16.19167 C 13.31 g/m*3 16.19 C 0 km/h
157 04-09-2013 12:00:00 18.61667 C 14.64 g/m*3 18.62 C 0.26667 km/h
158 04-09-2013 13:00:00 23.81667 C 14.91 g/m*3 23.82 C 4.28333 km/h
159 04-09-2013 14:00:00 25.275 C 14.49 g/m*3 25.28 C 5.61667 km/h
160 04-09-2013 15:00:00 26.675 C 14.47 g/m*3 26.68 C 4.81667 km/h
161 04-09-2013 16:00:00 27.21667 C 14.54 g/m*3 27.22 C 5.89167 km/h
162 04-09-2013 17:00:00 24.63333 C 15.65 g/m*3 24.63 C 2.8 km/h
163 04-09-2013 18:00:00 23.93333 C 15.46 g/m*3 23.93 C 1.73333 km/h
164 04-09-2013 19:00:00 21.875 C 14.76 g/m*3 21.88 C 0.53333 km/h
165 04-09-2013 20:00:00 19.66667 C 13.73 g/m*3 19.67 C 0.4 km/h
166 04-09-2013 21:00:00 18.68333 C 13.4 g/m*3 18.68 C 0 km/h
167 04-09-2013 22:00:00 17.63333 C 13 g/m*3 17.63 C 0 km/h
168 04-09-2013 23:00:00 16.7 C 12.57 g/m*3 16.7 C 0 km/h
169 05-09-2013 00:00:00 15.8 C 12.31 g/m*3 15.8 C 0 km/h
170 05-09-2013 01:00:00 15.175 C 11.99 g/m*3 15.18 C 0 km/h
171 05-09-2013 02:00:00 14.6 C 11.77 g/m*3 14.6 C 0 km/h
172 05-09-2013 03:00:00 14.14167 C 11.56 g/m*3 14.14 C 0 km/h
173 05-09-2013 04:00:00 13.65833 C 11.29 g/m*3 13.66 C 0 km/h
174 05-09-2013 05:00:00 13.18333 C 11.01 g/m*3 13.18 C 0 km/h
175 05-09-2013 06:00:00 12.79167 C 10.75 g/m*3 12.79 C 0 km/h
Sensor: Nr:Datum:Temp:Abs-Feuchte:Windchill:Wind:
Aussen-T/F 176 05-09-2013 07:00:00 12.70833 C 10.78 g/m*3 12.71 C 0 km/h
177 05-09-2013 08:00:00 13.15 C 11.1 g/m*3 13.15 C 0 km/h
178 05-09-2013 09:00:00 14.4 C 12.05 g/m*3 14.4 C 0 km/h
179 05-09-2013 10:00:00 16.125 C 13.38 g/m*3 16.13 C 0 km/h
180 05-09-2013 11:00:00 18.63333 C 14.7 g/m*3 18.63 C 1.6 km/h
181 05-09-2013 12:00:00 21.30833 C 15.59 g/m*3 21.31 C 3.075 km/h
182 05-09-2013 13:00:00 25.84167 C 16.03 g/m*3 25.84 C 5.75833 km/h
183 05-09-2013 14:00:00 27.24167 C 15.71 g/m*3 27.24 C 5.61667 km/h
184 05-09-2013 15:00:00 28.56667 C 15.71 g/m*3 28.57 C 5.9 km/h
185 05-09-2013 16:00:00 29.38889 C 15.06 g/m*3 29.39 C 6.07778 km/h
186 05-09-2013 18:00:00 21.325 C 12.79 g/m*3 21.33 C 32.2 km/h
187 05-09-2013 19:00:00 22.68333 C 14.87 g/m*3 22.68 C 7.1 km/h
188 05-09-2013 20:00:00 21.23333 C 14.33 g/m*3 21.23 C 1.6 km/h
189 05-09-2013 21:00:00 20.58333 C 13.98 g/m*3 20.58 C 0.8 km/h
190 05-09-2013 22:00:00 19.65 C 13.59 g/m*3 19.65 C 1.2 km/h
191 05-09-2013 23:00:00 19.31 C 13.53 g/m*3 19.31 C 0.96 km/h
192 06-09-2013 00:00:00 18.2 C 12.75 g/m*3 18.2 C 0 km/h
193 06-09-2013 07:00:00 14.4 C 11.74 g/m*3 14.4 C 0 km/h
194 06-09-2013 08:00:00 14.825 C 12.06 g/m*3 14.83 C 0 km/h
195 06-09-2013 09:00:00 16.00833 C 12.88 g/m*3 16.01 C 0 km/h
196 06-09-2013 10:00:00 17.90833 C 13.81 g/m*3 17.91 C 0 km/h
197 06-09-2013 11:00:00 19.59167 C 15.03 g/m*3 19.59 C 0 km/h
198 06-09-2013 12:00:00 21.55833 C 16.11 g/m*3 21.56 C 0.53333 km/h
199 06-09-2013 13:00:00 24.31667 C 16.82 g/m*3 24.32 C 4.29167 km/h
200 06-09-2013 14:00:00 27.48333 C 16.15 g/m*3 27.48 C 5.1 km/h
Sensor: Nr:Datum:Temp:Abs-Feuchte:Windchill:Wind:
Aussen-T/F 201 06-09-2013 15:00:00 28.88333 C 15.25 g/m*3 28.88 C 4.81667 km/h
202 06-09-2013 16:00:00 29.73636 C 15.6 g/m*3 29.74 C 5.7 km/h
203 06-09-2013 17:00:00 29.28333 C 15.8 g/m*3 29.28 C 3.88333 km/h
204 06-09-2013 18:00:00 25.74167 C 15.68 g/m*3 25.74 C 2.26667 km/h
205 06-09-2013 19:00:00 25.1 C 14.41 g/m*3 25.1 C 2.13333 km/h
206 06-09-2013 20:00:00 22.625 C 14.25 g/m*3 22.63 C 0.93333 km/h
207 06-09-2013 21:00:00 21.83333 C 14.37 g/m*3 21.83 C 0.26667 km/h
208 06-09-2013 22:00:00 20.80833 C 14.04 g/m*3 20.81 C 0.4 km/h
209 06-09-2013 23:00:00 19.99167 C 13.85 g/m*3 19.99 C 0.26667 km/h
210 07-09-2013 00:00:00 18.825 C 13.7 g/m*3 18.83 C 0.53333 km/h
211 07-09-2013 01:00:00 17.91667 C 13.48 g/m*3 17.92 C 0 km/h
212 07-09-2013 02:00:00 17.39167 C 13.18 g/m*3 17.39 C 1.35 km/h
213 07-09-2013 03:00:00 17.36667 C 12.99 g/m*3 17.37 C 5.50833 km/h
214 07-09-2013 04:00:00 17.10833 C 12.93 g/m*3 17.11 C 0.8 km/h
215 07-09-2013 05:00:00 17.16667 C 12.89 g/m*3 17.17 C 2.54167 km/h
216 07-09-2013 06:00:00 16.75833 C 12.85 g/m*3 16.76 C 1.86667 km/h
217 07-09-2013 07:00:00 17.125 C 13.44 g/m*3 17.13 C 1.46667 km/h
218 07-09-2013 08:00:00 16.88333 C 13.59 g/m*3 16.88 C 0.26667 km/h
219 07-09-2013 09:00:00 16.93333 C 13.84 g/m*3 16.93 C 0 km/h
220 07-09-2013 10:00:00 17.625 C 14.52 g/m*3 17.63 C 0 km/h
221 07-09-2013 11:00:00 18.80833 C 15.2 g/m*3 18.81 C 1.73333 km/h
222 07-09-2013 12:00:00 20.15 C 15.65 g/m*3 20.15 C 1.2 km/h
223 07-09-2013 13:00:00 21.18333 C 16.23 g/m*3 21.18 C 0.93333 km/h
224 07-09-2013 14:00:00 22.11667 C 16.67 g/m*3 22.12 C 2 km/h
225 07-09-2013 15:00:00 20.90833 C 16.82 g/m*3 20.91 C 0 km/h
Sensor: Nr:Datum:Temp:Abs-Feuchte:Windchill:Wind:
Aussen-T/F 226 07-09-2013 16:00:00 21.09167 C 16.82 g/m*3 21.09 C 0.93333 km/h
227 07-09-2013 17:00:00 20.01667 C 16.15 g/m*3 20.02 C 2.54167 km/h
228 07-09-2013 18:00:00 18.84167 C 15.04 g/m*3 18.84 C 4.55833 km/h
229 07-09-2013 19:00:00 18.11667 C 14.72 g/m*3 18.12 C 0.26667 km/h
230 07-09-2013 20:00:00 17.68333 C 14.36 g/m*3 17.68 C 2.95 km/h
231 07-09-2013 21:00:00 17.46667 C 13.84 g/m*3 17.47 C 2.13333 km/h
232 07-09-2013 22:00:00 16.94167 C 13.57 g/m*3 16.94 C 1.06667 km/h
233 07-09-2013 23:00:00 16.3 C 13.24 g/m*3 16.3 C 0.13333 km/h
234 08-09-2013 00:00:00 16.075 C 13.1 g/m*3 16.08 C 0.13333 km/h
235 08-09-2013 01:00:00 15.89167 C 12.99 g/m*3 15.89 C 0.13333 km/h
236 08-09-2013 02:00:00 15.93333 C 12.85 g/m*3 15.93 C 4.275 km/h
237 08-09-2013 03:00:00 16.03333 C 12.8 g/m*3 16.03 C 1.475 km/h
238 08-09-2013 04:00:00 15.825 C 12.82 g/m*3 15.83 C 3.475 km/h
239 08-09-2013 05:00:00 15.55 C 12.75 g/m*3 15.55 C 6.70833 km/h
240 08-09-2013 06:00:00 14.7 C 11.99 g/m*3 14.7 C 5.1 km/h
241 08-09-2013 07:00:00 13.78333 C 11.34 g/m*3 13.78 C 3.075 km/h
242 08-09-2013 08:00:00 13.53333 C 11.18 g/m*3 13.53 C 2.66667 km/h
243 08-09-2013 09:00:00 13.64167 C 11.36 g/m*3 13.64 C 0.4 km/h
244 08-09-2013 10:00:00 14.33333 C 11.77 g/m*3 14.33 C 4.00833 km/h
245 08-09-2013 11:00:00 14.76667 C 11.64 g/m*3 14.77 C 7.38333 km/h
246 08-09-2013 12:00:00 15.075 C 11.59 g/m*3 15.08 C 9.7 km/h
247 08-09-2013 13:00:00 14.9 C 11.5 g/m*3 14.9 C 6.425 km/h
248 08-09-2013 14:00:00 14.96667 C 11.84 g/m*3 14.97 C 4.01667 km/h
249 08-09-2013 15:00:00 15.375 C 11.89 g/m*3 15.38 C 4.26667 km/h
250 08-09-2013 16:00:00 15.5 C 11.9 g/m*3 15.5 C 5.36667 km/h
Sensor: Nr:Datum:Temp:Abs-Feuchte:Windchill:Wind:
Aussen-T/F 251 08-09-2013 17:00:00 15.11667 C 11.6 g/m*3 15.12 C 5.35833 km/h
252 08-09-2013 18:00:00 14.8 C 11.42 g/m*3 14.8 C 3.08333 km/h
253 08-09-2013 19:00:00 14.49167 C 11.67 g/m*3 14.49 C 0 km/h
254 08-09-2013 20:00:00 13.875 C 11.4 g/m*3 13.88 C 0 km/h
255 08-09-2013 21:00:00 13.625 C 11.32 g/m*3 13.63 C 0 km/h
256 08-09-2013 22:00:00 13.5 C 11.35 g/m*3 13.5 C 0 km/h
257 08-09-2013 23:00:00 13.55833 C 11.39 g/m*3 13.56 C 0.66667 km/h
258 09-09-2013 00:00:00 13.6 C 11.42 g/m*3 13.6 C 0 km/h
259 09-09-2013 01:00:00 13.325 C 11.21 g/m*3 13.33 C 0 km/h
260 09-09-2013 02:00:00 13.15833 C 11.11 g/m*3 13.16 C 0 km/h
261 09-09-2013 03:00:00 13.14167 C 11.1 g/m*3 13.14 C 0 km/h
262 09-09-2013 04:00:00 13.28333 C 11.19 g/m*3 13.28 C 0.4 km/h
263 09-09-2013 05:00:00 13.10833 C 11.04 g/m*3 13.11 C 1.2 km/h
264 09-09-2013 06:00:00 12.45 C 10.35 g/m*3 12.45 C 4.81667 km/h
265 09-09-2013 07:00:00 11.41667 C 9.83 g/m*3 11.42 C 0.8 km/h
266 09-09-2013 08:00:00 11.65833 C 9.97 g/m*3 11.66 C 1.6 km/h
267 09-09-2013 09:00:00 11.91667 C 9.97 g/m*3 11.92 C 3.075 km/h
268 09-09-2013 10:00:00 12.95833 C 10.28 g/m*3 12.96 C 8.2 km/h
269 09-09-2013 11:00:00 14.35 C 10.49 g/m*3 14.35 C 10.1 km/h
270 09-09-2013 12:00:00 16.20833 C 10.5 g/m*3 16.21 C 11.28333 km/h
271 09-09-2013 13:00:00 17.6 C 10.12 g/m*3 17.6 C 12.48333 km/h
272 09-09-2013 14:00:00 16.94167 C 10.06 g/m*3 16.94 C 6.025 km/h
273 09-09-2013 15:00:00 16.99167 C 9.93 g/m*3 16.99 C 5.76667 km/h
274 09-09-2013 16:00:00 18.49167 C 9.49 g/m*3 18.49 C 11.15833 km/h
275 09-09-2013 17:00:00 16.99167 C 10.5 g/m*3 16.99 C 3.75 km/h
Sensor: Nr:Datum:Temp:Abs-Feuchte:Windchill:Wind:
Aussen-T/F 276 09-09-2013 18:00:00 15.325 C 11.24 g/m*3 15.33 C 0.26667 km/h
277 09-09-2013 19:00:00 14.59167 C 10.43 g/m*3 14.59 C 1.6 km/h
278 09-09-2013 20:00:00 13.84167 C 10.53 g/m*3 13.84 C 0.13333 km/h
279 09-09-2013 21:00:00 13.21667 C 10.32 g/m*3 13.22 C 0 km/h
280 09-09-2013 22:00:00 12.86667 C 10.46 g/m*3 12.87 C 0.26667 km/h
281 09-09-2013 23:00:00 12.63333 C 10.61 g/m*3 12.63 C 0.93333 km/h
282 10-09-2013 00:00:00 12.59167 C 10.61 g/m*3 12.59 C 0.66667 km/h
283 10-09-2013 01:00:00 12.6875 C 10.76 g/m*3 12.69 C 1.4 km/h
284 10-09-2013 02:00:00 12.95714 C 10.97 g/m*3 12.96 C 0.45714 km/h
285 10-09-2013 03:00:00 13.22857 C 11.16 g/m*3 13.23 C 1.37143 km/h
286 10-09-2013 04:00:00 12.46667 C 10.17 g/m*3 12.47 C 6.43333 km/h
287 10-09-2013 05:00:00 11.16667 C 9.19 g/m*3 11.17 C 4.29167 km/h
288 10-09-2013 06:00:00 10.49167 C 9.04 g/m*3 10.49 C 0.8 km/h
289 10-09-2013 07:00:00 9.70833 C 8.84 g/m*3 9.71 C 0 km/h
290 10-09-2013 08:00:00 9.99167 C 8.79 g/m*3 9.56 C 5.63333 km/h
291 10-09-2013 09:00:00 11.525 C 8.97 g/m*3 11.53 C 11.56667 km/h
292 10-09-2013 10:00:00 12.59167 C 9.39 g/m*3 12.59 C 10.08333 km/h
293 10-09-2013 11:00:00 13.45833 C 9.64 g/m*3 13.46 C 9.275 km/h
294 10-09-2013 12:00:00 14.26667 C 9.48 g/m*3 14.27 C 10.625 km/h
295 10-09-2013 13:00:00 15.64167 C 9.25 g/m*3 15.64 C 14.23333 km/h
296 10-09-2013 14:00:00 15.89167 C 9.25 g/m*3 15.89 C 15.29167 km/h
297 10-09-2013 15:00:00 15.84167 C 9.36 g/m*3 15.84 C 15.15833 km/h
298 10-09-2013 16:00:00 15.86667 C 9.42 g/m*3 15.87 C 13.55833 km/h
299 10-09-2013 17:00:00 15.76667 C 9.65 g/m*3 15.77 C 11.025 km/h
300 10-09-2013 18:00:00 15.3 C 9.75 g/m*3 15.3 C 9.15 km/h
Sensor: Nr:Datum:Temp:Abs-Feuchte:Windchill:Wind:
Aussen-T/F 301 10-09-2013 19:00:00 14.84167 C 9.44 g/m*3 14.84 C 8.2 km/h
302 10-09-2013 20:00:00 14.06667 C 9.3 g/m*3 14.07 C 4.825 km/h
303 10-09-2013 21:00:00 13.56667 C 9.3 g/m*3 13.57 C 8.88333 km/h
304 10-09-2013 22:00:00 13.26667 C 9.04 g/m*3 13.27 C 8.325 km/h
305 10-09-2013 23:00:00 12.8 C 8.98 g/m*3 12.8 C 6.3 km/h
306 11-09-2013 00:00:00 12.78333 C 8.8 g/m*3 12.78 C 11.95833 km/h
307 11-09-2013 01:00:00 12.6 C 8.7 g/m*3 12.6 C 12.5 km/h
308 11-09-2013 02:00:00 12.25833 C 8.87 g/m*3 12.26 C 11.96667 km/h
309 11-09-2013 03:00:00 12.175 C 8.97 g/m*3 12.18 C 15.84167 km/h
310 11-09-2013 04:00:00 11.89167 C 9.1 g/m*3 11.89 C 12.36667 km/h
311 11-09-2013 05:00:00 12.18333 C 9.11 g/m*3 12.18 C 15.025 km/h
312 11-09-2013 06:00:00 11.575 C 9.4 g/m*3 11.58 C 11.3 km/h
313 11-09-2013 07:00:00 11.45833 C 9.52 g/m*3 11.46 C 9.79167 km/h
314 11-09-2013 08:00:00 11.45833 C 9.75 g/m*3 11.46 C 5.23333 km/h
315 11-09-2013 09:00:00 11.78333 C 9.98 g/m*3 11.78 C 5.225 km/h
316 11-09-2013 10:00:00 12.475 C 10.14 g/m*3 12.48 C 6.45 km/h
317 11-09-2013 11:00:00 13.69167 C 10.41 g/m*3 13.69 C 8.33333 km/h
318 11-09-2013 12:00:00 14.86667 C 10.29 g/m*3 14.87 C 8.75 km/h
319 11-09-2013 13:00:00 15.31 C 10.7 g/m*3 15.31 C 5.63 km/h
320 11-09-2013 14:00:00 16.17143 C 11.35 g/m*3 16.17 C 5.52857 km/h
321 11-09-2013 15:00:00 17.41667 C 10.76 g/m*3 17.42 C 8.875 km/h
322 11-09-2013 16:00:00 17.18 C 11.03 g/m*3 17.18 C 5.16 km/h
323 11-09-2013 17:00:00 15.98333 C 11.49 g/m*3 15.98 C 9.675 km/h
324 11-09-2013 18:00:00 13.00833 C 10.55 g/m*3 13.01 C 2.81667 km/h
325 11-09-2013 19:00:00 12.50833 C 10.51 g/m*3 12.51 C 1.6 km/h
Sensor: Nr:Datum:Temp:Abs-Feuchte:Windchill:Wind:
Aussen-T/F 326 11-09-2013 20:00:00 12.075 C 10.18 g/m*3 12.08 C 2.275 km/h
327 11-09-2013 21:00:00 11.8 C 10.1 g/m*3 11.8 C 0.26667 km/h
328 11-09-2013 22:00:00 11.8 C 10.19 g/m*3 11.8 C 0.66667 km/h
329 11-09-2013 23:00:00 11.9 C 10.26 g/m*3 11.9 C 2 km/h
330 12-09-2013 00:00:00 12.26667 C 10.4 g/m*3 12.27 C 2.26667 km/h
331 12-09-2013 01:00:00 12.4 C 10.38 g/m*3 12.4 C 1.33333 km/h
332 12-09-2013 02:00:00 12.39167 C 10.38 g/m*3 12.39 C 2.26667 km/h
333 12-09-2013 03:00:00 12.325 C 10.37 g/m*3 12.33 C 1.2 km/h
334 12-09-2013 04:00:00 12.275 C 10.41 g/m*3 12.28 C 1.06667 km/h
335 12-09-2013 05:00:00 12.34167 C 10.4 g/m*3 12.34 C 0.8 km/h
336 12-09-2013 06:00:00 12.25 C 10.4 g/m*3 12.25 C 0 km/h
337 12-09-2013 07:00:00 12.05 C 10.37 g/m*3 12.05 C 0.13333 km/h
338 12-09-2013 08:00:00 12.21667 C 10.48 g/m*3 12.22 C 0.26667 km/h
339 12-09-2013 09:00:00 13.05 C 10.83 g/m*3 13.05 C 5.08333 km/h
340 12-09-2013 10:00:00 14.175 C 10.83 g/m*3 14.18 C 5.48333 km/h
341 12-09-2013 11:00:00 13.83333 C 11.08 g/m*3 13.83 C 3.33333 km/h
342 12-09-2013 12:00:00 14.84167 C 11.36 g/m*3 14.84 C 3.33333 km/h
343 12-09-2013 13:00:00 14.8 C 11.68 g/m*3 14.8 C 0.93333 km/h
344 12-09-2013 14:00:00 15.125 C 11.49 g/m*3 15.13 C 5.89167 km/h
345 12-09-2013 15:00:00 16.45 C 12.14 g/m*3 16.45 C 3.475 km/h
346 12-09-2013 16:00:00 17.00833 C 11.15 g/m*3 17.01 C 9.80833 km/h
347 12-09-2013 17:00:00 15.91667 C 11.09 g/m*3 15.92 C 9.125 km/h
348 12-09-2013 18:00:00 14.23333 C 11.2 g/m*3 14.23 C 1.6 km/h
349 12-09-2013 19:00:00 13.68333 C 11.23 g/m*3 13.68 C 0 km/h
350 12-09-2013 20:00:00 12.99167 C 10.82 g/m*3 12.99 C 0 km/h
Sensor: Nr:Datum:Temp:Abs-Feuchte:Windchill:Wind:
Aussen-T/F 351 12-09-2013 21:00:00 12.68333 C 10.68 g/m*3 12.68 C 0.26667 km/h
352 12-09-2013 22:00:00 12.75833 C 10.75 g/m*3 12.76 C 0.4 km/h
353 12-09-2013 23:00:00 12.76667 C 10.73 g/m*3 12.77 C 0 km/h
354 13-09-2013 00:00:00 12.58333 C 10.69 g/m*3 12.58 C 0.13333 km/h
355 13-09-2013 01:00:00 12.86667 C 10.81 g/m*3 12.87 C 0 km/h
356 13-09-2013 02:00:00 12.58333 C 10.61 g/m*3 12.58 C 0 km/h
357 13-09-2013 03:00:00 12.41667 C 10.52 g/m*3 12.42 C 1.46667 km/h
358 13-09-2013 04:00:00 12.875 C 10.54 g/m*3 12.88 C 3.475 km/h
359 13-09-2013 05:00:00 12.44167 C 10.24 g/m*3 12.44 C 0.8 km/h
360 13-09-2013 06:00:00 12.03333 C 10.09 g/m*3 12.03 C 2.93333 km/h
361 13-09-2013 07:00:00 12.15833 C 10.16 g/m*3 12.16 C 4.14167 km/h
362 13-09-2013 08:00:00 12.43333 C 10.29 g/m*3 12.43 C 3.34167 km/h
363 13-09-2013 09:00:00 13.325 C 10.69 g/m*3 13.33 C 4.55 km/h
364 13-09-2013 10:00:00 14.50833 C 11.02 g/m*3 14.51 C 6.55 km/h
365 13-09-2013 11:00:00 15.43333 C 11.4 g/m*3 15.43 C 7.38333 km/h
366 13-09-2013 12:00:00 16.16667 C 11.69 g/m*3 16.17 C 6.43333 km/h
367 13-09-2013 13:00:00 17.06667 C 11.71 g/m*3 17.07 C 6.84167 km/h
368 13-09-2013 14:00:00 17.85 C 11.56 g/m*3 17.85 C 7.25 km/h
369 13-09-2013 15:00:00 18.25 C 11.57 g/m*3 18.25 C 6.43333 km/h
370 13-09-2013 16:00:00 18.36667 C 11.63 g/m*3 18.37 C 6.18333 km/h
371 13-09-2013 17:00:00 18.60833 C 11.74 g/m*3 18.61 C 4.41667 km/h
372 13-09-2013 18:00:00 17.725 C 11.91 g/m*3 17.73 C 3.225 km/h
373 13-09-2013 19:00:00 15.40833 C 11.62 g/m*3 15.41 C 1.06667 km/h
374 13-09-2013 20:00:00 14.1375 C 11.12 g/m*3 14.14 C 0.8 km/h
375 13-09-2013 21:00:00 13.74 C 11.3 g/m*3 13.74 C 0.32 km/h
Sensor: Nr:Datum:Temp:Abs-Feuchte:Windchill:Wind:
Aussen-T/F 376 13-09-2013 22:00:00 14.3125 C 11.36 g/m*3 14.31 C 1 km/h
377 13-09-2013 23:00:00 14.03333 C 11.42 g/m*3 14.03 C 0 km/h
378 14-09-2013 00:00:00 14.01667 C 11.44 g/m*3 14.02 C 0.13333 km/h
379 14-09-2013 01:00:00 14.29167 C 11.54 g/m*3 14.29 C 0.53333 km/h
380 14-09-2013 02:00:00 14.525 C 11.65 g/m*3 14.53 C 2.4 km/h
381 14-09-2013 03:00:00 14.81667 C 11.76 g/m*3 14.82 C 2 km/h
382 14-09-2013 04:00:00 14.575 C 11.84 g/m*3 14.58 C 0.8 km/h
383 14-09-2013 05:00:00 14.425 C 11.87 g/m*3 14.43 C 0.13333 km/h
384 14-09-2013 06:00:00 14.55 C 12.09 g/m*3 14.55 C 0.13333 km/h
385 14-09-2013 07:00:00 14.63333 C 12.16 g/m*3 14.63 C 0 km/h
386 14-09-2013 08:00:00 15.14167 C 12.57 g/m*3 15.14 C 0 km/h
387 14-09-2013 09:00:00 15.825 C 13.09 g/m*3 15.83 C 0.13333 km/h
388 14-09-2013 10:00:00 16.45 C 13.58 g/m*3 16.45 C 0.13333 km/h
389 14-09-2013 11:00:00 17.125 C 13.89 g/m*3 17.13 C 2.15 km/h
390 14-09-2013 12:00:00 17.78333 C 14.44 g/m*3 17.78 C 1.2 km/h
391 14-09-2013 13:00:00 18.85 C 14.81 g/m*3 18.85 C 2.8 km/h
392 14-09-2013 14:00:00 19.05 C 13.87 g/m*3 19.05 C 13.13333 km/h
393 14-09-2013 15:00:00 18.025 C 12.72 g/m*3 18.02 C 13.03333 km/h
394 14-09-2013 16:00:00 17.79167 C 12.62 g/m*3 17.79 C 6.30833 km/h
395 14-09-2013 17:00:00 17.33333 C 12.58 g/m*3 17.33 C 3.61667 km/h
396 14-09-2013 18:00:00 16.51667 C 12.64 g/m*3 16.52 C 3.74167 km/h
397 14-09-2013 19:00:00 15.69167 C 12.57 g/m*3 15.69 C 1.73333 km/h
398 14-09-2013 20:00:00 15.21667 C 12.29 g/m*3 15.22 C 2.275 km/h
399 14-09-2013 21:00:00 14.60833 C 11.76 g/m*3 14.61 C 2.01667 km/h
400 14-09-2013 22:00:00 14.24167 C 11.76 g/m*3 14.24 C 0 km/h
Sensor: Nr:Datum:Temp:Abs-Feuchte:Windchill:Wind:
Aussen-T/F 401 14-09-2013 23:00:00 14.175 C 11.83 g/m*3 14.18 C 0 km/h
402 15-09-2013 00:00:00 13.94167 C 11.66 g/m*3 13.94 C 0 km/h
403 15-09-2013 01:00:00 13.975 C 11.68 g/m*3 13.98 C 0 km/h
404 15-09-2013 02:00:00 13.9 C 11.62 g/m*3 13.9 C 0.94167 km/h
405 15-09-2013 03:00:00 13.625 C 11.31 g/m*3 13.63 C 0 km/h
406 15-09-2013 04:00:00 13.43333 C 10.94 g/m*3 13.43 C 2.54167 km/h
407 15-09-2013 05:00:00 13.48333 C 10.81 g/m*3 13.48 C 0.93333 km/h
408 15-09-2013 06:00:00 13.025 C 10.81 g/m*3 13.03 C 0.13333 km/h
409 15-09-2013 07:00:00 12.7 C 10.68 g/m*3 12.7 C 0.93333 km/h
410 15-09-2013 08:00:00 12.8 C 10.66 g/m*3 12.8 C 0.66667 km/h
411 15-09-2013 09:00:00 13.2 C 10.51 g/m*3 13.2 C 4.80833 km/h
412 15-09-2013 10:00:00 13.89167 C 10.43 g/m*3 13.89 C 5.35 km/h
413 15-09-2013 11:00:00 14.48333 C 10.15 g/m*3 14.48 C 2.13333 km/h
414 15-09-2013 12:00:00 15.475 C 10.46 g/m*3 15.48 C 4.95833 km/h
415 15-09-2013 13:00:00 16.41667 C 10.25 g/m*3 16.42 C 3.73333 km/h
416 15-09-2013 14:00:00 16.95833 C 10.32 g/m*3 16.96 C 3.33333 km/h
417 15-09-2013 15:00:00 17.40833 C 10.03 g/m*3 17.41 C 3.75 km/h
418 15-09-2013 16:00:00 16.975 C 10.64 g/m*3 16.98 C 1.2 km/h
419 15-09-2013 17:00:00 16.275 C 11.54 g/m*3 16.27 C 0.4 km/h
420 15-09-2013 18:00:00 14.98333 C 11.45 g/m*3 14.98 C 0 km/h
421 15-09-2013 19:00:00 14.00833 C 11.06 g/m*3 14.01 C 0.13333 km/h
422 15-09-2013 20:00:00 13.53333 C 10.84 g/m*3 13.53 C 0 km/h
423 15-09-2013 21:00:00 13.25833 C 10.66 g/m*3 13.26 C 0 km/h
424 15-09-2013 22:00:00 13.925 C 10.12 g/m*3 13.93 C 5.23333 km/h
425 15-09-2013 23:00:00 14.325 C 9.25 g/m*3 14.33 C 7.925 km/h
Sensor: Nr:Datum:Temp:Abs-Feuchte:Windchill:Wind:
Aussen-T/F 426 16-09-2013 00:00:00 13.625 C 9.51 g/m*3 13.63 C 6.44167 km/h
427 16-09-2013 01:00:00 12.33333 C 9.87 g/m*3 12.33 C 2.93333 km/h
428 16-09-2013 02:00:00 12.35833 C 10.05 g/m*3 12.36 C 5.36667 km/h
429 16-09-2013 03:00:00 12.725 C 10.17 g/m*3 12.73 C 9.4 km/h
430 16-09-2013 04:00:00 12.91667 C 10.04 g/m*3 12.92 C 18.64167 km/h
431 16-09-2013 05:00:00 13.05 C 9.96 g/m*3 13.05 C 18.76667 km/h
432 16-09-2013 06:00:00 12.625 C 10.06 g/m*3 12.63 C 16.36667 km/h
433 16-09-2013 07:00:00 12.7 C 9.99 g/m*3 12.7 C 15.16667 km/h
434 16-09-2013 08:00:00 13.15 C 10.2 g/m*3 13.15 C 11.41667 km/h
435 16-09-2013 09:00:00 13.73333 C 10.43 g/m*3 13.73 C 11.025 km/h
436 16-09-2013 10:00:00 12.54167 C 9.83 g/m*3 12.54 C 6.84167 km/h
437 16-09-2013 11:00:00 13.23333 C 9.91 g/m*3 13.23 C 3.475 km/h
438 16-09-2013 12:00:00 14.73333 C 9.91 g/m*3 14.73 C 7.1 km/h
439 16-09-2013 13:00:00 14.36667 C 9.46 g/m*3 14.37 C 7.65833 km/h
440 16-09-2013 14:00:00 14.85 C 9.02 g/m*3 14.85 C 10.49167 km/h
441 16-09-2013 15:00:00 15.7 C 9.28 g/m*3 15.7 C 6.98333 km/h
442 16-09-2013 16:00:00 15.95833 C 8.97 g/m*3 15.96 C 6.56667 km/h
443 16-09-2013 17:00:00 15.73333 C 8.9 g/m*3 15.73 C 5.9 km/h
444 16-09-2013 18:00:00 13.84167 C 9.22 g/m*3 13.84 C 2.94167 km/h
445 16-09-2013 19:00:00 12.2 C 8.41 g/m*3 12.2 C 2.66667 km/h
446 16-09-2013 20:00:00 11.75833 C 8.48 g/m*3 11.76 C 2.8 km/h
447 16-09-2013 21:00:00 11.59167 C 8.06 g/m*3 11.59 C 4.95 km/h
448 16-09-2013 22:00:00 11.15833 C 7.33 g/m*3 11.16 C 5.35 km/h
449 16-09-2013 23:00:00 10.71667 C 7.24 g/m*3 10.29 C 6.025 km/h
450 17-09-2013 00:00:00 10.275 C 7.29 g/m*3 9.78 C 6.025 km/h
Sensor: Nr:Datum:Temp:Abs-Feuchte:Windchill:Wind:
Aussen-T/F 451 17-09-2013 01:00:00 9.49167 C 7.6 g/m*3 8.95 C 5.75833 km/h
452 17-09-2013 02:00:00 9.48333 C 7.79 g/m*3 8.76 C 6.44167 km/h
453 17-09-2013 03:00:00 8.86667 C 7.59 g/m*3 8.87 C 4.81667 km/h
454 17-09-2013 04:00:00 8.75833 C 7.52 g/m*3 8 C 6.15833 km/h
455 17-09-2013 05:00:00 8.43333 C 7.34 g/m*3 6.87 C 9.4 km/h
456 17-09-2013 06:00:00 8.14167 C 7.27 g/m*3 8.14 C 4.81667 km/h
457 17-09-2013 07:00:00 8.225 C 7.27 g/m*3 7.35 C 6.3 km/h
458 17-09-2013 08:00:00 8.58333 C 7.42 g/m*3 7.91 C 5.75 km/h
459 17-09-2013 09:00:00 9.46667 C 7.61 g/m*3 7.56 C 12.74167 km/h
460 17-09-2013 10:00:00 10.00833 C 7.62 g/m*3 8.05 C 13.96667 km/h
461 17-09-2013 11:00:00 11.15 C 7.76 g/m*3 11.15 C 17.96667 km/h
462 17-09-2013 12:00:00 12.30833 C 7.99 g/m*3 12.31 C 17.16667 km/h
463 17-09-2013 13:00:00 12.69167 C 8.16 g/m*3 12.69 C 13.43333 km/h
464 17-09-2013 14:00:00 13.575 C 8.25 g/m*3 13.58 C 18.23333 km/h
465 17-09-2013 15:00:00 12.76667 C 8.45 g/m*3 12.77 C 17.16667 km/h
466 17-09-2013 16:00:00 13.06667 C 8.46 g/m*3 13.07 C 15.16667 km/h
467 17-09-2013 17:00:00 12.65 C 8.26 g/m*3 12.65 C 9.675 km/h
468 17-09-2013 18:00:00 12.24167 C 8.63 g/m*3 12.24 C 4.15833 km/h
469 17-09-2013 19:00:00 11.7 C 8.77 g/m*3 11.7 C 4.41667 km/h
470 17-09-2013 20:00:00 10.94167 C 8.95 g/m*3 10.94 C 2.66667 km/h
471 17-09-2013 21:00:00 10.41667 C 8.94 g/m*3 10.42 C 1.6 km/h
472 17-09-2013 22:00:00 10.325 C 8.97 g/m*3 10.33 C 2.26667 km/h
473 17-09-2013 23:00:00 10.58333 C 9.16 g/m*3 10.58 C 3.46667 km/h
474 18-09-2013 00:00:00 11.08333 C 9.42 g/m*3 11.08 C 1.86667 km/h
475 18-09-2013 01:00:00 11.1 C 9.61 g/m*3 11.1 C 0.13333 km/h
Sensor: Nr:Datum:Temp:Abs-Feuchte:Windchill:Wind:
Aussen-T/F 476 18-09-2013 02:00:00 11.51667 C 9.93 g/m*3 11.52 C 3.35 km/h
477 18-09-2013 03:00:00 12.59167 C 10.41 g/m*3 12.59 C 3.88333 km/h
478 18-09-2013 04:00:00 13.18333 C 10.72 g/m*3 13.18 C 3.6 km/h
479 18-09-2013 05:00:00 13.95833 C 11.06 g/m*3 13.96 C 8.325 km/h
480 18-09-2013 06:00:00 13.825 C 11.19 g/m*3 13.83 C 2 km/h
481 18-09-2013 07:00:00 13.725 C 11.32 g/m*3 13.73 C 0.13333 km/h
482 18-09-2013 08:00:00 13.39167 C 11.05 g/m*3 13.39 C 5.625 km/h
483 18-09-2013 09:00:00 12.89167 C 10.6 g/m*3 12.89 C 5.75833 km/h
484 18-09-2013 10:00:00 12.40833 C 10.34 g/m*3 12.41 C 1.86667 km/h
485 18-09-2013 11:00:00 12.33333 C 10.27 g/m*3 12.33 C 4.00833 km/h
486 18-09-2013 12:00:00 12.51667 C 10.36 g/m*3 12.52 C 2.93333 km/h
487 18-09-2013 13:00:00 13.35833 C 10.55 g/m*3 13.36 C 5.63333 km/h
488 18-09-2013 14:00:00 13.7 C 10.54 g/m*3 13.7 C 5.89167 km/h
489 18-09-2013 15:00:00 13.6 C 10.37 g/m*3 13.6 C 6.29167 km/h
490 18-09-2013 16:00:00 13.74167 C 10.24 g/m*3 13.74 C 5.625 km/h
491 18-09-2013 17:00:00 13.86667 C 10.17 g/m*3 13.87 C 5.75833 km/h
492 18-09-2013 18:00:00 12.675 C 9.94 g/m*3 12.68 C 4.4 km/h
493 18-09-2013 19:00:00 11.81667 C 9.96 g/m*3 11.82 C 0 km/h
494 18-09-2013 20:00:00 11.36667 C 9.83 g/m*3 11.37 C 0.8 km/h
495 18-09-2013 21:00:00 11.20833 C 9.74 g/m*3 11.21 C 0.66667 km/h
496 18-09-2013 22:00:00 11 C 9.57 g/m*3 11 C 2.675 km/h
497 18-09-2013 23:00:00 11.05 C 9.25 g/m*3 11.05 C 5.23333 km/h
498 19-09-2013 00:00:00 10.2 C 8.88 g/m*3 10.2 C 2.66667 km/h
499 19-09-2013 01:00:00 9.74167 C 8.74 g/m*3 9.74 C 1.73333 km/h
500 19-09-2013 02:00:00 9.35833 C 8.57 g/m*3 9.36 C 1.33333 km/h
Sensor: Nr:Datum:Temp:Abs-Feuchte:Windchill:Wind:
Aussen-T/F 501 19-09-2013 03:00:00 9.55 C 8.67 g/m*3 9.55 C 0.4 km/h
502 19-09-2013 04:00:00 9.56667 C 8.71 g/m*3 9.57 C 0.66667 km/h
503 19-09-2013 05:00:00 10.025 C 8.85 g/m*3 10.03 C 0.53333 km/h
504 19-09-2013 06:00:00 9.56667 C 8.66 g/m*3 9.57 C 0 km/h
505 19-09-2013 07:00:00 9.44167 C 8.68 g/m*3 9.44 C 2.13333 km/h
506 19-09-2013 08:00:00 10.65 C 8.84 g/m*3 10.11 C 6.425 km/h
507 19-09-2013 09:00:00 11.21667 C 8.98 g/m*3 11.22 C 8.2 km/h
508 19-09-2013 10:00:00 11.95 C 9.34 g/m*3 11.95 C 9.14167 km/h
509 19-09-2013 11:00:00 12.85 C 9.51 g/m*3 12.85 C 9.81667 km/h
510 19-09-2013 12:00:00 14.01667 C 9.65 g/m*3 14.02 C 8.325 km/h
511 19-09-2013 13:00:00 15.03333 C 9.2 g/m*3 15.03 C 11.00833 km/h
512 19-09-2013 14:00:00 14.54167 C 9.22 g/m*3 14.54 C 9.54167 km/h
513 19-09-2013 15:00:00 13.99167 C 9.19 g/m*3 13.99 C 5.36667 km/h
514 19-09-2013 16:00:00 14.93333 C 9.1 g/m*3 14.93 C 7.8 km/h
515 19-09-2013 17:00:00 14.6 C 9.44 g/m*3 14.6 C 3.34167 km/h
516 19-09-2013 18:00:00 13.30833 C 9.66 g/m*3 13.31 C 1.6 km/h
517 19-09-2013 19:00:00 12.50833 C 9.51 g/m*3 12.51 C 2.13333 km/h
518 19-09-2013 20:00:00 12.2 C 9.33 g/m*3 12.2 C 1.2 km/h
519 19-09-2013 21:00:00 11.74167 C 9.54 g/m*3 11.74 C 0.13333 km/h
520 19-09-2013 22:00:00 11.76667 C 9.57 g/m*3 11.77 C 1.20833 km/h
521 19-09-2013 23:00:00 12.70833 C 9.22 g/m*3 12.71 C 5.625 km/h
522 20-09-2013 00:00:00 11.78333 C 9.46 g/m*3 11.78 C 4.14167 km/h
523 20-09-2013 01:00:00 11.625 C 9.53 g/m*3 11.63 C 8.58333 km/h
524 20-09-2013 02:00:00 11.74167 C 9.55 g/m*3 11.74 C 11.40833 km/h
525 20-09-2013 03:00:00 11.76667 C 9.55 g/m*3 11.77 C 10.88333 km/h
Sensor: Nr:Datum:Temp:Abs-Feuchte:Windchill:Wind:
Aussen-T/F 526 20-09-2013 04:00:00 11.88333 C 9.58 g/m*3 11.88 C 11.025 km/h
527 20-09-2013 05:00:00 12.15833 C 9.67 g/m*3 12.16 C 9.55 km/h
528 20-09-2013 06:00:00 12.26667 C 9.77 g/m*3 12.27 C 9.13333 km/h
529 20-09-2013 07:00:00 12.5 C 9.98 g/m*3 12.5 C 9.55 km/h
530 20-09-2013 08:00:00 12.76667 C 10.21 g/m*3 12.77 C 6.96667 km/h
531 20-09-2013 09:00:00 13.64167 C 10.61 g/m*3 13.64 C 9.025 km/h
532 20-09-2013 10:00:00 14.78333 C 10.97 g/m*3 14.78 C 6.05 km/h
533 20-09-2013 11:00:00 15.46667 C 10.95 g/m*3 15.47 C 6.99167 km/h
534 20-09-2013 12:00:00 15.625 C 10.7 g/m*3 15.63 C 8.325 km/h
535 20-09-2013 13:00:00 15.51667 C 10.79 g/m*3 15.52 C 5.625 km/h
536 20-09-2013 14:00:00 16.04167 C 10.8 g/m*3 16.04 C 5.48333 km/h
537 20-09-2013 15:00:00 16.275 C 10.81 g/m*3 16.27 C 5.225 km/h
538 20-09-2013 16:00:00 17.29167 C 9.91 g/m*3 17.29 C 10.88333 km/h
539 20-09-2013 17:00:00 16.925 C 10.24 g/m*3 16.93 C 6.05 km/h
540 20-09-2013 18:00:00 15.35833 C 10.9 g/m*3 15.36 C 0.66667 km/h
541 20-09-2013 19:00:00 14.5 C 10.67 g/m*3 14.5 C 2.26667 km/h
542 20-09-2013 20:00:00 13.90833 C 10.62 g/m*3 13.91 C 0.26667 km/h
543 20-09-2013 21:00:00 13.69167 C 10.46 g/m*3 13.69 C 1.06667 km/h
544 20-09-2013 22:00:00 13.65833 C 10.5 g/m*3 13.66 C 0.4 km/h
545 20-09-2013 23:00:00 12.85833 C 10.19 g/m*3 12.86 C 0.13333 km/h
546 21-09-2013 00:00:00 11.93333 C 9.85 g/m*3 11.93 C 0.13333 km/h
547 21-09-2013 01:00:00 11.24167 C 9.58 g/m*3 11.24 C 0 km/h
548 21-09-2013 02:00:00 10.65 C 9.3 g/m*3 10.65 C 0 km/h
549 21-09-2013 03:00:00 10.20833 C 9.12 g/m*3 10.21 C 0.26667 km/h
550 21-09-2013 04:00:00 9.86667 C 8.94 g/m*3 9.87 C 0.66667 km/h
Sensor: Nr:Datum:Temp:Abs-Feuchte:Windchill:Wind:
Aussen-T/F 551 21-09-2013 05:00:00 9.025 C 8.48 g/m*3 9.03 C 1.33333 km/h
552 21-09-2013 06:00:00 8.81667 C 8.43 g/m*3 8.82 C 2.53333 km/h
553 21-09-2013 07:00:00 8.65 C 8.36 g/m*3 7.87 C 6.16667 km/h
554 21-09-2013 08:00:00 8.63333 C 8.35 g/m*3 7.25 C 8.73333 km/h
555 21-09-2013 09:00:00 9.16667 C 8.73 g/m*3 8.1 C 7.65833 km/h
556 21-09-2013 10:00:00 10.08333 C 9.26 g/m*3 9.33 C 6.975 km/h
557 21-09-2013 11:00:00 11.49167 C 10.02 g/m*3 11.49 C 1.2 km/h
558 21-09-2013 12:00:00 13.475 C 10.74 g/m*3 13.48 C 0.4 km/h
559 21-09-2013 13:00:00 15.55 C 11.05 g/m*3 15.55 C 1.73333 km/h
560 21-09-2013 14:00:00 16.925 C 10.76 g/m*3 16.93 C 3.2 km/h
561 21-09-2013 15:00:00 17.48333 C 10.69 g/m*3 17.48 C 2.675 km/h
562 21-09-2013 16:00:00 17.90833 C 10.95 g/m*3 17.91 C 4.55833 km/h
563 21-09-2013 17:00:00 16.60833 C 11.61 g/m*3 16.61 C 0.66667 km/h
564 21-09-2013 18:00:00 15.14167 C 11.39 g/m*3 15.14 C 0.53333 km/h
565 21-09-2013 19:00:00 13.7 C 10.76 g/m*3 13.7 C 0.53333 km/h
566 21-09-2013 20:00:00 12.68333 C 10.29 g/m*3 12.68 C 0 km/h
567 21-09-2013 21:00:00 11.85 C 9.9 g/m*3 11.85 C 0 km/h
568 21-09-2013 22:00:00 11.2 C 9.58 g/m*3 11.2 C 0 km/h
569 21-09-2013 23:00:00 10.71667 C 9.34 g/m*3 10.72 C 0.53333 km/h
570 22-09-2013 00:00:00 10.29167 C 9.19 g/m*3 10.29 C 0 km/h
571 22-09-2013 01:00:00 9.99167 C 9.02 g/m*3 9.99 C 0 km/h
572 22-09-2013 02:00:00 9.63333 C 8.85 g/m*3 9.63 C 0 km/h
573 22-09-2013 03:00:00 9.375 C 8.76 g/m*3 9.38 C 0 km/h
574 22-09-2013 04:00:00 9.06667 C 8.59 g/m*3 9.07 C 0 km/h
575 22-09-2013 05:00:00 9.25833 C 8.69 g/m*3 9.26 C 0.13333 km/h
Sensor: Nr:Datum:Temp:Abs-Feuchte:Windchill:Wind:
Aussen-T/F 576 22-09-2013 06:00:00 9.325 C 8.74 g/m*3 9.32 C 0 km/h
577 22-09-2013 07:00:00 9.70833 C 9 g/m*3 9.71 C 0 km/h
578 22-09-2013 08:00:00 10.43704 C 9.45 g/m*3 10.44 C 0 km/h
579 22-09-2013 09:00:00 10.78148 C 9.62 g/m*3 10.78 C 0.05926 km/h
580 22-09-2013 10:00:00 12.5 C 10.22 g/m*3 12.5 C 1.2 km/h
581 22-09-2013 11:00:00 14.45833 C 10.82 g/m*3 14.46 C 1.86667 km/h
582 22-09-2013 12:00:00 15.95 C 11.34 g/m*3 15.95 C 2.93333 km/h
583 22-09-2013 13:00:00 17.18333 C 11.61 g/m*3 17.18 C 2.66667 km/h
584 22-09-2013 14:00:00 18.58571 C 12.11 g/m*3 18.59 C 3.88571 km/h
585 22-09-2013 15:00:00 18.35 C 12.56 g/m*3 18.35 C 1.06667 km/h
586 22-09-2013 16:00:00 17.91667 C 12.69 g/m*3 17.92 C 2.28333 km/h
587 22-09-2013 17:00:00 19.48333 C 12.09 g/m*3 19.48 C 6.40833 km/h
588 22-09-2013 18:00:00 18.45833 C 12.11 g/m*3 18.46 C 4.275 km/h
589 22-09-2013 19:00:00 16.14167 C 12.22 g/m*3 16.14 C 0.13333 km/h
590 22-09-2013 20:00:00 15.39167 C 12.16 g/m*3 15.39 C 0 km/h
591 22-09-2013 21:00:00 15.08333 C 12.04 g/m*3 15.08 C 0 km/h
592 22-09-2013 22:00:00 14.89167 C 11.97 g/m*3 14.89 C 0 km/h
593 22-09-2013 23:00:00 14.26667 C 11.59 g/m*3 14.27 C 0 km/h
594 23-09-2013 00:00:00 14.41667 C 11.79 g/m*3 14.42 C 0 km/h
595 23-09-2013 01:00:00 14.55833 C 11.85 g/m*3 14.56 C 0.4 km/h
596 23-09-2013 02:00:00 14.64167 C 11.9 g/m*3 14.64 C 0.26667 km/h
597 23-09-2013 03:00:00 14.68333 C 11.94 g/m*3 14.68 C 0.13333 km/h
598 23-09-2013 04:00:00 14.7 C 11.96 g/m*3 14.7 C 0.26667 km/h
599 23-09-2013 05:00:00 14.68333 C 11.98 g/m*3 14.68 C 1.33333 km/h
600 23-09-2013 06:00:00 14.725 C 12.09 g/m*3 14.73 C 0.26667 km/h
Sensor: Nr:Datum:Temp:Abs-Feuchte:Windchill:Wind:
Aussen-T/F 601 23-09-2013 07:00:00 14.73333 C 12.11 g/m*3 14.73 C 0.13333 km/h
602 23-09-2013 08:00:00 14.83333 C 12.13 g/m*3 14.83 C 0.66667 km/h
603 23-09-2013 09:00:00 15.36667 C 12.3 g/m*3 15.37 C 0.53333 km/h
604 23-09-2013 10:00:00 16.15 C 12.52 g/m*3 16.15 C 2.66667 km/h
605 23-09-2013 11:00:00 17.26667 C 12.33 g/m*3 17.27 C 3.73333 km/h
606 23-09-2013 12:00:00 17.83333 C 12.03 g/m*3 17.83 C 4.4 km/h
607 23-09-2013 13:00:00 18.25 C 11.91 g/m*3 18.25 C 5.74167 km/h
608 23-09-2013 14:00:00 18.29167 C 11.84 g/m*3 18.29 C 4.80833 km/h
609 23-09-2013 15:00:00 18.75 C 11.72 g/m*3 18.75 C 5.34167 km/h
610 23-09-2013 16:00:00 18.8 C 11.64 g/m*3 18.8 C 3.73333 km/h
611 23-09-2013 17:00:00 17.61667 C 12.27 g/m*3 17.62 C 0.26667 km/h
612 23-09-2013 18:00:00 16.50833 C 12.32 g/m*3 16.51 C 0 km/h
613 23-09-2013 19:00:00 14.83333 C 11.47 g/m*3 14.83 C 0 km/h
614 23-09-2013 20:00:00 13.63333 C 10.87 g/m*3 13.63 C 0.13333 km/h
615 23-09-2013 21:00:00 12.74167 C 10.43 g/m*3 12.74 C 0 km/h
616 23-09-2013 22:00:00 11.90833 C 10.06 g/m*3 11.91 C 0 km/h
617 23-09-2013 23:00:00 11.23333 C 9.69 g/m*3 11.23 C 0 km/h
618 24-09-2013 00:00:00 10.69167 C 9.42 g/m*3 10.69 C 0 km/h
619 24-09-2013 01:00:00 10.15 C 9.11 g/m*3 10.15 C 0 km/h
620 24-09-2013 02:00:00 9.85833 C 9.02 g/m*3 9.86 C 0 km/h
621 24-09-2013 03:00:00 9.88333 C 9.05 g/m*3 9.88 C 0.53333 km/h
622 24-09-2013 04:00:00 9.63333 C 8.9 g/m*3 9.63 C 1.2 km/h
623 24-09-2013 05:00:00 9.225 C 8.68 g/m*3 9.23 C 0.8 km/h
624 24-09-2013 06:00:00 9.15 C 8.7 g/m*3 9.15 C 0 km/h
625 24-09-2013 07:00:00 9.05833 C 8.67 g/m*3 9.06 C 0 km/h
Sensor: Nr:Datum:Temp:Abs-Feuchte:Windchill:Wind:
Aussen-T/F 626 24-09-2013 08:00:00 9.11667 C 8.7 g/m*3 9.12 C 2.53333 km/h
627 24-09-2013 09:00:00 9.2 C 8.75 g/m*3 9.2 C 3.06667 km/h
628 24-09-2013 10:00:00 9.86667 C 9.13 g/m*3 9.87 C 1.86667 km/h
629 24-09-2013 11:00:00 10.90833 C 9.75 g/m*3 10.91 C 1.46667 km/h
630 24-09-2013 12:00:00 12.36667 C 10.69 g/m*3 12.37 C 2 km/h
631 24-09-2013 13:00:00 15.1 C 12.04 g/m*3 15.1 C 0.66667 km/h
632 24-09-2013 14:00:00 16.79167 C 12.63 g/m*3 16.79 C 1.2 km/h
633 24-09-2013 15:00:00 17.54167 C 12.8 g/m*3 17.54 C 2.26667 km/h
634 24-09-2013 16:00:00 17.53333 C 12.88 g/m*3 17.53 C 0.13333 km/h
635 24-09-2013 17:00:00 16.66667 C 12.76 g/m*3 16.67 C 0.13333 km/h
636 24-09-2013 18:00:00 16.30833 C 12.63 g/m*3 16.31 C 0.13333 km/h
637 24-09-2013 19:00:00 15.225 C 12.01 g/m*3 15.23 C 0 km/h
638 24-09-2013 20:00:00 14.125 C 11.38 g/m*3 14.13 C 0 km/h
639 24-09-2013 21:00:00 13.43333 C 11.06 g/m*3 13.43 C 0 km/h
640 24-09-2013 22:00:00 12.55 C 10.53 g/m*3 12.55 C 0 km/h
641 24-09-2013 23:00:00 11.96667 C 10.21 g/m*3 11.97 C 0 km/h
642 25-09-2013 00:00:00 11.55 C 10.03 g/m*3 11.55 C 0 km/h
643 25-09-2013 01:00:00 11.05 C 9.73 g/m*3 11.05 C 0 km/h
644 25-09-2013 02:00:00 10.7 C 9.53 g/m*3 10.7 C 0 km/h
645 25-09-2013 03:00:00 10.65833 C 9.54 g/m*3 10.66 C 0 km/h
646 25-09-2013 04:00:00 10.7 C 9.61 g/m*3 10.7 C 0.13333 km/h
647 25-09-2013 05:00:00 10.35 C 9.42 g/m*3 10.35 C 0 km/h
648 25-09-2013 06:00:00 10.2 C 9.33 g/m*3 10.2 C 1.6 km/h
649 25-09-2013 07:00:00 10.09167 C 9.26 g/m*3 10.09 C 0.26667 km/h
650 25-09-2013 08:00:00 10.21667 C 9.34 g/m*3 10.22 C 1.6 km/h
Sensor: Nr:Datum:Temp:Abs-Feuchte:Windchill:Wind:
Aussen-T/F 651 25-09-2013 09:00:00 10.6 C 9.57 g/m*3 10.6 C 0.66667 km/h
652 25-09-2013 10:00:00 11.35833 C 10.03 g/m*3 11.36 C 0.26667 km/h
653 25-09-2013 11:00:00 12.74167 C 10.96 g/m*3 12.74 C 0 km/h
654 25-09-2013 12:00:00 14.99167 C 12.36 g/m*3 14.99 C 0.66667 km/h
655 25-09-2013 13:00:00 16.95833 C 13.3 g/m*3 16.96 C 0 km/h
656 25-09-2013 14:00:00 17.74167 C 13.85 g/m*3 17.74 C 0 km/h
657 25-09-2013 15:00:00 18.21667 C 14.17 g/m*3 18.22 C 0.13333 km/h
658 25-09-2013 16:00:00 18.84167 C 14.69 g/m*3 18.84 C 0 km/h
659 25-09-2013 17:00:00 19.66667 C 14.72 g/m*3 19.67 C 0.66667 km/h
660 25-09-2013 18:00:00 18.875 C 14.05 g/m*3 18.88 C 1.60833 km/h
661 25-09-2013 19:00:00 17.21667 C 13.42 g/m*3 17.22 C 1.46667 km/h
662 25-09-2013 20:00:00 17.375 C 13.21 g/m*3 17.38 C 2.80833 km/h
663 25-09-2013 21:00:00 16.775 C 13 g/m*3 16.77 C 0.66667 km/h
664 25-09-2013 22:00:00 16.05833 C 12.85 g/m*3 16.06 C 0 km/h
665 25-09-2013 23:00:00 15.14167 C 12.28 g/m*3 15.14 C 0.13333 km/h
666 26-09-2013 00:00:00 14.75 C 12.12 g/m*3 14.75 C 0 km/h
667 26-09-2013 01:00:00 14.65 C 12.05 g/m*3 14.65 C 0 km/h
668 26-09-2013 02:00:00 14.06667 C 11.65 g/m*3 14.07 C 0 km/h
669 26-09-2013 03:00:00 13.78333 C 11.54 g/m*3 13.78 C 0.4 km/h
670 26-09-2013 04:00:00 13.9 C 11.63 g/m*3 13.9 C 2.66667 km/h
671 26-09-2013 05:00:00 14.14167 C 11.8 g/m*3 14.14 C 2.93333 km/h
672 26-09-2013 06:00:00 14.2 C 11.77 g/m*3 14.2 C 1.2 km/h
673 26-09-2013 07:00:00 14.26667 C 11.79 g/m*3 14.27 C 1.46667 km/h
674 26-09-2013 08:00:00 14.6 C 12.04 g/m*3 14.6 C 1.06667 km/h
675 26-09-2013 09:00:00 15.10833 C 12.23 g/m*3 15.11 C 4.55 km/h
Sensor: Nr:Datum:Temp:Abs-Feuchte:Windchill:Wind:
Aussen-T/F 676 26-09-2013 10:00:00 15.875 C 11.9 g/m*3 15.88 C 6.025 km/h
677 26-09-2013 11:00:00 16.475 C 11.75 g/m*3 16.48 C 7.64167 km/h
678 26-09-2013 12:00:00 16.64167 C 11.51 g/m*3 16.64 C 7.8 km/h
679 26-09-2013 13:00:00 16.025 C 11.43 g/m*3 16.02 C 5.89167 km/h
680 26-09-2013 14:00:00 15.79167 C 11.6 g/m*3 15.79 C 6.45 km/h
681 26-09-2013 15:00:00 16.11667 C 11.62 g/m*3 16.12 C 3.06667 km/h
682 26-09-2013 16:00:00 16.68333 C 11.61 g/m*3 16.68 C 3.46667 km/h
683 26-09-2013 17:00:00 16.425 C 11.7 g/m*3 16.43 C 2.26667 km/h
684 26-09-2013 18:00:00 15.38333 C 11.39 g/m*3 15.38 C 2.26667 km/h
685 26-09-2013 19:00:00 13.825 C 10.8 g/m*3 13.83 C 0.93333 km/h
686 26-09-2013 20:00:00 12.55 C 10.26 g/m*3 12.55 C 0.13333 km/h
687 26-09-2013 21:00:00 11.91667 C 9.87 g/m*3 11.92 C 0 km/h
688 26-09-2013 22:00:00 11.53333 C 9.73 g/m*3 11.53 C 0.13333 km/h
689 26-09-2013 23:00:00 11.43333 C 9.69 g/m*3 11.43 C 0.53333 km/h
690 27-09-2013 00:00:00 10.7 C 9.25 g/m*3 10.7 C 0.93333 km/h
691 27-09-2013 01:00:00 9.95833 C 8.88 g/m*3 9.96 C 0.13333 km/h
692 27-09-2013 02:00:00 9.30833 C 8.54 g/m*3 9.31 C 0 km/h
693 27-09-2013 03:00:00 8.85833 C 8.33 g/m*3 8.86 C 0 km/h
694 27-09-2013 04:00:00 8.56667 C 8.23 g/m*3 8.57 C 0 km/h
695 27-09-2013 05:00:00 8.26667 C 8.07 g/m*3 8.27 C 0 km/h
696 27-09-2013 06:00:00 7.825 C 7.85 g/m*3 7.83 C 0 km/h
697 27-09-2013 07:00:00 7.39167 C 7.68 g/m*3 7.39 C 0 km/h
698 27-09-2013 08:00:00 7.94167 C 7.99 g/m*3 7.94 C 0 km/h
699 27-09-2013 09:00:00 9.11667 C 8.59 g/m*3 9.12 C 1.73333 km/h
700 27-09-2013 10:00:00 10.26667 C 8.79 g/m*3 10.27 C 2.4 km/h
Sensor: Nr:Datum:Temp:Abs-Feuchte:Windchill:Wind:
Aussen-T/F 701 27-09-2013 11:00:00 11.36667 C 9.03 g/m*3 11.37 C 3.33333 km/h
702 27-09-2013 12:00:00 12.84167 C 9.38 g/m*3 12.84 C 6.15833 km/h
703 27-09-2013 13:00:00 15.45 C 10.14 g/m*3 15.45 C 6.29167 km/h
704 27-09-2013 14:00:00 16.44167 C 10.52 g/m*3 16.44 C 4 km/h
705 27-09-2013 15:00:00 17.14167 C 10.36 g/m*3 17.14 C 4.13333 km/h
706 27-09-2013 16:00:00 16.8 C 10.7 g/m*3 16.8 C 1.6 km/h
707 27-09-2013 17:00:00 15.09167 C 10.66 g/m*3 15.09 C 1.6 km/h
708 27-09-2013 18:00:00 13.69167 C 10.34 g/m*3 13.69 C 0.26667 km/h
709 27-09-2013 19:00:00 12.21667 C 9.54 g/m*3 12.22 C 0.26667 km/h
710 27-09-2013 20:00:00 11.16667 C 9.06 g/m*3 11.17 C 0.66667 km/h
711 27-09-2013 21:00:00 10.45 C 8.69 g/m*3 10.45 C 0.26667 km/h
712 27-09-2013 22:00:00 9.85 C 8.41 g/m*3 9.85 C 0.13333 km/h
713 27-09-2013 23:00:00 9.36667 C 8.15 g/m*3 9.37 C 0.13333 km/h
714 28-09-2013 00:00:00 8.7 C 7.86 g/m*3 8.7 C 0 km/h
715 28-09-2013 01:00:00 8.16667 C 7.74 g/m*3 8.17 C 0 km/h
716 28-09-2013 02:00:00 7.55833 C 7.45 g/m*3 7.56 C 0 km/h
717 28-09-2013 03:00:00 6.96667 C 7.25 g/m*3 6.97 C 0 km/h
718 28-09-2013 04:00:00 6.45 C 7.07 g/m*3 6.45 C 0 km/h
719 28-09-2013 05:00:00 6.11667 C 6.95 g/m*3 6.12 C 0 km/h
720 28-09-2013 06:00:00 5.93333 C 6.94 g/m*3 5.93 C 0 km/h
721 28-09-2013 07:00:00 5.7 C 6.83 g/m*3 5.7 C 0 km/h
722 28-09-2013 08:00:00 5.825 C 6.89 g/m*3 5.83 C 0 km/h
723 28-09-2013 09:00:00 6.55833 C 7.23 g/m*3 6.56 C 0 km/h
724 28-09-2013 10:00:00 7.81667 C 7.82 g/m*3 7.82 C 0.26667 km/h
725 28-09-2013 11:00:00 9.74167 C 8.57 g/m*3 9.74 C 1.33333 km/h
Sensor: Nr:Datum:Temp:Abs-Feuchte:Windchill:Wind:
Aussen-T/F 726 28-09-2013 12:00:00 12.48333 C 9.38 g/m*3 12.48 C 4 km/h
727 28-09-2013 13:00:00 15.56667 C 10.23 g/m*3 15.57 C 5.35 km/h
728 28-09-2013 14:00:00 16.86667 C 10.78 g/m*3 16.87 C 5.75833 km/h
729 28-09-2013 15:00:00 17.4 C 11.02 g/m*3 17.4 C 5.225 km/h
730 28-09-2013 16:00:00 16.275 C 11.23 g/m*3 16.27 C 1.86667 km/h
731 28-09-2013 17:00:00 16.2 C 10.58 g/m*3 16.2 C 3.6 km/h
732 28-09-2013 18:00:00 13.92 C 10.49 g/m*3 13.92 C 0.32 km/h
733 28-09-2013 19:00:00 12.85 C 9.96 g/m*3 12.85 C 0 km/h
734 28-09-2013 20:00:00 12.16667 C 9.67 g/m*3 12.17 C 0.26667 km/h
735 28-09-2013 21:00:00 12.16667 C 9.32 g/m*3 12.17 C 1.06667 km/h
736 28-09-2013 22:00:00 12.21818 C 9.1 g/m*3 12.22 C 2.61818 km/h
737 28-09-2013 23:00:00 12.24167 C 8.97 g/m*3 12.24 C 1.6 km/h
738 29-09-2013 00:00:00 12.03333 C 8.85 g/m*3 12.03 C 0.93333 km/h
739 29-09-2013 01:00:00 11.60833 C 8.78 g/m*3 11.61 C 0.93333 km/h
740 29-09-2013 02:00:00 10.81667 C 8.97 g/m*3 10.82 C 1.2 km/h
741 29-09-2013 03:00:00 10.08333 C 8.94 g/m*3 10.08 C 0 km/h
742 29-09-2013 04:00:00 9.71667 C 8.78 g/m*3 9.72 C 1.86667 km/h
743 29-09-2013 05:00:00 9.425 C 8.68 g/m*3 9.43 C 0 km/h
744 29-09-2013 06:00:00 8.93333 C 8.43 g/m*3 8.93 C 1.2 km/h
745 29-09-2013 07:00:00 8.95 C 8.44 g/m*3 8.95 C 1.06667 km/h
746 29-09-2013 08:00:00 9.15 C 8.53 g/m*3 9.15 C 1.06667 km/h
747 29-09-2013 09:00:00 9.74167 C 8.74 g/m*3 9.74 C 0.8 km/h
748 29-09-2013 10:00:00 10.76667 C 8.98 g/m*3 10.77 C 2.54167 km/h
749 29-09-2013 11:00:00 11.95833 C 8.88 g/m*3 11.96 C 4.28333 km/h
750 29-09-2013 12:00:00 13.86667 C 9.16 g/m*3 13.87 C 6.85 km/h
Sensor: Nr:Datum:Temp:Abs-Feuchte:Windchill:Wind:
Aussen-T/F 751 29-09-2013 13:00:00 14.23333 C 9.97 g/m*3 14.23 C 4.29167 km/h
752 29-09-2013 14:00:00 16.3 C 9.9 g/m*3 16.3 C 6.96667 km/h
753 29-09-2013 15:00:00 16.48333 C 9.87 g/m*3 16.48 C 5.75833 km/h
754 29-09-2013 16:00:00 17.56667 C 9.27 g/m*3 17.57 C 6.43333 km/h
755 29-09-2013 17:00:00 16.74167 C 9.45 g/m*3 16.74 C 6.43333 km/h
756 29-09-2013 18:00:00 13.88333 C 9.85 g/m*3 13.88 C 1.46667 km/h
757 29-09-2013 19:00:00 12.03333 C 9.07 g/m*3 12.03 C 0.53333 km/h
758 29-09-2013 20:00:00 11.33333 C 8.89 g/m*3 11.33 C 0.13333 km/h
759 29-09-2013 21:00:00 10.66667 C 8.54 g/m*3 10.67 C 0.13333 km/h
760 29-09-2013 22:00:00 9.93333 C 8.13 g/m*3 9.93 C 0 km/h
761 29-09-2013 23:00:00 9.14167 C 7.77 g/m*3 9.14 C 0 km/h
762 30-09-2013 00:00:00 8.60833 C 7.49 g/m*3 8.61 C 0.26667 km/h
763 30-09-2013 01:00:00 8.01667 C 7.25 g/m*3 8.02 C 0 km/h
764 30-09-2013 02:00:00 7.525 C 7.16 g/m*3 7.53 C 0.26667 km/h
765 30-09-2013 03:00:00 7.03333 C 7.11 g/m*3 7.03 C 0 km/h
766 30-09-2013 04:00:00 6.74167 C 7.05 g/m*3 6.74 C 0 km/h
767 30-09-2013 05:00:00 6.33333 C 6.96 g/m*3 6.33 C 0 km/h
768 30-09-2013 06:00:00 6.125 C 6.88 g/m*3 6.13 C 0 km/h
769 30-09-2013 07:00:00 5.76667 C 6.78 g/m*3 5.77 C 0 km/h
770 30-09-2013 08:00:00 5.90833 C 6.85 g/m*3 5.91 C 0 km/h
771 30-09-2013 09:00:00 6.425 C 7.09 g/m*3 6.43 C 0 km/h
772 30-09-2013 10:00:00 7.64167 C 7.53 g/m*3 7.64 C 2.26667 km/h
773 30-09-2013 11:00:00 9.68333 C 7.93 g/m*3 9.29 C 5.35 km/h
774 30-09-2013 12:00:00 11.5 C 8.38 g/m*3 11.5 C 4.41667 km/h
775 30-09-2013 13:00:00 13.70833 C 8.73 g/m*3 13.71 C 6.3 km/h
Sensor: Nr:Datum:Temp:Abs-Feuchte:Windchill:Wind:
Aussen-T/F 776 30-09-2013 14:00:00 14.725 C 8.74 g/m*3 14.73 C 7.51667 km/h
777 30-09-2013 15:00:00 15.10833 C 8.84 g/m*3 15.11 C 5.1 km/h
778 30-09-2013 16:00:00 14.225 C 9.33 g/m*3 14.23 C 1.6 km/h
779 30-09-2013 17:00:00 13.08333 C 9.78 g/m*3 13.08 C 0 km/h
780 30-09-2013 18:00:00 12.15 C 9.5 g/m*3 12.15 C 0 km/h
781 30-09-2013 19:00:00 11.59167 C 9.3 g/m*3 11.59 C 0 km/h
782 30-09-2013 20:00:00 11.325 C 9.15 g/m*3 11.33 C 0 km/h
783 30-09-2013 21:00:00 11.175 C 9.14 g/m*3 11.18 C 0 km/h
784 30-09-2013 22:00:00 10.80833 C 8.98 g/m*3 10.81 C 0 km/h
785 30-09-2013 23:00:00 10.19167 C 8.49 g/m*3 10.19 C 0 km/h
786 01-10-2013 00:00:00 9.36667 C 8.2 g/m*3 9.37 C 0 km/h
787 01-10-2013 01:00:00 9.49167 C 8.35 g/m*3 9.49 C 0 km/h
788 01-10-2013 02:00:00 9.70833 C 8.43 g/m*3 9.71 C 0.13333 km/h
789 01-10-2013 03:00:00 9.8 C 8.33 g/m*3 9.8 C 0 km/h
790 01-10-2013 04:00:00 9.83333 C 8.17 g/m*3 9.83 C 0.26667 km/h
791 01-10-2013 05:00:00 10.19167 C 8.01 g/m*3 10.19 C 1.2 km/h
792 01-10-2013 06:00:00 9.875 C 8.09 g/m*3 9.88 C 0 km/h
793 01-10-2013 07:00:00 9.7 C 8.13 g/m*3 9.7 C 0 km/h
794 01-10-2013 08:00:00 10.1 C 7.86 g/m*3 10.1 C 2.93333 km/h
795 01-10-2013 09:00:00 10.71667 C 7.74 g/m*3 10.72 C 4.275 km/h
796 01-10-2013 10:00:00 11.30833 C 7.78 g/m*3 11.31 C 8.34167 km/h
797 01-10-2013 11:00:00 12.34167 C 8.07 g/m*3 12.34 C 9.69167 km/h
798 01-10-2013 12:00:00 13.05 C 8.29 g/m*3 13.05 C 9.825 km/h
799 01-10-2013 13:00:00 14.65833 C 8.78 g/m*3 14.66 C 8.45833 km/h
800 01-10-2013 14:00:00 15.5 C 8.97 g/m*3 15.5 C 6.15833 km/h
Sensor: Nr:Datum:Temp:Abs-Feuchte:Windchill:Wind:
Aussen-T/F 801 01-10-2013 15:00:00 15.975 C 9 g/m*3 15.98 C 8.19167 km/h
802 01-10-2013 16:00:00 16.525 C 9.09 g/m*3 16.52 C 6.98333 km/h
803 01-10-2013 17:00:00 14.91667 C 9.73 g/m*3 14.92 C 1.2 km/h
804 01-10-2013 18:00:00 13.01667 C 9.51 g/m*3 13.02 C 0.53333 km/h
805 01-10-2013 19:00:00 11.08333 C 8.53 g/m*3 11.08 C 1.33333 km/h
806 01-10-2013 20:00:00 10.46667 C 7.63 g/m*3 10.47 C 2 km/h
807 01-10-2013 21:00:00 9.7 C 7.19 g/m*3 9.7 C 1.06667 km/h
808 01-10-2013 22:00:00 8.31667 C 7.01 g/m*3 8.32 C 0.4 km/h
809 01-10-2013 23:00:00 7.54167 C 6.8 g/m*3 7.54 C 0.8 km/h
810 02-10-2013 00:00:00 8.35833 C 6.76 g/m*3 8.36 C 4.7 km/h
811 02-10-2013 01:00:00 6.85 C 6.62 g/m*3 6.85 C 0 km/h
812 02-10-2013 02:00:00 6.09167 C 6.46 g/m*3 6.09 C 0 km/h
813 02-10-2013 03:00:00 5.41667 C 6.32 g/m*3 5.42 C 0 km/h
814 02-10-2013 04:00:00 5.08333 C 6.25 g/m*3 5.08 C 0 km/h
815 02-10-2013 05:00:00 4.73333 C 6.15 g/m*3 4.73 C 0 km/h
816 02-10-2013 06:00:00 4.35833 C 6.07 g/m*3 4.36 C 0 km/h
817 02-10-2013 07:00:00 4.26667 C 6.08 g/m*3 4.27 C 0 km/h
818 02-10-2013 08:00:00 4.68333 C 6.27 g/m*3 4.68 C 0 km/h
819 02-10-2013 09:00:00 5.96667 C 6.8 g/m*3 5.97 C 0 km/h
820 02-10-2013 10:00:00 7.45833 C 7.3 g/m*3 7.46 C 1.33333 km/h
821 02-10-2013 11:00:00 9.475 C 7.69 g/m*3 9.48 C 2.93333 km/h
822 02-10-2013 12:00:00 11.60833 C 8.19 g/m*3 11.61 C 3.60833 km/h
823 02-10-2013 13:00:00 15.10833 C 8.34 g/m*3 15.11 C 7.24167 km/h
824 02-10-2013 14:00:00 16.20833 C 7.94 g/m*3 16.21 C 7.50833 km/h
825 02-10-2013 15:00:00 16.175 C 7.89 g/m*3 16.18 C 7.625 km/h
Sensor: Nr:Datum:Temp:Abs-Feuchte:Windchill:Wind:
Aussen-T/F 826 02-10-2013 16:00:00 16.21667 C 8.21 g/m*3 16.22 C 6.425 km/h
827 02-10-2013 17:00:00 14.01667 C 8.39 g/m*3 14.02 C 2.26667 km/h
828 02-10-2013 18:00:00 11.85833 C 8.47 g/m*3 11.86 C 1.46667 km/h
829 02-10-2013 19:00:00 10 C 7.78 g/m*3 10 C 0.93333 km/h
830 02-10-2013 20:00:00 8.99167 C 7.45 g/m*3 8.99 C 0.93333 km/h
831 02-10-2013 21:00:00 8.375 C 7.16 g/m*3 8.38 C 0 km/h
832 02-10-2013 22:00:00 7.79167 C 6.96 g/m*3 7.79 C 0.13333 km/h
833 02-10-2013 23:00:00 7.26667 C 6.77 g/m*3 7.27 C 0 km/h
834 03-10-2013 00:00:00 6.69167 C 6.57 g/m*3 6.69 C 0.13333 km/h
835 03-10-2013 01:00:00 6.24167 C 6.39 g/m*3 6.24 C 0 km/h
836 03-10-2013 02:00:00 5.74167 C 6.27 g/m*3 5.74 C 0 km/h
837 03-10-2013 03:00:00 5.05833 C 6.11 g/m*3 5.06 C 0 km/h
838 03-10-2013 04:00:00 4.50833 C 5.97 g/m*3 4.51 C 0 km/h
839 03-10-2013 05:00:00 4.19167 C 5.92 g/m*3 4.19 C 0 km/h
840 03-10-2013 06:00:00 4.01667 C 5.8 g/m*3 4.02 C 0 km/h
841 03-10-2013 07:00:00 3.675 C 5.7 g/m*3 3.68 C 0 km/h
842 03-10-2013 08:00:00 4.10833 C 5.85 g/m*3 4.11 C 0 km/h
843 03-10-2013 09:00:00 5.175 C 6.21 g/m*3 5.18 C 0 km/h
844 03-10-2013 10:00:00 6.54167 C 6.64 g/m*3 6.54 C 0.4 km/h
845 03-10-2013 11:00:00 8.91667 C 6.89 g/m*3 8.92 C 4.14167 km/h
846 03-10-2013 12:00:00 11.31667 C 7.07 g/m*3 11.32 C 5.625 km/h
847 03-10-2013 13:00:00 13.99167 C 7.44 g/m*3 13.99 C 6.70833 km/h
848 03-10-2013 14:00:00 15.13333 C 7.5 g/m*3 15.13 C 6.575 km/h
849 03-10-2013 15:00:00 15.50833 C 7.91 g/m*3 15.51 C 6.575 km/h
850 03-10-2013 16:00:00 15.35833 C 8.22 g/m*3 15.36 C 4.675 km/h
Sensor: Nr:Datum:Temp:Abs-Feuchte:Windchill:Wind:
Aussen-T/F 851 03-10-2013 17:00:00 13.075 C 8.92 g/m*3 13.08 C 1.2 km/h
852 03-10-2013 18:00:00 12.23333 C 8.62 g/m*3 12.23 C 1.06667 km/h
853 03-10-2013 19:00:00 10.95833 C 8.11 g/m*3 10.96 C 0.4 km/h
854 03-10-2013 20:00:00 10.6 C 7.95 g/m*3 10.6 C 0.26667 km/h
855 03-10-2013 21:00:00 10.1 C 7.75 g/m*3 10.1 C 0.26667 km/h
856 03-10-2013 22:00:00 9.61667 C 7.53 g/m*3 9.62 C 0 km/h
857 03-10-2013 23:00:00 9.51667 C 7.46 g/m*3 9.52 C 0.13333 km/h
858 04-10-2013 00:00:00 9.26667 C 7.38 g/m*3 9.27 C 0.26667 km/h
859 04-10-2013 01:00:00 9.29167 C 7.34 g/m*3 9.29 C 0 km/h
860 04-10-2013 02:00:00 9.46667 C 7.49 g/m*3 9.47 C 0 km/h
861 04-10-2013 03:00:00 9.68333 C 7.59 g/m*3 9.68 C 0 km/h
862 04-10-2013 04:00:00 9.875 C 7.73 g/m*3 9.88 C 0 km/h
863 04-10-2013 05:00:00 9.31667 C 8.29 g/m*3 9.32 C 0 km/h
864 04-10-2013 06:00:00 8.85 C 8.29 g/m*3 8.85 C 0 km/h
865 04-10-2013 07:00:00 8.4 C 8.1 g/m*3 8.4 C 0 km/h
866 04-10-2013 08:00:00 8.49167 C 8.2 g/m*3 8.49 C 0 km/h
867 04-10-2013 09:00:00 9.33333 C 8.74 g/m*3 9.33 C 0 km/h
868 04-10-2013 10:00:00 10.39167 C 9.19 g/m*3 10.39 C 0 km/h
869 04-10-2013 11:00:00 10.49167 C 9.21 g/m*3 10.49 C 0 km/h
870 04-10-2013 12:00:00 11.775 C 9.79 g/m*3 11.78 C 0 km/h
871 04-10-2013 13:00:00 12.975 C 10.32 g/m*3 12.98 C 0 km/h
872 04-10-2013 14:00:00 13.475 C 10.72 g/m*3 13.48 C 0 km/h
873 04-10-2013 15:00:00 14 C 11.08 g/m*3 14 C 0 km/h
874 04-10-2013 16:00:00 14.13333 C 11.36 g/m*3 14.13 C 0 km/h
875 04-10-2013 17:00:00 14.30833 C 11.59 g/m*3 14.31 C 0 km/h
Sensor: Nr:Datum:Temp:Abs-Feuchte:Windchill:Wind:
Aussen-T/F 876 04-10-2013 18:00:00 14.325 C 11.34 g/m*3 14.33 C 3.2 km/h
877 04-10-2013 19:00:00 13.65 C 10.99 g/m*3 13.65 C 1.06667 km/h
878 04-10-2013 20:00:00 13.09167 C 10.74 g/m*3 13.09 C 0.4 km/h
879 04-10-2013 21:00:00 12.73333 C 10.6 g/m*3 12.73 C 0.13333 km/h
880 04-10-2013 22:00:00 12.46667 C 10.46 g/m*3 12.47 C 0 km/h
881 04-10-2013 23:00:00 12.36667 C 10.42 g/m*3 12.37 C 0 km/h
882 05-10-2013 00:00:00 12.21667 C 10.37 g/m*3 12.22 C 0 km/h
883 05-10-2013 01:00:00 12.25833 C 10.4 g/m*3 12.26 C 0 km/h
884 05-10-2013 02:00:00 12.28333 C 10.5 g/m*3 12.28 C 0 km/h
885 05-10-2013 03:00:00 12.1 C 10.4 g/m*3 12.1 C 0.13333 km/h
886 05-10-2013 04:00:00 11.64167 C 10.11 g/m*3 11.64 C 0.4 km/h
887 05-10-2013 05:00:00 11.58333 C 10.07 g/m*3 11.58 C 0.13333 km/h
888 05-10-2013 06:00:00 11.55 C 10.05 g/m*3 11.55 C 0 km/h
889 05-10-2013 07:00:00 11.53333 C 10.12 g/m*3 11.53 C 0.4 km/h
890 05-10-2013 08:00:00 11.50833 C 10.07 g/m*3 11.51 C 0 km/h
891 05-10-2013 09:00:00 11.60833 C 10.18 g/m*3 11.61 C 0.13333 km/h
892 05-10-2013 10:00:00 11.71667 C 10.25 g/m*3 11.72 C 0.13333 km/h
893 05-10-2013 11:00:00 11.75833 C 10.29 g/m*3 11.76 C 0.4 km/h
894 05-10-2013 12:00:00 11.99167 C 10.44 g/m*3 11.99 C 0 km/h
895 05-10-2013 13:00:00 12.30833 C 10.64 g/m*3 12.31 C 0 km/h
896 05-10-2013 14:00:00 12.43333 C 10.67 g/m*3 12.43 C 0.13333 km/h
897 05-10-2013 15:00:00 12.86667 C 11.02 g/m*3 12.87 C 0.13333 km/h
898 05-10-2013 16:00:00 13.60833 C 11.54 g/m*3 13.61 C 0.13333 km/h
899 05-10-2013 17:00:00 13.8 C 11.68 g/m*3 13.8 C 0.4 km/h
900 05-10-2013 18:00:00 14 C 11.82 g/m*3 14 C 0.13333 km/h
Sensor: Nr:Datum:Temp:Abs-Feuchte:Windchill:Wind:
Aussen-T/F 901 05-10-2013 19:00:00 14.06667 C 11.87 g/m*3 14.07 C 0.4 km/h
902 05-10-2013 20:00:00 14.14167 C 11.92 g/m*3 14.14 C 0.26667 km/h
903 05-10-2013 21:00:00 14.625 C 12.28 g/m*3 14.63 C 3.08333 km/h
904 05-10-2013 22:00:00 14.46667 C 12.16 g/m*3 14.47 C 0 km/h
905 05-10-2013 23:00:00 14.63333 C 12.29 g/m*3 14.63 C 1.06667 km/h
906 06-10-2013 00:00:00 14.74167 C 12.37 g/m*3 14.74 C 5.225 km/h
907 06-10-2013 01:00:00 14.38333 C 12.1 g/m*3 14.38 C 2.4 km/h
908 06-10-2013 02:00:00 14.06667 C 11.77 g/m*3 14.07 C 4.29167 km/h
909 06-10-2013 03:00:00 13.675 C 11.31 g/m*3 13.68 C 4.425 km/h
910 06-10-2013 04:00:00 13.11667 C 10.9 g/m*3 13.12 C 1.86667 km/h
911 06-10-2013 05:00:00 12.75833 C 10.83 g/m*3 12.76 C 0 km/h
912 06-10-2013 06:00:00 12.45 C 10.63 g/m*3 12.45 C 0.8 km/h
913 06-10-2013 07:00:00 12.25 C 10.5 g/m*3 12.25 C 0.26667 km/h
914 06-10-2013 08:00:00 12.025 C 10.37 g/m*3 12.03 C 1.20833 km/h
915 06-10-2013 09:00:00 12.35833 C 10.54 g/m*3 12.36 C 3.34167 km/h
916 06-10-2013 10:00:00 13.04167 C 10.61 g/m*3 13.04 C 2.93333 km/h
917 06-10-2013 11:00:00 13.88333 C 10.73 g/m*3 13.88 C 2.93333 km/h
918 06-10-2013 12:00:00 14.725 C 10.98 g/m*3 14.73 C 3.06667 km/h
919 06-10-2013 13:00:00 15.19167 C 11.02 g/m*3 15.19 C 4.13333 km/h
920 06-10-2013 14:00:00 15.26667 C 10.93 g/m*3 15.27 C 4.95 km/h
921 06-10-2013 15:00:00 15.375 C 10.77 g/m*3 15.38 C 6.83333 km/h
922 06-10-2013 16:00:00 15.46667 C 10.59 g/m*3 15.47 C 4.28333 km/h
923 06-10-2013 17:00:00 14.8 C 10.84 g/m*3 14.8 C 1.2 km/h
924 06-10-2013 18:00:00 13.38333 C 10.64 g/m*3 13.38 C 0.53333 km/h
925 06-10-2013 19:00:00 12.84167 C 10.59 g/m*3 12.84 C 0 km/h
Sensor: Nr:Datum:Temp:Abs-Feuchte:Windchill:Wind:
Aussen-T/F 926 06-10-2013 20:00:00 12.79167 C 10.64 g/m*3 12.79 C 0 km/h
927 06-10-2013 21:00:00 12.7 C 10.68 g/m*3 12.7 C 0 km/h
928 06-10-2013 22:00:00 12.6 C 10.62 g/m*3 12.6 C 0 km/h
929 06-10-2013 23:00:00 12.58333 C 10.61 g/m*3 12.58 C 0 km/h
930 07-10-2013 00:00:00 12.36667 C 10.49 g/m*3 12.37 C 0 km/h
931 07-10-2013 01:00:00 12.175 C 10.34 g/m*3 12.18 C 0 km/h
932 07-10-2013 02:00:00 12.2 C 10.39 g/m*3 12.2 C 0 km/h
933 07-10-2013 03:00:00 12.125 C 10.42 g/m*3 12.13 C 0 km/h
934 07-10-2013 04:00:00 12.05 C 10.37 g/m*3 12.05 C 0 km/h
935 07-10-2013 05:00:00 11.9 C 10.27 g/m*3 11.9 C 0 km/h
936 07-10-2013 06:00:00 11.9 C 10.27 g/m*3 11.9 C 0 km/h
937 07-10-2013 07:00:00 11.80833 C 10.21 g/m*3 11.81 C 0 km/h
938 07-10-2013 08:00:00 11.85 C 10.24 g/m*3 11.85 C 0 km/h
939 07-10-2013 09:00:00 12.24167 C 10.42 g/m*3 12.24 C 0.66667 km/h
940 07-10-2013 10:00:00 13.06667 C 10.51 g/m*3 13.07 C 1.6 km/h
941 07-10-2013 11:00:00 13.79167 C 10.85 g/m*3 13.79 C 0.26667 km/h
942 07-10-2013 12:00:00 14.65 C 11.38 g/m*3 14.65 C 2.13333 km/h
943 07-10-2013 13:00:00 16.3 C 11.69 g/m*3 16.3 C 1.46667 km/h
944 07-10-2013 14:00:00 15.86667 C 11.98 g/m*3 15.87 C 0.26667 km/h
945 07-10-2013 15:00:00 14.90833 C 11.88 g/m*3 14.91 C 0 km/h
946 07-10-2013 16:00:00 14.95833 C 12.01 g/m*3 14.96 C 0 km/h
947 07-10-2013 17:00:00 15.01667 C 12 g/m*3 15.02 C 0 km/h
948 07-10-2013 18:00:00 14.075 C 11.45 g/m*3 14.08 C 0 km/h
949 07-10-2013 19:00:00 13.125 C 11.01 g/m*3 13.13 C 0 km/h
950 07-10-2013 20:00:00 12.8 C 10.77 g/m*3 12.8 C 0 km/h
Sensor: Nr:Datum:Temp:Abs-Feuchte:Windchill:Wind:
Aussen-T/F 951 07-10-2013 21:00:00 12.61667 C 10.74 g/m*3 12.62 C 0 km/h
952 07-10-2013 22:00:00 12.675 C 10.78 g/m*3 12.68 C 0 km/h
953 07-10-2013 23:00:00 12.73333 C 10.82 g/m*3 12.73 C 0 km/h
954 08-10-2013 00:00:00 12.7 C 10.8 g/m*3 12.7 C 0 km/h
955 08-10-2013 01:00:00 12.7 C 10.8 g/m*3 12.7 C 0 km/h
956 08-10-2013 02:00:00 12.675 C 10.78 g/m*3 12.68 C 0 km/h
957 08-10-2013 03:00:00 12.6 C 10.73 g/m*3 12.6 C 0 km/h
958 08-10-2013 04:00:00 12.525 C 10.69 g/m*3 12.53 C 0 km/h
959 08-10-2013 05:00:00 12.39949 C 10.6 g/m*3 12.4 C 0 km/h
960 08-10-2013 06:00:00 12.3 C 10.64 g/m*3 12.3 C 0 km/h
961 08-10-2013 07:00:00 12.3 C 10.64 g/m*3 12.3 C 0 km/h
962 08-10-2013 08:00:00 12.43333 C 10.73 g/m*3 12.43 C 0 km/h
963 08-10-2013 09:00:00 12.70833 C 10.91 g/m*3 12.71 C 0 km/h
964 08-10-2013 10:00:00 13.09167 C 11.13 g/m*3 13.09 C 0 km/h
965 08-10-2013 11:00:00 13.91667 C 11.37 g/m*3 13.92 C 0 km/h
966 08-10-2013 12:00:00 14.71667 C 11.55 g/m*3 14.72 C 0 km/h
967 08-10-2013 13:00:00 15.31667 C 11.83 g/m*3 15.32 C 0 km/h
968 08-10-2013 14:00:00 15.64167 C 11.97 g/m*3 15.64 C 0 km/h
969 08-10-2013 15:00:00 15.96667 C 12.17 g/m*3 15.97 C 0 km/h
970 08-10-2013 16:00:00 15.38333 C 11.95 g/m*3 15.38 C 0 km/h
971 08-10-2013 17:00:00 14.6 C 11.7 g/m*3 14.6 C 0 km/h
972 08-10-2013 18:00:00 14.05 C 11.42 g/m*3 14.05 C 0 km/h
973 08-10-2013 19:00:00 13.68333 C 11.26 g/m*3 13.68 C 0 km/h
974 08-10-2013 20:00:00 13.40833 C 11.16 g/m*3 13.41 C 0 km/h
975 08-10-2013 21:00:00 13.25833 C 11.06 g/m*3 13.26 C 0 km/h
Sensor: Nr:Datum:Temp:Abs-Feuchte:Windchill:Wind:
Aussen-T/F 976 08-10-2013 22:00:00 13.20833 C 10.97 g/m*3 13.21 C 0 km/h
977 08-10-2013 23:00:00 13.2 C 10.97 g/m*3 13.2 C 0 km/h
978 09-10-2013 00:00:00 13.16667 C 10.96 g/m*3 13.17 C 0 km/h
979 09-10-2013 01:00:00 12.8 C 10.73 g/m*3 12.8 C 0 km/h
980 09-10-2013 02:00:00 12.55 C 10.59 g/m*3 12.55 C 0 km/h
981 09-10-2013 03:00:00 12.64167 C 10.65 g/m*3 12.64 C 0 km/h
982 09-10-2013 04:00:00 12.6 C 10.63 g/m*3 12.6 C 0 km/h
983 09-10-2013 05:00:00 12.6 C 10.68 g/m*3 12.6 C 0 km/h
984 09-10-2013 06:00:00 12.63333 C 10.65 g/m*3 12.63 C 1.2 km/h
985 09-10-2013 07:00:00 12.74167 C 10.61 g/m*3 12.74 C 0.53333 km/h
986 09-10-2013 08:00:00 12.79167 C 10.67 g/m*3 12.79 C 0.13333 km/h
987 09-10-2013 09:00:00 13.25 C 10.84 g/m*3 13.25 C 1.2 km/h
988 09-10-2013 10:00:00 14.30833 C 11.11 g/m*3 14.31 C 3.46667 km/h
989 09-10-2013 11:00:00 14.98333 C 11.17 g/m*3 14.98 C 4.53333 km/h
990 09-10-2013 12:00:00 16.2 C 11.45 g/m*3 16.2 C 5.225 km/h
991 09-10-2013 13:00:00 17.575 C 11.52 g/m*3 17.58 C 9.01667 km/h
992 09-10-2013 14:00:00 17.2 C 11.68 g/m*3 17.2 C 6.725 km/h
993 09-10-2013 15:00:00 15.525 C 12.07 g/m*3 15.53 C 0 km/h
994 09-10-2013 16:00:00 15.53333 C 11.57 g/m*3 15.53 C 6.44167 km/h
995 09-10-2013 17:00:00 15.875 C 11.14 g/m*3 15.88 C 11.95833 km/h
996 09-10-2013 18:00:00 14.85 C 11.11 g/m*3 14.85 C 4.7 km/h
997 09-10-2013 19:00:00 14.13333 C 11.22 g/m*3 14.13 C 5.34167 km/h
998 09-10-2013 20:00:00 12.85 C 10.64 g/m*3 12.85 C 2.54167 km/h
999 09-10-2013 21:00:00 12.13333 C 10.32 g/m*3 12.13 C 0 km/h
1000 09-10-2013 22:00:00 11.91667 C 10.27 g/m*3 11.92 C 0.66667 km/h
Sensor: Nr:Datum:Temp:Abs-Feuchte:Windchill:Wind:
Aussen-T/F 1001 09-10-2013 23:00:00 11.94167 C 10.21 g/m*3 11.94 C 2.26667 km/h
1002 10-10-2013 00:00:00 11.95833 C 10.04 g/m*3 11.96 C 2.94167 km/h
1003 10-10-2013 01:00:00 11.60833 C 9.91 g/m*3 11.61 C 0.53333 km/h
1004 10-10-2013 02:00:00 11.61667 C 9.98 g/m*3 11.62 C 3.21667 km/h
1005 10-10-2013 03:00:00 10.91667 C 9.2 g/m*3 9.43 C 11.95 km/h
1006 10-10-2013 04:00:00 9.64167 C 8.46 g/m*3 9.12 C 5.775 km/h
1007 10-10-2013 05:00:00 8.8 C 8.19 g/m*3 8.8 C 4.825 km/h
1008 10-10-2013 06:00:00 8.23333 C 7.88 g/m*3 8.23 C 1.73333 km/h
1009 10-10-2013 07:00:00 7.78333 C 7.84 g/m*3 7.78 C 0 km/h
1010 10-10-2013 08:00:00 7.3 C 7.66 g/m*3 7.3 C 0.26667 km/h
1011 10-10-2013 09:00:00 7.25 C 7.64 g/m*3 7.25 C 0 km/h
1012 10-10-2013 10:00:00 7.06667 C 7.55 g/m*3 7.07 C 0.53333 km/h
1013 10-10-2013 11:00:00 7.95833 C 8.03 g/m*3 7.96 C 1.6 km/h
1014 10-10-2013 12:00:00 8.94167 C 8.04 g/m*3 8.4 C 5.5 km/h
1015 10-10-2013 13:00:00 9.86667 C 8 g/m*3 8.79 C 8.31667 km/h
1016 10-10-2013 14:00:00 9.53333 C 8.04 g/m*3 9.53 C 3.75833 km/h
1017 10-10-2013 15:00:00 9 C 8.28 g/m*3 9 C 1.06667 km/h
1018 10-10-2013 16:00:00 8.2 C 7.85 g/m*3 8.2 C 1.33333 km/h
1019 10-10-2013 17:00:00 8.10833 C 7.88 g/m*3 8.11 C 0.53333 km/h
1020 10-10-2013 18:00:00 7.9 C 7.87 g/m*3 7.9 C 0 km/h
1021 10-10-2013 19:00:00 7.5 C 7.72 g/m*3 7.5 C 0.8 km/h
1022 10-10-2013 20:00:00 6.73333 C 7.37 g/m*3 6.73 C 0 km/h
1023 10-10-2013 21:00:00 6.1 C 7.09 g/m*3 6.1 C 0.66667 km/h
1024 10-10-2013 22:00:00 5.59167 C 6.85 g/m*3 5.59 C 0 km/h
1025 10-10-2013 23:00:00 5.49167 C 6.85 g/m*3 5.49 C 0 km/h
Sensor: Nr:Datum:Temp:Abs-Feuchte:Windchill:Wind:
Aussen-T/F 1026 11-10-2013 00:00:00 5.80833 C 7.02 g/m*3 5.81 C 0.26667 km/h
1027 11-10-2013 01:00:00 6.04167 C 7.13 g/m*3 6.04 C 1.33333 km/h
1028 11-10-2013 02:00:00 6.24167 C 7.23 g/m*3 6.24 C 0 km/h
1029 11-10-2013 03:00:00 6.05 C 7.14 g/m*3 6.05 C 0.13333 km/h
1030 11-10-2013 04:00:00 5.975 C 7.1 g/m*3 5.98 C 1.33333 km/h
1031 11-10-2013 05:00:00 6.175 C 7.2 g/m*3 6.18 C 0 km/h
1032 11-10-2013 06:00:00 6.26667 C 7.24 g/m*3 6.27 C 0 km/h
1033 11-10-2013 07:00:00 6.40833 C 7.31 g/m*3 6.41 C 0 km/h
1034 11-10-2013 08:00:00 6.63333 C 7.41 g/m*3 6.63 C 0 km/h
1035 11-10-2013 09:00:00 6.91667 C 7.55 g/m*3 6.92 C 0 km/h
1036 11-10-2013 10:00:00 7.2 C 7.69 g/m*3 7.2 C 0 km/h
1037 11-10-2013 11:00:00 7.45556 C 7.74 g/m*3 7.46 C 0 km/h
1038 11-10-2013 12:00:00 8.025 C 7.95 g/m*3 8.03 C 0.4 km/h
1039 11-10-2013 13:00:00 8.14167 C 7.97 g/m*3 8.14 C 1.73333 km/h
1040 11-10-2013 14:00:00 8.29167 C 7.99 g/m*3 8.29 C 0.13333 km/h
1041 11-10-2013 15:00:00 8.14167 C 7.91 g/m*3 8.14 C 0 km/h
1042 11-10-2013 16:00:00 7.925 C 7.89 g/m*3 7.93 C 0 km/h
1043 11-10-2013 17:00:00 7.74167 C 7.83 g/m*3 7.74 C 0 km/h
1044 11-10-2013 18:00:00 7.63333 C 7.83 g/m*3 7.63 C 0 km/h
1045 11-10-2013 19:00:00 6.89167 C 7.44 g/m*3 6.89 C 0 km/h
1046 11-10-2013 20:00:00 6.55833 C 7.3 g/m*3 6.56 C 0 km/h
1047 11-10-2013 21:00:00 6.59167 C 7.36 g/m*3 6.59 C 0 km/h
1048 11-10-2013 22:00:00 6.1 C 7.1 g/m*3 6.1 C 0 km/h
1049 11-10-2013 23:00:00 5.525 C 6.82 g/m*3 5.53 C 0 km/h
1050 12-10-2013 00:00:00 4.80833 C 6.54 g/m*3 4.81 C 0 km/h
Sensor: Nr:Datum:Temp:Abs-Feuchte:Windchill:Wind:
Aussen-T/F 1051 12-10-2013 01:00:00 4.475 C 6.41 g/m*3 4.47 C 0 km/h
1052 12-10-2013 02:00:00 4.25 C 6.34 g/m*3 4.25 C 0 km/h
1053 12-10-2013 03:00:00 4.775 C 6.56 g/m*3 4.78 C 0 km/h
1054 12-10-2013 04:00:00 5.16667 C 6.73 g/m*3 5.17 C 0 km/h
1055 12-10-2013 05:00:00 5.58333 C 6.92 g/m*3 5.58 C 1.33333 km/h
1056 12-10-2013 06:00:00 5.34167 C 6.81 g/m*3 5.34 C 1.475 km/h
1057 12-10-2013 07:00:00 5.375 C 6.83 g/m*3 5.38 C 1.06667 km/h
1058 12-10-2013 08:00:00 5.41667 C 6.85 g/m*3 5.42 C 0.8 km/h
1059 12-10-2013 09:00:00 5.56667 C 6.85 g/m*3 5.57 C 2.8 km/h
1060 12-10-2013 10:00:00 5.96667 C 6.93 g/m*3 5.97 C 2.94167 km/h
1061 12-10-2013 11:00:00 6.61667 C 6.97 g/m*3 6.62 C 3.34167 km/h
1062 12-10-2013 12:00:00 7.26667 C 7.09 g/m*3 7.27 C 2.93333 km/h
1063 12-10-2013 13:00:00 7.69167 C 7.29 g/m*3 7.69 C 0.53333 km/h
1064 12-10-2013 14:00:00 7.99167 C 7.33 g/m*3 7.99 C 2.66667 km/h
1065 12-10-2013 15:00:00 8.31667 C 7.54 g/m*3 8.32 C 0.8 km/h
1066 12-10-2013 16:00:00 8.25 C 7.78 g/m*3 8.25 C 0 km/h
1067 12-10-2013 17:00:00 8.23333 C 7.76 g/m*3 8.23 C 0.13333 km/h
1068 12-10-2013 18:00:00 8.00833 C 7.84 g/m*3 8.01 C 0 km/h
1069 12-10-2013 19:00:00 7.45 C 7.65 g/m*3 7.45 C 0 km/h
1070 12-10-2013 20:00:00 6.85 C 7.37 g/m*3 6.85 C 0 km/h
1071 12-10-2013 21:00:00 6.44167 C 7.17 g/m*3 6.44 C 0.26667 km/h
1072 12-10-2013 22:00:00 6.18333 C 7.05 g/m*3 6.18 C 0 km/h
1073 12-10-2013 23:00:00 5.46667 C 6.77 g/m*3 5.47 C 0 km/h
1074 13-10-2013 00:00:00 5.125 C 6.65 g/m*3 5.13 C 0 km/h
1075 13-10-2013 01:00:00 4.58333 C 6.41 g/m*3 4.58 C 0 km/h
Sensor: Nr:Datum:Temp:Abs-Feuchte:Windchill:Wind:
Aussen-T/F 1076 13-10-2013 02:00:00 4.99167 C 6.64 g/m*3 4.99 C 0.26667 km/h
1077 13-10-2013 03:00:00 6.01667 C 7.11 g/m*3 6.02 C 1.73333 km/h
1078 13-10-2013 04:00:00 6.3 C 7.16 g/m*3 6.3 C 0.53333 km/h
1079 13-10-2013 05:00:00 6.33333 C 7.08 g/m*3 6.33 C 0.26667 km/h
1080 13-10-2013 06:00:00 6.11667 C 6.95 g/m*3 6.12 C 0.4 km/h
1081 13-10-2013 07:00:00 6.21667 C 6.85 g/m*3 6.22 C 1.33333 km/h
1082 13-10-2013 08:00:00 6.70833 C 6.9 g/m*3 6.71 C 2.4 km/h
1083 13-10-2013 09:00:00 7.40833 C 7.25 g/m*3 7.41 C 1.6 km/h
1084 13-10-2013 10:00:00 8.3 C 7.51 g/m*3 8.3 C 0.66667 km/h
1085 13-10-2013 11:00:00 9.225 C 7.65 g/m*3 9.23 C 3.20833 km/h
1086 13-10-2013 12:00:00 9.775 C 7.6 g/m*3 9.78 C 4.675 km/h
1087 13-10-2013 13:00:00 10.725 C 7.49 g/m*3 9.85 C 8.05833 km/h
1088 13-10-2013 14:00:00 11.11667 C 7.51 g/m*3 11.12 C 8.6 km/h
1089 13-10-2013 15:00:00 10.75 C 7.33 g/m*3 10.26 C 6.30833 km/h
1090 13-10-2013 16:00:00 10.48333 C 7.58 g/m*3 10.48 C 3.06667 km/h
1091 13-10-2013 17:00:00 10.03333 C 8.01 g/m*3 10.03 C 1.33333 km/h
1092 13-10-2013 18:00:00 8.58333 C 7.9 g/m*3 8.58 C 0 km/h
1093 13-10-2013 19:00:00 7.8 C 7.62 g/m*3 7.8 C 0 km/h
1094 13-10-2013 20:00:00 7.41667 C 7.5 g/m*3 7.42 C 0.4 km/h
1095 13-10-2013 21:00:00 7.43333 C 7.5 g/m*3 7.43 C 0.4 km/h
1096 13-10-2013 22:00:00 6.88333 C 7.27 g/m*3 6.88 C 0.53333 km/h
1097 13-10-2013 23:00:00 6.275 C 7.05 g/m*3 6.28 C 0.4 km/h
1098 14-10-2013 00:00:00 6.43333 C 7.17 g/m*3 6.43 C 2.8 km/h
1099 14-10-2013 01:00:00 7.24167 C 7.56 g/m*3 7.24 C 0.93333 km/h
1100 14-10-2013 02:00:00 8.03333 C 7.68 g/m*3 8.03 C 2.4 km/h
Sensor: Nr:Datum:Temp:Abs-Feuchte:Windchill:Wind:
Aussen-T/F 1101 14-10-2013 03:00:00 8.49167 C 7.64 g/m*3 8.49 C 2 km/h
1102 14-10-2013 04:00:00 8.03333 C 7.53 g/m*3 8.03 C 1.06667 km/h
1103 14-10-2013 05:00:00 7.1 C 7.34 g/m*3 7.1 C 0.8 km/h
1104 14-10-2013 06:00:00 6.70833 C 7.3 g/m*3 6.71 C 0 km/h
1105 14-10-2013 07:00:00 6.7 C 7.37 g/m*3 6.7 C 0 km/h
1106 14-10-2013 08:00:00 6.6 C 7.31 g/m*3 6.6 C 0 km/h
1107 14-10-2013 09:00:00 6.79167 C 7.41 g/m*3 6.79 C 0.13333 km/h
1108 14-10-2013 10:00:00 7.7 C 7.87 g/m*3 7.7 C 0.4 km/h
1109 14-10-2013 11:00:00 9.10833 C 8.57 g/m*3 9.11 C 0.4 km/h
1110 14-10-2013 12:00:00 11.15 C 9.2 g/m*3 11.15 C 1.875 km/h
1111 14-10-2013 13:00:00 13.31667 C 9.24 g/m*3 13.32 C 3.875 km/h
1112 14-10-2013 14:00:00 13.75833 C 9.6 g/m*3 13.76 C 2.8 km/h
1113 14-10-2013 15:00:00 14.32727 C 9.83 g/m*3 14.33 C 3.78182 km/h
1114 14-10-2013 16:00:00 13.65 C 9.95 g/m*3 13.65 C 1.28 km/h
1115 14-10-2013 17:00:00 12.80833 C 10.1 g/m*3 12.81 C 2.26667 km/h
1116 14-10-2013 18:00:00 12.475 C 10.01 g/m*3 12.48 C 1.6 km/h
1117 14-10-2013 19:00:00 12.15 C 9.98 g/m*3 12.15 C 1.73333 km/h
1118 14-10-2013 20:00:00 11.98333 C 10.03 g/m*3 11.98 C 1.06667 km/h
1119 14-10-2013 21:00:00 11.775 C 10.13 g/m*3 11.78 C 0.8 km/h
1120 14-10-2013 22:00:00 11.82857 C 10.23 g/m*3 11.83 C 0.68571 km/h
1121 14-10-2013 23:00:00 11.82857 C 10.3 g/m*3 11.83 C 0.68571 km/h
1122 15-10-2013 00:00:00 11.425 C 10.01 g/m*3 11.43 C 0.53333 km/h
1123 15-10-2013 01:00:00 11.30833 C 10 g/m*3 11.31 C 0.66667 km/h
1124 15-10-2013 02:00:00 11.31667 C 9.95 g/m*3 11.32 C 1.06667 km/h
1125 15-10-2013 03:00:00 10.19167 C 9.23 g/m*3 10.19 C 0.26667 km/h
Sensor: Nr:Datum:Temp:Abs-Feuchte:Windchill:Wind:
Aussen-T/F 1126 15-10-2013 04:00:00 10.175 C 9.28 g/m*3 10.18 C 0.26667 km/h
1127 15-10-2013 05:00:00 10.08333 C 9.26 g/m*3 10.08 C 0 km/h
1128 15-10-2013 06:00:00 10.00833 C 9.21 g/m*3 10.01 C 1.33333 km/h
1129 15-10-2013 07:00:00 9.83333 C 9.09 g/m*3 9.83 C 0.94167 km/h
1130 15-10-2013 08:00:00 9.60833 C 8.85 g/m*3 9.28 C 5.1 km/h
1131 15-10-2013 09:00:00 9.875 C 8.63 g/m*3 9.21 C 6.45 km/h
1132 15-10-2013 10:00:00 10.31667 C 8.78 g/m*3 9.69 C 6.58333 km/h
1133 15-10-2013 11:00:00 11.23333 C 9.2 g/m*3 11.23 C 2.675 km/h
1134 15-10-2013 12:00:00 11.525 C 9.04 g/m*3 11.53 C 7.8375 km/h
1135 15-10-2013 13:00:00 11.675 C 9.11 g/m*3 11.68 C 7.24167 km/h
1136 15-10-2013 14:00:00 12.025 C 9.08 g/m*3 12.03 C 11.125 km/h
1137 15-10-2013 15:00:00 10.175 C 8.8 g/m*3 10.18 C 3.34167 km/h
1138 15-10-2013 16:00:00 11.06667 C 9.23 g/m*3 11.07 C 5.64167 km/h
1139 15-10-2013 17:00:00 11.5 C 9.07 g/m*3 11.5 C 5.35833 km/h
1140 15-10-2013 18:00:00 9.99167 C 8.84 g/m*3 9.99 C 1.06667 km/h
1141 15-10-2013 19:00:00 9.575 C 8.77 g/m*3 9.57 C 1.06667 km/h
1142 15-10-2013 20:00:00 9.375 C 8.68 g/m*3 9.38 C 0.4 km/h
1143 15-10-2013 21:00:00 9.45 C 8.73 g/m*3 9.45 C 0.53333 km/h
1144 15-10-2013 22:00:00 9.5 C 8.74 g/m*3 9.5 C 1.2 km/h
1145 15-10-2013 23:00:00 9.51667 C 8.74 g/m*3 9.52 C 1.46667 km/h
1146 16-10-2013 00:00:00 9.25833 C 8.69 g/m*3 9.26 C 0.26667 km/h
1147 16-10-2013 01:00:00 9.2 C 8.66 g/m*3 9.2 C 0 km/h
1148 16-10-2013 02:00:00 9.3 C 8.83 g/m*3 9.3 C 0 km/h
1149 16-10-2013 03:00:00 9.3 C 8.81 g/m*3 9.3 C 1.06667 km/h
1150 16-10-2013 04:00:00 9.20833 C 8.67 g/m*3 9.21 C 1.2 km/h
Sensor: Nr:Datum:Temp:Abs-Feuchte:Windchill:Wind:
Aussen-T/F 1151 16-10-2013 05:00:00 9.10833 C 8.61 g/m*3 9.11 C 0.26667 km/h
1152 16-10-2013 06:00:00 9.04167 C 8.57 g/m*3 9.04 C 0.53333 km/h
1153 16-10-2013 07:00:00 8.4 C 8.24 g/m*3 8.4 C 0 km/h
1154 16-10-2013 08:00:00 8.39167 C 8.3 g/m*3 8.39 C 1.06667 km/h
1155 16-10-2013 09:00:00 8.63333 C 8.44 g/m*3 8.63 C 1.6 km/h
1156 16-10-2013 10:00:00 8.58333 C 8.41 g/m*3 8.58 C 0.4 km/h
1157 16-10-2013 11:00:00 8.89167 C 8.58 g/m*3 8.89 C 0.8 km/h
1158 16-10-2013 12:00:00 10.74167 C 9.31 g/m*3 10.74 C 4.14167 km/h
1159 16-10-2013 13:00:00 12.5 C 9.62 g/m*3 12.5 C 2.66667 km/h
1160 16-10-2013 14:00:00 12.79167 C 9.92 g/m*3 12.79 C 2 km/h
1161 16-10-2013 15:00:00 12.71667 C 10.2 g/m*3 12.72 C 0.4 km/h
1162 16-10-2013 16:00:00 11.90833 C 10.01 g/m*3 11.91 C 0.13333 km/h
1163 16-10-2013 17:00:00 11.41667 C 9.8 g/m*3 11.42 C 0 km/h
1164 16-10-2013 18:00:00 10.85 C 9.52 g/m*3 10.85 C 0 km/h
1165 16-10-2013 19:00:00 10.175 C 9.13 g/m*3 10.18 C 0.13333 km/h
1166 16-10-2013 20:00:00 10.04167 C 9.1 g/m*3 10.04 C 0 km/h
1167 16-10-2013 21:00:00 10.1 C 9.17 g/m*3 10.1 C 0.4 km/h
1168 16-10-2013 22:00:00 10.1 C 9.16 g/m*3 10.1 C 0 km/h
1169 16-10-2013 23:00:00 10.1 C 9.17 g/m*3 10.1 C 0 km/h
1170 17-10-2013 00:00:00 10.125 C 9.19 g/m*3 10.13 C 0 km/h
1171 17-10-2013 01:00:00 10.48333 C 9.16 g/m*3 10.24 C 5.225 km/h
1172 17-10-2013 02:00:00 11.46667 C 9.24 g/m*3 11.47 C 8.44167 km/h
1173 17-10-2013 03:00:00 11.14167 C 9.19 g/m*3 11.14 C 4.275 km/h
1174 17-10-2013 04:00:00 10.19167 C 8.89 g/m*3 10.19 C 2.80833 km/h
1175 17-10-2013 05:00:00 10.6 C 9.14 g/m*3 9.84 C 7.39167 km/h
Sensor: Nr:Datum:Temp:Abs-Feuchte:Windchill:Wind:
Aussen-T/F 1176 17-10-2013 06:00:00 11.30833 C 9.29 g/m*3 11.31 C 8.725 km/h
1177 17-10-2013 07:00:00 11.8 C 9.4 g/m*3 11.8 C 8.73333 km/h
1178 17-10-2013 08:00:00 11.98333 C 9.56 g/m*3 11.98 C 10.20833 km/h
1179 17-10-2013 09:00:00 12.025 C 9.58 g/m*3 12.03 C 8.98333 km/h
1180 17-10-2013 10:00:00 13.33333 C 9.83 g/m*3 13.33 C 15.43333 km/h
1181 17-10-2013 11:00:00 13.94167 C 10.02 g/m*3 13.94 C 15.03333 km/h
1182 17-10-2013 12:00:00 14.96667 C 10.27 g/m*3 14.97 C 17.7 km/h
1183 17-10-2013 13:00:00 15.71667 C 10.48 g/m*3 15.72 C 15.96667 km/h
1184 17-10-2013 14:00:00 15.91667 C 10.46 g/m*3 15.92 C 18.1 km/h
1185 17-10-2013 15:00:00 15.39167 C 10.43 g/m*3 15.39 C 17.03333 km/h
1186 17-10-2013 16:00:00 14.48333 C 10.28 g/m*3 14.48 C 15.975 km/h
1187 17-10-2013 17:00:00 13.71667 C 10.21 g/m*3 13.72 C 14.9 km/h
1188 17-10-2013 18:00:00 13.03333 C 10.26 g/m*3 13.03 C 9.275 km/h
1189 17-10-2013 19:00:00 12.93333 C 10.38 g/m*3 12.93 C 9 km/h
1190 17-10-2013 20:00:00 12.98333 C 10.46 g/m*3 12.98 C 5.5 km/h
1191 17-10-2013 21:00:00 12.80833 C 10.42 g/m*3 12.81 C 1.46667 km/h
1192 17-10-2013 22:00:00 12.5 C 10.35 g/m*3 12.5 C 0.53333 km/h
1193 17-10-2013 23:00:00 12.18333 C 10.25 g/m*3 12.18 C 1.33333 km/h
1194 18-10-2013 00:00:00 11.95 C 10.11 g/m*3 11.95 C 0.26667 km/h
1195 18-10-2013 01:00:00 11.65833 C 10.01 g/m*3 11.66 C 0.13333 km/h
1196 18-10-2013 02:00:00 11.18333 C 9.67 g/m*3 11.18 C 0.53333 km/h
1197 18-10-2013 03:00:00 10.74167 C 9.54 g/m*3 10.74 C 0.4 km/h
1198 18-10-2013 04:00:00 10.89167 C 9.64 g/m*3 10.89 C 1.33333 km/h
1199 18-10-2013 05:00:00 10.925 C 9.69 g/m*3 10.93 C 0.93333 km/h
1200 18-10-2013 06:00:00 10.64167 C 9.53 g/m*3 10.64 C 0.26667 km/h
Sensor: Nr:Datum:Temp:Abs-Feuchte:Windchill:Wind:
Aussen-T/F 1201 18-10-2013 07:00:00 10.825 C 9.7 g/m*3 10.83 C 0 km/h
1202 18-10-2013 08:00:00 10.9 C 9.75 g/m*3 10.9 C 0 km/h
1203 18-10-2013 09:00:00 11.24167 C 9.96 g/m*3 11.24 C 0 km/h
1204 18-10-2013 10:00:00 12.225 C 10.55 g/m*3 12.23 C 3.6 km/h
1205 18-10-2013 11:00:00 13.08333 C 10.59 g/m*3 13.08 C 4.825 km/h
1206 18-10-2013 12:00:00 12.80833 C 10.54 g/m*3 12.81 C 0 km/h
1207 18-10-2013 13:00:00 12.83333 C 10.74 g/m*3 12.83 C 0 km/h
1208 18-10-2013 14:00:00 13.8 C 11.12 g/m*3 13.8 C 0 km/h
1209 18-10-2013 15:00:00 13.875 C 11.18 g/m*3 13.88 C 0 km/h
1210 18-10-2013 16:00:00 14.5 C 11.53 g/m*3 14.5 C 0 km/h
1211 18-10-2013 17:00:00 13.85833 C 11.16 g/m*3 13.86 C 0 km/h
1212 18-10-2013 18:00:00 12.64167 C 10.44 g/m*3 12.64 C 0 km/h
1213 18-10-2013 19:00:00 11.66667 C 9.96 g/m*3 11.67 C 0 km/h
1214 18-10-2013 20:00:00 11.225 C 9.75 g/m*3 11.23 C 0 km/h
1215 18-10-2013 21:00:00 10.54167 C 9.34 g/m*3 10.54 C 0 km/h
1216 18-10-2013 22:00:00 9.99167 C 9.05 g/m*3 9.99 C 0 km/h
1217 18-10-2013 23:00:00 9.4 C 8.77 g/m*3 9.4 C 0 km/h
1218 19-10-2013 00:00:00 9.20833 C 8.67 g/m*3 9.21 C 0 km/h
1219 19-10-2013 01:00:00 8.99167 C 8.55 g/m*3 8.99 C 0 km/h
1220 19-10-2013 02:00:00 8.38333 C 8.21 g/m*3 8.38 C 0 km/h
1221 19-10-2013 03:00:00 8.025 C 8.03 g/m*3 8.03 C 0 km/h
1222 19-10-2013 04:00:00 7.80833 C 7.92 g/m*3 7.81 C 0 km/h
1223 19-10-2013 05:00:00 7.44167 C 7.73 g/m*3 7.44 C 0 km/h
1224 19-10-2013 06:00:00 7.39167 C 7.73 g/m*3 7.39 C 0.8 km/h
1225 19-10-2013 07:00:00 8.53333 C 8.29 g/m*3 8.53 C 4.80833 km/h
Sensor: Nr:Datum:Temp:Abs-Feuchte:Windchill:Wind:
Aussen-T/F 1226 19-10-2013 08:00:00 9.575 C 8.38 g/m*3 9.57 C 4.68333 km/h
1227 19-10-2013 09:00:00 8.86667 C 8.28 g/m*3 8.87 C 0.66667 km/h
1228 19-10-2013 10:00:00 9.10833 C 8.54 g/m*3 9.11 C 0 km/h
1229 19-10-2013 11:00:00 10.15 C 9.2 g/m*3 10.15 C 0 km/h
1230 19-10-2013 12:00:00 11.43333 C 9.98 g/m*3 11.43 C 0.26667 km/h
1231 19-10-2013 13:00:00 13.90833 C 11.32 g/m*3 13.91 C 1.33333 km/h
1232 19-10-2013 14:00:00 15.39167 C 12.09 g/m*3 15.39 C 1.6 km/h
1233 19-10-2013 15:00:00 16.2 C 12.46 g/m*3 16.2 C 1.33333 km/h
1234 19-10-2013 16:00:00 15.675 C 12.47 g/m*3 15.68 C 0 km/h
1235 19-10-2013 17:00:00 15.54545 C 12.45 g/m*3 15.55 C 0.14545 km/h
1236 19-10-2013 18:00:00 14.8 C 12.1 g/m*3 14.8 C 0.32 km/h
1237 19-10-2013 19:00:00 15.01667 C 12.32 g/m*3 15.02 C 0.13333 km/h
1238 19-10-2013 20:00:00 15.175 C 12.44 g/m*3 15.18 C 0.26667 km/h
1239 19-10-2013 21:00:00 15.275 C 12.44 g/m*3 15.28 C 1.06667 km/h
1240 19-10-2013 22:00:00 15.225 C 12.44 g/m*3 15.23 C 0.13333 km/h
1241 19-10-2013 23:00:00 15.15 C 12.47 g/m*3 15.15 C 0 km/h
1242 20-10-2013 00:00:00 14.93333 C 12.38 g/m*3 14.93 C 0.13333 km/h
1243 20-10-2013 01:00:00 15.28333 C 12.6 g/m*3 15.28 C 0.66667 km/h
1244 20-10-2013 02:00:00 15.74167 C 12.88 g/m*3 15.74 C 1.86667 km/h
1245 20-10-2013 03:00:00 15.13333 C 12.44 g/m*3 15.13 C 1.46667 km/h
1246 20-10-2013 04:00:00 15.06667 C 12.37 g/m*3 15.07 C 0.53333 km/h
1247 20-10-2013 05:00:00 14.53333 C 12.04 g/m*3 14.53 C 0.8 km/h
1248 20-10-2013 06:00:00 14.15 C 11.81 g/m*3 14.15 C 0.66667 km/h
1249 20-10-2013 07:00:00 13.36667 C 11.25 g/m*3 13.37 C 0 km/h
1250 20-10-2013 08:00:00 13.1 C 11.16 g/m*3 13.1 C 0.66667 km/h
Sensor: Nr:Datum:Temp:Abs-Feuchte:Windchill:Wind:
Aussen-T/F 1251 20-10-2013 09:00:00 13.31667 C 11.33 g/m*3 13.32 C 0 km/h
1252 20-10-2013 10:00:00 14.19167 C 12 g/m*3 14.19 C 1.86667 km/h
1253 20-10-2013 11:00:00 15.59167 C 13.08 g/m*3 15.59 C 0.53333 km/h
1254 20-10-2013 12:00:00 16.41667 C 13.44 g/m*3 16.42 C 3.46667 km/h
1255 20-10-2013 13:00:00 17.08333 C 13.31 g/m*3 17.08 C 2.68333 km/h
1256 20-10-2013 14:00:00 17.51667 C 13.21 g/m*3 17.52 C 3.075 km/h
1257 20-10-2013 15:00:00 18.33333 C 12.9 g/m*3 18.33 C 6.175 km/h
1258 20-10-2013 16:00:00 18.1 C 12.3 g/m*3 18.1 C 5.10833 km/h
1259 20-10-2013 17:00:00 16.96667 C 12.43 g/m*3 16.97 C 0.93333 km/h
1260 20-10-2013 18:00:00 15.5 C 11.83 g/m*3 15.5 C 0.26667 km/h
1261 20-10-2013 19:00:00 14.71667 C 11.64 g/m*3 14.72 C 0.8 km/h
1262 20-10-2013 20:00:00 14.36667 C 11.49 g/m*3 14.37 C 0.13333 km/h
1263 20-10-2013 21:00:00 14.10833 C 11.48 g/m*3 14.11 C 0.26667 km/h
1264 20-10-2013 22:00:00 14.525 C 11.99 g/m*3 14.53 C 3.075 km/h
1265 20-10-2013 23:00:00 14.8 C 12.19 g/m*3 14.8 C 2.14167 km/h
1266 21-10-2013 00:00:00 15.3 C 11.71 g/m*3 15.3 C 8.05833 km/h
1267 21-10-2013 01:00:00 14.79167 C 11.23 g/m*3 14.79 C 5.23333 km/h
1268 21-10-2013 02:00:00 14.575 C 11.35 g/m*3 14.58 C 3.075 km/h
1269 21-10-2013 03:00:00 14.66667 C 11.43 g/m*3 14.67 C 3.21667 km/h
1270 21-10-2013 04:00:00 14.4 C 11.54 g/m*3 14.4 C 0.94167 km/h
1271 21-10-2013 05:00:00 14.05833 C 11.44 g/m*3 14.06 C 0 km/h
1272 21-10-2013 06:00:00 13.775 C 11.22 g/m*3 13.78 C 1.33333 km/h
1273 21-10-2013 07:00:00 13.64167 C 11.14 g/m*3 13.64 C 0.93333 km/h
1274 21-10-2013 08:00:00 13.66667 C 11.08 g/m*3 13.67 C 1.46667 km/h
1275 21-10-2013 09:00:00 14.775 C 11.24 g/m*3 14.78 C 4.275 km/h
Sensor: Nr:Datum:Temp:Abs-Feuchte:Windchill:Wind:
Aussen-T/F 1276 21-10-2013 10:00:00 15.625 C 11.62 g/m*3 15.63 C 3.06667 km/h
1277 21-10-2013 11:00:00 16.19167 C 12.05 g/m*3 16.19 C 3.34167 km/h
1278 21-10-2013 12:00:00 17 C 12.13 g/m*3 17 C 6.70833 km/h
1279 21-10-2013 13:00:00 17.48333 C 12.24 g/m*3 17.48 C 9.68333 km/h
1280 21-10-2013 14:00:00 17.94167 C 12.3 g/m*3 17.94 C 9.425 km/h
1281 21-10-2013 15:00:00 18.66667 C 12.26 g/m*3 18.67 C 6.31667 km/h
1282 21-10-2013 16:00:00 17.41667 C 12.89 g/m*3 17.42 C 0.13333 km/h
1283 21-10-2013 17:00:00 16.59167 C 12.4 g/m*3 16.59 C 1.33333 km/h
1284 21-10-2013 18:00:00 14.90833 C 11.76 g/m*3 14.91 C 0.26667 km/h
1285 21-10-2013 19:00:00 14.08333 C 11.33 g/m*3 14.08 C 0.26667 km/h
1286 21-10-2013 20:00:00 13.45833 C 11.08 g/m*3 13.46 C 0.26667 km/h
1287 21-10-2013 21:00:00 13.25 C 10.96 g/m*3 13.25 C 0.53333 km/h
1288 21-10-2013 22:00:00 12.98333 C 10.85 g/m*3 12.98 C 0 km/h
1289 21-10-2013 23:00:00 12.55 C 10.62 g/m*3 12.55 C 0 km/h
1290 22-10-2013 00:00:00 12.35833 C 10.56 g/m*3 12.36 C 0 km/h
1291 22-10-2013 01:00:00 12.275 C 10.52 g/m*3 12.28 C 0 km/h
1292 22-10-2013 02:00:00 12.18333 C 10.46 g/m*3 12.18 C 0.53333 km/h
1293 22-10-2013 03:00:00 12.45 C 10.69 g/m*3 12.45 C 0.66667 km/h
1294 22-10-2013 04:00:00 12.675 C 10.82 g/m*3 12.68 C 0 km/h
1295 22-10-2013 05:00:00 12.41667 C 10.65 g/m*3 12.42 C 0.53333 km/h
1296 22-10-2013 06:00:00 13.50833 C 11.47 g/m*3 13.51 C 0.26667 km/h
1297 22-10-2013 07:00:00 13.84167 C 11.71 g/m*3 13.84 C 0 km/h
1298 22-10-2013 08:00:00 14.025 C 11.84 g/m*3 14.03 C 0 km/h
1299 22-10-2013 09:00:00 14.56667 C 12.24 g/m*3 14.57 C 0 km/h
1300 22-10-2013 10:00:00 15.16667 C 12.59 g/m*3 15.17 C 0 km/h
Sensor: Nr:Datum:Temp:Abs-Feuchte:Windchill:Wind:
Aussen-T/F 1301 22-10-2013 11:00:00 15.60833 C 12.84 g/m*3 15.61 C 1.6 km/h
1302 22-10-2013 12:00:00 17.93333 C 13.46 g/m*3 17.93 C 5.5 km/h
1303 22-10-2013 13:00:00 19.925 C 13.84 g/m*3 19.93 C 5.48333 km/h
1304 22-10-2013 14:00:00 21.2 C 13.91 g/m*3 21.2 C 5.625 km/h
1305 22-10-2013 15:00:00 20.15833 C 14.16 g/m*3 20.16 C 3.48333 km/h
1306 22-10-2013 16:00:00 19.2 C 14.04 g/m*3 19.2 C 1.20833 km/h
1307 22-10-2013 17:00:00 18.45833 C 13.9 g/m*3 18.46 C 0.13333 km/h
1308 22-10-2013 18:00:00 17.29167 C 13.15 g/m*3 17.29 C 0 km/h
1309 22-10-2013 19:00:00 16.50833 C 12.75 g/m*3 16.51 C 0 km/h
1310 22-10-2013 20:00:00 16.3 C 12.64 g/m*3 16.3 C 0 km/h
1311 22-10-2013 21:00:00 16.4 C 12.54 g/m*3 16.4 C 0.8 km/h
1312 22-10-2013 22:00:00 16.66667 C 12.47 g/m*3 16.67 C 1.46667 km/h
1313 22-10-2013 23:00:00 16.85833 C 12.59 g/m*3 16.86 C 2.275 km/h
1314 23-10-2013 00:00:00 16.725 C 13.33 g/m*3 16.73 C 3.88333 km/h
1315 23-10-2013 01:00:00 15.975 C 13.05 g/m*3 15.98 C 1.2 km/h
1316 23-10-2013 02:00:00 15.425 C 12.76 g/m*3 15.43 C 0.8 km/h
1317 23-10-2013 03:00:00 15.15833 C 12.56 g/m*3 15.16 C 0.13333 km/h
1318 23-10-2013 04:00:00 14.975 C 12.53 g/m*3 14.98 C 0.13333 km/h
1319 23-10-2013 05:00:00 14.94167 C 12.52 g/m*3 14.94 C 1.86667 km/h
1320 23-10-2013 06:00:00 14.89167 C 12.47 g/m*3 14.89 C 0.53333 km/h
1321 23-10-2013 07:00:00 14.8 C 12.41 g/m*3 14.8 C 0.26667 km/h
1322 23-10-2013 08:00:00 14.8 C 12.41 g/m*3 14.8 C 0 km/h
1323 23-10-2013 09:00:00 14.7875 C 12.4 g/m*3 14.79 C 1.6 km/h
1324 23-10-2013 10:00:00 14.96667 C 12.54 g/m*3 14.97 C 0.88889 km/h
1325 23-10-2013 11:00:00 15.61667 C 13.05 g/m*3 15.62 C 2.14167 km/h
Sensor: Nr:Datum:Temp:Abs-Feuchte:Windchill:Wind:
Aussen-T/F 1326 23-10-2013 12:00:00 16.53333 C 13.44 g/m*3 16.53 C 3.46667 km/h
1327 23-10-2013 13:00:00 17.975 C 13.34 g/m*3 17.98 C 6.30833 km/h
1328 23-10-2013 14:00:00 18.48333 C 12.76 g/m*3 18.48 C 10.20833 km/h
1329 23-10-2013 15:00:00 19.01667 C 12.47 g/m*3 19.02 C 11.275 km/h
1330 23-10-2013 16:00:00 18.4 C 12.7 g/m*3 18.4 C 5.35 km/h
1331 23-10-2013 17:00:00 17.3 C 12.4 g/m*3 17.3 C 2.4 km/h
1332 23-10-2013 18:00:00 15.375 C 12.01 g/m*3 15.38 C 0.53333 km/h
1333 23-10-2013 19:00:00 14.99167 C 11.88 g/m*3 14.99 C 1.33333 km/h
1334 23-10-2013 20:00:00 14.33333 C 11.58 g/m*3 14.33 C 0.8 km/h
1335 23-10-2013 21:00:00 14.11667 C 11.39 g/m*3 14.12 C 1.2 km/h
1336 23-10-2013 22:00:00 14.10833 C 11.43 g/m*3 14.11 C 1.46667 km/h
1337 23-10-2013 23:00:00 14.45833 C 11.62 g/m*3 14.46 C 2.825 km/h
1338 24-10-2013 00:00:00 14.35 C 11.59 g/m*3 14.35 C 0.93333 km/h
1339 24-10-2013 01:00:00 14.74167 C 11.7 g/m*3 14.74 C 3.74167 km/h
1340 24-10-2013 02:00:00 14.8 C 11.57 g/m*3 14.8 C 3.75 km/h
1341 24-10-2013 03:00:00 14.71667 C 11.44 g/m*3 14.72 C 5.075 km/h
1342 24-10-2013 04:00:00 14.2 C 11.18 g/m*3 14.2 C 2.40833 km/h
1343 24-10-2013 05:00:00 13.68333 C 11.2 g/m*3 13.68 C 0.26667 km/h
1344 24-10-2013 06:00:00 13.89167 C 11.3 g/m*3 13.89 C 0.13333 km/h
1345 24-10-2013 07:00:00 13.20833 C 10.94 g/m*3 13.21 C 0.26667 km/h
1346 24-10-2013 08:00:00 13.25 C 11.12 g/m*3 13.25 C 0.66667 km/h
1347 24-10-2013 09:00:00 13.29167 C 11.2 g/m*3 13.29 C 0 km/h
1348 24-10-2013 10:00:00 13.375 C 11.26 g/m*3 13.38 C 0.4 km/h
1349 24-10-2013 11:00:00 13.48333 C 11.35 g/m*3 13.48 C 0.4 km/h
1350 24-10-2013 12:00:00 13.98333 C 11.69 g/m*3 13.98 C 2 km/h
Sensor: Nr:Datum:Temp:Abs-Feuchte:Windchill:Wind:
Aussen-T/F 1351 24-10-2013 13:00:00 14.76667 C 12.03 g/m*3 14.77 C 2.26667 km/h
1352 24-10-2013 14:00:00 15.30833 C 12.28 g/m*3 15.31 C 1.33333 km/h
1353 24-10-2013 15:00:00 15.13333 C 12.36 g/m*3 15.13 C 0 km/h
1354 24-10-2013 16:00:00 14.78333 C 12.24 g/m*3 14.78 C 0 km/h
1355 24-10-2013 17:00:00 14.75833 C 12.26 g/m*3 14.76 C 0 km/h
1356 24-10-2013 18:00:00 14 C 11.7 g/m*3 14 C 0 km/h
1357 24-10-2013 19:00:00 13.2 C 11.14 g/m*3 13.2 C 0 km/h
1358 24-10-2013 20:00:00 12.45 C 10.63 g/m*3 12.45 C 0 km/h
1359 24-10-2013 21:00:00 11.64167 C 10.17 g/m*3 11.64 C 0 km/h
1360 24-10-2013 22:00:00 10.925 C 9.74 g/m*3 10.93 C 0.26667 km/h
1361 24-10-2013 23:00:00 10.24167 C 9.34 g/m*3 10.24 C 0 km/h
1362 25-10-2013 00:00:00 10.03333 C 9.23 g/m*3 10.03 C 0 km/h
1363 25-10-2013 01:00:00 9.68333 C 9.02 g/m*3 9.68 C 0 km/h
1364 25-10-2013 02:00:00 9.51667 C 8.93 g/m*3 9.52 C 0 km/h
1365 25-10-2013 03:00:00 9.55 C 8.95 g/m*3 9.55 C 0 km/h
1366 25-10-2013 04:00:00 9.55 C 8.95 g/m*3 9.55 C 0 km/h
1367 25-10-2013 05:00:00 9.6 C 8.98 g/m*3 9.6 C 0 km/h
1368 25-10-2013 06:00:00 10.08333 C 9.32 g/m*3 10.08 C 0.26667 km/h
1369 25-10-2013 07:00:00 10.76667 C 9.76 g/m*3 10.77 C 0.26667 km/h
1370 25-10-2013 08:00:00 10.775 C 9.75 g/m*3 10.78 C 0 km/h
1371 25-10-2013 09:00:00 11.79167 C 10.41 g/m*3 11.79 C 1.6 km/h
1372 25-10-2013 10:00:00 12.8 C 11.09 g/m*3 12.8 C 2 km/h
1373 25-10-2013 11:00:00 13.29167 C 11.41 g/m*3 13.29 C 0.13333 km/h
1374 25-10-2013 12:00:00 13.975 C 11.83 g/m*3 13.98 C 0.4 km/h
1375 25-10-2013 13:00:00 15.175 C 12.64 g/m*3 15.18 C 0.13333 km/h
Sensor: Nr:Datum:Temp:Abs-Feuchte:Windchill:Wind:
Aussen-T/F 1376 25-10-2013 14:00:00 16 C 13.06 g/m*3 16 C 0.53333 km/h
1377 25-10-2013 15:00:00 16.025 C 12.96 g/m*3 16.02 C 0.13333 km/h
1378 25-10-2013 16:00:00 16.31667 C 13.22 g/m*3 16.32 C 0 km/h
1379 25-10-2013 17:00:00 16.19167 C 12.96 g/m*3 16.19 C 0.13333 km/h
1380 25-10-2013 18:00:00 15.81667 C 12.49 g/m*3 15.82 C 2.13333 km/h
1381 25-10-2013 19:00:00 15.55833 C 12.26 g/m*3 15.56 C 2.13333 km/h
1382 25-10-2013 20:00:00 15.08333 C 12.23 g/m*3 15.08 C 0.66667 km/h
1383 25-10-2013 21:00:00 15.11667 C 12.41 g/m*3 15.12 C 0.26667 km/h
1384 25-10-2013 22:00:00 14.95833 C 12.28 g/m*3 14.96 C 0 km/h
1385 25-10-2013 23:00:00 14.75 C 12.18 g/m*3 14.75 C 0 km/h
1386 26-10-2013 00:00:00 14.91667 C 12.39 g/m*3 14.92 C 0.26667 km/h
1387 26-10-2013 01:00:00 15.025 C 12.55 g/m*3 15.03 C 0.8 km/h
1388 26-10-2013 02:00:00 15.06667 C 12.62 g/m*3 15.07 C 0.13333 km/h
1389 26-10-2013 03:00:00 15.3 C 12.8 g/m*3 15.3 C 0.53333 km/h
1390 26-10-2013 04:00:00 15.24167 C 12.75 g/m*3 15.24 C 0 km/h
1391 26-10-2013 05:00:00 14.96667 C 12.57 g/m*3 14.97 C 0 km/h
1392 26-10-2013 06:00:00 15.10833 C 12.76 g/m*3 15.11 C 0 km/h
1393 26-10-2013 07:00:00 14.99167 C 12.58 g/m*3 14.99 C 0 km/h
1394 26-10-2013 08:00:00 15.14167 C 12.76 g/m*3 15.14 C 0.53333 km/h
1395 26-10-2013 09:00:00 15.7 C 13.25 g/m*3 15.7 C 0.66667 km/h
1396 26-10-2013 10:00:00 16.36667 C 13.79 g/m*3 16.37 C 0.66667 km/h
1397 26-10-2013 11:00:00 16.80833 C 14.16 g/m*3 16.81 C 0.4 km/h
1398 26-10-2013 12:00:00 17.6 C 14.2 g/m*3 17.6 C 8.325 km/h
1399 26-10-2013 13:00:00 18.575 C 13.85 g/m*3 18.58 C 9.55 km/h
1400 26-10-2013 14:00:00 18.84167 C 13.97 g/m*3 18.84 C 6.725 km/h
Sensor: Nr:Datum:Temp:Abs-Feuchte:Windchill:Wind:
Aussen-T/F 1401 26-10-2013 15:00:00 18.825 C 14.57 g/m*3 18.83 C 1.86667 km/h
1402 26-10-2013 16:00:00 19.3 C 14.6 g/m*3 19.3 C 6.45 km/h
1403 26-10-2013 17:00:00 17.9 C 14.2 g/m*3 17.9 C 1.6 km/h
1404 26-10-2013 18:00:00 17.45 C 13.85 g/m*3 17.45 C 2.13333 km/h
1405 26-10-2013 19:00:00 17.05833 C 13.59 g/m*3 17.06 C 0 km/h
1406 26-10-2013 20:00:00 16.77273 C 13.5 g/m*3 16.77 C 0.14545 km/h
1407 26-10-2013 21:00:00 16.34167 C 13.28 g/m*3 16.34 C 0 km/h
1408 26-10-2013 22:00:00 16.625 C 13.19 g/m*3 16.63 C 3.075 km/h
1409 26-10-2013 23:00:00 17.21667 C 12.85 g/m*3 17.22 C 4.00833 km/h
1410 27-10-2013 00:00:00 15.625 C 12.64 g/m*3 15.63 C 0.4 km/h
1411 27-10-2013 01:00:00 15.16667 C 12.56 g/m*3 15.17 C 0.13333 km/h
1412 27-10-2013 02:00:00 15.18333 C 12.58 g/m*3 15.18 C 0.13333 km/h
1413 27-10-2013 04:00:00 16.21739 C 12.35 g/m*3 16.22 C 5.38261 km/h
1414 27-10-2013 05:00:00 16.20769 C 11.68 g/m*3 16.21 C 8.3 km/h
1415 27-10-2013 06:00:00 15.725 C 10.98 g/m*3 15.73 C 8.18333 km/h
1416 27-10-2013 07:00:00 15.43333 C 10.64 g/m*3 15.43 C 10.34167 km/h
1417 27-10-2013 08:00:00 15.675 C 10.68 g/m*3 15.68 C 7.09167 km/h
1418 27-10-2013 09:00:00 16.33333 C 10.83 g/m*3 16.33 C 9.53333 km/h
1419 27-10-2013 10:00:00 17.16667 C 10.47 g/m*3 17.17 C 22.65833 km/h
1420 27-10-2013 11:00:00 15.56667 C 10.73 g/m*3 15.57 C 16.76667 km/h
1421 27-10-2013 12:00:00 15.45833 C 11.09 g/m*3 15.46 C 15.30833 km/h
1422 27-10-2013 13:00:00 13.86667 C 9.69 g/m*3 13.87 C 17.56667 km/h
1423 27-10-2013 14:00:00 12.34167 C 9.42 g/m*3 12.34 C 14.5 km/h
1424 27-10-2013 15:00:00 13.94167 C 10.03 g/m*3 13.94 C 11.14167 km/h
1425 27-10-2013 16:00:00 14.16667 C 10.36 g/m*3 14.17 C 5.35833 km/h
Sensor: Nr:Datum:Temp:Abs-Feuchte:Windchill:Wind:
Aussen-T/F 1426 27-10-2013 17:00:00 13.91667 C 9.51 g/m*3 13.92 C 10.60833 km/h
1427 27-10-2013 18:00:00 14.35833 C 9.46 g/m*3 14.36 C 19.44167 km/h
1428 27-10-2013 19:00:00 14.19167 C 9.73 g/m*3 14.19 C 20.23333 km/h
1429 27-10-2013 20:00:00 13.31667 C 10.07 g/m*3 13.32 C 10.625 km/h
1430 27-10-2013 21:00:00 13.725 C 9.98 g/m*3 13.73 C 9.8 km/h
1431 27-10-2013 22:00:00 14.59167 C 9.95 g/m*3 14.59 C 17.56667 km/h
1432 27-10-2013 23:00:00 14.38333 C 10.11 g/m*3 14.38 C 15.7 km/h
1433 28-10-2013 00:00:00 14.15 C 10.34 g/m*3 14.15 C 7.11667 km/h
1434 28-10-2013 01:00:00 13.125 C 10.66 g/m*3 13.13 C 2.53333 km/h
1435 28-10-2013 02:00:00 13.31667 C 11.01 g/m*3 13.32 C 5.88333 km/h
1436 28-10-2013 03:00:00 14.64167 C 11.26 g/m*3 14.64 C 15.83333 km/h
1437 28-10-2013 04:00:00 15.26667 C 10.98 g/m*3 15.27 C 12.89167 km/h
1438 28-10-2013 05:00:00 14.54167 C 10.62 g/m*3 14.54 C 4.26667 km/h
1439 28-10-2013 06:00:00 14.10833 C 10.45 g/m*3 14.11 C 4.55 km/h
1440 28-10-2013 07:00:00 16.29167 C 10.01 g/m*3 16.29 C 17.43333 km/h
1441 28-10-2013 08:00:00 17.20833 C 9.71 g/m*3 17.21 C 19.83333 km/h
1442 28-10-2013 09:00:00 17.79167 C 9.54 g/m*3 17.79 C 13.15833 km/h
1443 28-10-2013 10:00:00 18.61667 C 9.53 g/m*3 18.62 C 22.66667 km/h
1444 28-10-2013 11:00:00 18.75 C 10.14 g/m*3 18.75 C 29.78333 km/h
1445 28-10-2013 12:00:00 16.69167 C 11.23 g/m*3 16.69 C 25.35 km/h
1446 28-10-2013 13:00:00 16.75 C 11.04 g/m*3 16.75 C 23.99167 km/h
1447 28-10-2013 14:00:00 16.35 C 11.17 g/m*3 16.35 C 18.5 km/h
1448 28-10-2013 15:00:00 16.82727 C 10.61 g/m*3 16.83 C 20.18182 km/h
1449 28-10-2013 16:00:00 15.96667 C 10.06 g/m*3 15.97 C 19.3 km/h
1450 28-10-2013 17:00:00 15.20833 C 9.98 g/m*3 15.21 C 17.16667 km/h
Sensor: Nr:Datum:Temp:Abs-Feuchte:Windchill:Wind:
Aussen-T/F 1451 28-10-2013 18:00:00 14.34167 C 9.74 g/m*3 14.34 C 14.75833 km/h
1452 28-10-2013 19:00:00 14.40833 C 9.65 g/m*3 14.41 C 8.60833 km/h
1453 28-10-2013 20:00:00 14.3 C 9.46 g/m*3 14.3 C 11.3 km/h
1454 28-10-2013 22:00:00 13.35 C 9.08 g/m*3 13.35 C 9.53333 km/h
1455 28-10-2013 23:00:00 13.08333 C 8.81 g/m*3 13.08 C 13.43333 km/h
1456 29-10-2013 00:00:00 12.875 C 8.62 g/m*3 12.88 C 10.61667 km/h
1457 29-10-2013 01:00:00 12.69167 C 8.46 g/m*3 12.69 C 9.14167 km/h
1458 29-10-2013 02:00:00 12.33333 C 8.31 g/m*3 12.33 C 11.55 km/h
1459 29-10-2013 03:00:00 12.13333 C 8.37 g/m*3 12.13 C 8.71667 km/h
1460 29-10-2013 04:00:00 12.00833 C 8.25 g/m*3 12.01 C 12.63333 km/h
1461 29-10-2013 05:00:00 11.81667 C 8.09 g/m*3 11.82 C 13.56667 km/h
1462 29-10-2013 06:00:00 11.51667 C 8.07 g/m*3 11.52 C 9 km/h
1463 29-10-2013 07:00:00 10.95833 C 7.61 g/m*3 9.9 C 9.26667 km/h
1464 29-10-2013 08:00:00 11.04167 C 7.4 g/m*3 11.04 C 12.48333 km/h
1465 29-10-2013 09:00:00 11.68333 C 7.56 g/m*3 11.68 C 13.83333 km/h
1466 29-10-2013 10:00:00 11.91667 C 7.62 g/m*3 11.92 C 16.225 km/h
1467 29-10-2013 11:00:00 12.16667 C 7.79 g/m*3 12.17 C 14.1 km/h
1468 29-10-2013 12:00:00 12.88333 C 7.97 g/m*3 12.88 C 14.63333 km/h
1469 29-10-2013 13:00:00 13.39167 C 7.73 g/m*3 13.39 C 13.7 km/h
1470 29-10-2013 14:00:00 13.13636 C 7.57 g/m*3 13.14 C 8.5 km/h
1471 29-10-2013 17:00:00 10.85833 C 7.61 g/m*3 10.86 C 3.35 km/h
1472 29-10-2013 18:00:00 9.25714 C 7.48 g/m*3 9.26 C 1.14286 km/h
1473 29-10-2013 19:00:00 8.12857 C 7.31 g/m*3 8.13 C 0.45714 km/h
1474 29-10-2013 20:00:00 7.775 C 7.25 g/m*3 7.78 C 0.53333 km/h
1475 29-10-2013 21:00:00 7.59167 C 7.23 g/m*3 7.59 C 0.66667 km/h
Sensor: Nr:Datum:Temp:Abs-Feuchte:Windchill:Wind:
Aussen-T/F 1476 29-10-2013 22:00:00 8.15 C 7.39 g/m*3 8.15 C 2.13333 km/h
1477 29-10-2013 23:00:00 8.59167 C 7.42 g/m*3 8.59 C 3.075 km/h
1478 30-10-2013 00:00:00 7.86667 C 7.34 g/m*3 7.87 C 1.06667 km/h
1479 30-10-2013 01:00:00 7.76667 C 7.26 g/m*3 7.77 C 1.73333 km/h
1480 30-10-2013 02:00:00 7.30833 C 7.2 g/m*3 7.31 C 2.66667 km/h
1481 30-10-2013 03:00:00 7.66667 C 7.19 g/m*3 6.9 C 5.63333 km/h
1482 30-10-2013 04:00:00 7.51667 C 7.08 g/m*3 7.52 C 4.4 km/h
1483 30-10-2013 05:00:00 7.375 C 7.01 g/m*3 7.38 C 4.94167 km/h
1484 30-10-2013 06:00:00 6.825 C 6.89 g/m*3 6.83 C 4 km/h
1485 30-10-2013 07:00:00 6.775 C 6.88 g/m*3 5.24 C 7.925 km/h
1486 30-10-2013 08:00:00 7.00833 C 6.9 g/m*3 5.58 C 7.65833 km/h
1487 30-10-2013 09:00:00 7.30833 C 6.99 g/m*3 7.31 C 3.74167 km/h
1488 30-10-2013 10:00:00 8.04167 C 7.15 g/m*3 8.04 C 4.68333 km/h
1489 30-10-2013 11:00:00 9 C 7.19 g/m*3 7.47 C 9.8 km/h
1490 30-10-2013 12:00:00 10.01667 C 7.22 g/m*3 8.28 C 12.36667 km/h
1491 30-10-2013 13:00:00 10.69167 C 7.23 g/m*3 9.65 C 8.86667 km/h
1492 30-10-2013 14:00:00 11.15 C 7.36 g/m*3 11.15 C 8.6 km/h
1493 30-10-2013 15:00:00 10.55 C 7.47 g/m*3 10.55 C 3.61667 km/h
1494 30-10-2013 16:00:00 9.31667 C 7.47 g/m*3 9.32 C 2 km/h
1495 30-10-2013 17:00:00 8.15833 C 7.2 g/m*3 8.16 C 2.8 km/h
1496 30-10-2013 18:00:00 7.64167 C 7.1 g/m*3 7.64 C 2.66667 km/h
1497 30-10-2013 19:00:00 6.91667 C 6.98 g/m*3 6.92 C 1.6 km/h
1498 30-10-2013 20:00:00 6.75833 C 6.92 g/m*3 6.76 C 1.06667 km/h
1499 30-10-2013 21:00:00 5.76667 C 6.64 g/m*3 5.77 C 0 km/h
1500 30-10-2013 22:00:00 4.94444 C 6.43 g/m*3 4.94 C 0.17778 km/h
Sensor: Nr:Datum:Temp:Abs-Feuchte:Windchill:Wind:
Aussen-T/F 1501 30-10-2013 23:00:00 4.55 C 6.29 g/m*3 4.55 C 0 km/h
1502 31-10-2013 00:00:00 4.23333 C 6.2 g/m*3 4.23 C 0 km/h
1503 31-10-2013 01:00:00 3.71667 C 5.99 g/m*3 3.72 C 0 km/h
1504 31-10-2013 02:00:00 3.35 C 5.84 g/m*3 3.35 C 0.13333 km/h
1505 31-10-2013 03:00:00 3.00833 C 5.74 g/m*3 3.01 C 0 km/h
1506 31-10-2013 04:00:00 3.28333 C 5.88 g/m*3 3.28 C 0.8 km/h
1507 31-10-2013 05:00:00 3.1 C 5.81 g/m*3 3.1 C 1.46667 km/h
1508 31-10-2013 06:00:00 2.73333 C 5.66 g/m*3 2.73 C 0.8 km/h
1509 31-10-2013 07:00:00 2.55833 C 5.6 g/m*3 2.56 C 1.2 km/h
1510 31-10-2013 08:00:00 2.70833 C 5.69 g/m*3 2.71 C 1.06667 km/h
1511 31-10-2013 09:00:00 3.06667 C 5.85 g/m*3 3.07 C 2 km/h
1512 31-10-2013 10:00:00 3.46667 C 6.01 g/m*3 3.47 C 2 km/h
1513 31-10-2013 11:00:00 4.19167 C 6.31 g/m*3 4.19 C 2.13333 km/h
1514 31-10-2013 12:00:00 5.075 C 6.69 g/m*3 5.08 C 0 km/h
1515 31-10-2013 13:00:00 7.15833 C 7.65 g/m*3 7.16 C 0.93333 km/h
1516 31-10-2013 14:00:00 9.275 C 8.07 g/m*3 9.28 C 2.66667 km/h
1517 31-10-2013 15:00:00 9.65833 C 7.96 g/m*3 9.66 C 2.53333 km/h
1518 31-10-2013 16:00:00 9.1 C 7.7 g/m*3 9.1 C 2.4 km/h
1519 31-10-2013 17:00:00 8.08333 C 7.4 g/m*3 8.08 C 2 km/h
1520 31-10-2013 18:00:00 7.56667 C 7.26 g/m*3 7.57 C 1.86667 km/h
1521 31-10-2013 19:00:00 7.06667 C 7.08 g/m*3 7.07 C 0.8 km/h
1522 31-10-2013 20:00:00 6.225 C 6.79 g/m*3 6.23 C 0.26667 km/h
1523 31-10-2013 21:00:00 6 C 6.68 g/m*3 6 C 0.13333 km/h
1524 31-10-2013 22:00:00 5.70833 C 6.68 g/m*3 5.71 C 0.13333 km/h
1525 31-10-2013 23:00:00 6.31667 C 6.95 g/m*3 6.32 C 0.66667 km/h
Sensor: Nr:Datum:Temp:Abs-Feuchte:Windchill:Wind:
Aussen-T/F 1526 01-11-2013 00:00:00 7.34167 C 7.24 g/m*3 7.34 C 2 km/h
1527 01-11-2013 01:00:00 8.74167 C 7.3 g/m*3 8.74 C 2.53333 km/h
1528 01-11-2013 02:00:00 8.65 C 7.46 g/m*3 8.65 C 0.26667 km/h
1529 01-11-2013 03:00:00 8.68333 C 7.51 g/m*3 8.68 C 0.53333 km/h
1530 01-11-2013 04:00:00 9.15 C 7.68 g/m*3 9.15 C 0.53333 km/h
1531 01-11-2013 05:00:00 8.90833 C 7.85 g/m*3 8.91 C 0 km/h
1532 01-11-2013 06:00:00 8.65 C 7.82 g/m*3 8.65 C 0 km/h
1533 01-11-2013 07:00:00 8.725 C 7.94 g/m*3 8.73 C 0 km/h
1534 01-11-2013 08:00:00 8.95833 C 8 g/m*3 8.96 C 0.13333 km/h
1535 01-11-2013 09:00:00 9.90833 C 8 g/m*3 9.91 C 0.8 km/h
1536 01-11-2013 10:00:00 10.79167 C 8.08 g/m*3 10.79 C 2.4 km/h
1537 01-11-2013 11:00:00 11.45 C 8.29 g/m*3 11.45 C 4.81667 km/h
1538 01-11-2013 12:00:00 12.16667 C 8.54 g/m*3 12.17 C 4.94167 km/h
1539 01-11-2013 13:00:00 11.61667 C 9.16 g/m*3 11.62 C 0 km/h
1540 01-11-2013 14:00:00 11.25833 C 9.22 g/m*3 11.26 C 0.4 km/h
1541 01-11-2013 15:00:00 11.16667 C 8.83 g/m*3 11.17 C 0 km/h
1542 01-11-2013 16:00:00 10.35 C 8.53 g/m*3 10.35 C 0 km/h
1543 01-11-2013 17:00:00 9.45833 C 8.34 g/m*3 9.46 C 0 km/h
1544 01-11-2013 18:00:00 8.78333 C 8.25 g/m*3 8.78 C 0 km/h
1545 01-11-2013 19:00:00 8.58333 C 8.22 g/m*3 8.58 C 0 km/h
1546 01-11-2013 20:00:00 8.4 C 8.17 g/m*3 8.4 C 0.26667 km/h
1547 01-11-2013 21:00:00 8.30833 C 8.11 g/m*3 8.31 C 0.66667 km/h
1548 01-11-2013 22:00:00 8.19167 C 8.06 g/m*3 8.19 C 0.13333 km/h
1549 01-11-2013 23:00:00 8.11667 C 8.08 g/m*3 8.12 C 0.4 km/h
1550 02-11-2013 00:00:00 8.29167 C 8.17 g/m*3 8.29 C 0 km/h
Sensor: Nr:Datum:Temp:Abs-Feuchte:Windchill:Wind:
Aussen-T/F 1551 02-11-2013 01:00:00 8.56667 C 8.34 g/m*3 8.57 C 0 km/h
1552 02-11-2013 02:00:00 8.7 C 8.41 g/m*3 8.7 C 0 km/h
1553 02-11-2013 03:00:00 9.14167 C 8.71 g/m*3 9.14 C 0.53333 km/h
1554 02-11-2013 04:00:00 9.4 C 8.86 g/m*3 9.4 C 0.8 km/h
1555 02-11-2013 06:00:00 10.08571 C 9.29 g/m*3 10.09 C 1.37143 km/h
1556 02-11-2013 07:00:00 10.65 C 9.6 g/m*3 10.65 C 2.66667 km/h
1557 02-11-2013 08:00:00 11.49167 C 10.12 g/m*3 11.49 C 4.95 km/h
1558 02-11-2013 09:00:00 12.66667 C 10.67 g/m*3 12.67 C 5.225 km/h
1559 02-11-2013 10:00:00 13.84167 C 11.07 g/m*3 13.84 C 8.45 km/h
1560 02-11-2013 11:00:00 14.85 C 11.46 g/m*3 14.85 C 16.9 km/h
1561 02-11-2013 12:00:00 15.475 C 11.69 g/m*3 15.48 C 15.16667 km/h
1562 02-11-2013 13:00:00 15.75 C 11.88 g/m*3 15.75 C 17.03333 km/h
1563 02-11-2013 14:00:00 16.1 C 11.96 g/m*3 16.1 C 20.63333 km/h
1564 02-11-2013 15:00:00 16.29167 C 11.82 g/m*3 16.29 C 16.23333 km/h
1565 02-11-2013 16:00:00 16.04167 C 11.14 g/m*3 16.04 C 16.65 km/h
1566 02-11-2013 17:00:00 15.24167 C 10.54 g/m*3 15.24 C 11.55 km/h
1567 02-11-2013 18:00:00 14.38333 C 10.03 g/m*3 14.38 C 8.6 km/h
1568 02-11-2013 19:00:00 13.225 C 9.86 g/m*3 13.23 C 4.425 km/h
1569 02-11-2013 20:00:00 12.7 C 9.92 g/m*3 12.7 C 3.75 km/h
1570 02-11-2013 21:00:00 13.95833 C 9.87 g/m*3 13.96 C 8.45833 km/h
1571 02-11-2013 22:00:00 13.33333 C 9.85 g/m*3 13.33 C 3.475 km/h
1572 02-11-2013 23:00:00 13.05833 C 9.94 g/m*3 13.06 C 1.73333 km/h
1573 03-11-2013 00:00:00 12.66667 C 9.89 g/m*3 12.67 C 1.46667 km/h
1574 03-11-2013 01:00:00 13.025 C 9.87 g/m*3 13.03 C 1.73333 km/h
1575 03-11-2013 02:00:00 12.70833 C 9.8 g/m*3 12.71 C 9.525 km/h
Sensor: Nr:Datum:Temp:Abs-Feuchte:Windchill:Wind:
Aussen-T/F 1576 03-11-2013 03:00:00 10.66667 C 8.83 g/m*3 9.98 C 7.1 km/h
1577 03-11-2013 04:00:00 10.05 C 8.55 g/m*3 10.05 C 4.95833 km/h
1578 03-11-2013 05:00:00 9.78333 C 8.26 g/m*3 9.32 C 5.625 km/h
1579 03-11-2013 06:00:00 9.875 C 8.09 g/m*3 8.77 C 8.45833 km/h
1580 03-11-2013 07:00:00 10.05833 C 8.06 g/m*3 9.12 C 7.78333 km/h
1581 03-11-2013 08:00:00 9.71667 C 7.85 g/m*3 9.03 C 6.44167 km/h
1582 03-11-2013 09:00:00 9.625 C 7.68 g/m*3 8.06 C 10.75833 km/h
1583 03-11-2013 10:00:00 9.29167 C 7.39 g/m*3 7.61 C 11.025 km/h
1584 03-11-2013 11:00:00 9.35 C 7.45 g/m*3 7.06 C 15.425 km/h
1585 03-11-2013 12:00:00 10.61667 C 7.4 g/m*3 8.34 C 18.1 km/h
1586 03-11-2013 13:00:00 10.575 C 7.33 g/m*3 8.37 C 17.3 km/h
1587 03-11-2013 14:00:00 10.4 C 7.24 g/m*3 8.39 C 15.16667 km/h
1588 03-11-2013 15:00:00 10.35833 C 7.15 g/m*3 8.59 C 13.16667 km/h
1589 03-11-2013 16:00:00 9.95 C 7.08 g/m*3 7.95 C 14.23333 km/h
1590 03-11-2013 17:00:00 9.74167 C 7.1 g/m*3 7.53 C 15.56667 km/h
1591 03-11-2013 18:00:00 8.51667 C 7.4 g/m*3 5.63 C 18.79167 km/h
1592 03-11-2013 19:00:00 7.89167 C 7.54 g/m*3 7.04 C 6.03333 km/h
1593 03-11-2013 20:00:00 7.98333 C 7.33 g/m*3 6.06 C 10.89167 km/h
1594 03-11-2013 21:00:00 8.35 C 7.17 g/m*3 5.98 C 14.23333 km/h
1595 03-11-2013 22:00:00 9.01667 C 7.09 g/m*3 6.49 C 16.76667 km/h
1596 03-11-2013 23:00:00 8.25 C 6.98 g/m*3 7.41 C 6.16667 km/h
1597 04-11-2013 00:00:00 7.06667 C 7.02 g/m*3 7.07 C 2.4 km/h
1598 04-11-2013 01:00:00 8.025 C 7.24 g/m*3 8.03 C 4.68333 km/h
1599 04-11-2013 02:00:00 8.625 C 7.36 g/m*3 7.88 C 6.025 km/h
1600 04-11-2013 03:00:00 8.65 C 7.51 g/m*3 7.7 C 6.84167 km/h
Sensor: Nr:Datum:Temp:Abs-Feuchte:Windchill:Wind:
Aussen-T/F 1601 04-11-2013 04:00:00 8.55 C 7.72 g/m*3 7.68 C 6.44167 km/h
1602 04-11-2013 05:00:00 9.16667 C 7.98 g/m*3 8.1 C 7.66667 km/h
1603 04-11-2013 06:00:00 10.01667 C 8.21 g/m*3 9.32 C 6.7 km/h
1604 04-11-2013 07:00:00 10.86667 C 8.54 g/m*3 10.01 C 8.05833 km/h
1605 04-11-2013 08:00:00 11.58889 C 8.85 g/m*3 11.59 C 12.34444 km/h
1606 04-11-2013 09:00:00 12.04167 C 8.8 g/m*3 12.04 C 16.1 km/h
1607 04-11-2013 10:00:00 12.48333 C 8.95 g/m*3 12.48 C 14.09167 km/h
1608 04-11-2013 11:00:00 12.8 C 9.11 g/m*3 12.8 C 20.64167 km/h
1609 04-11-2013 12:00:00 13.125 C 9.12 g/m*3 13.13 C 19.43333 km/h
1610 04-11-2013 13:00:00 12.875 C 9.36 g/m*3 12.88 C 12.6 km/h
1611 04-11-2013 14:00:00 12.3 C 9.72 g/m*3 12.3 C 11.55 km/h
1612 04-11-2013 15:00:00 12.575 C 9.58 g/m*3 12.58 C 8.45833 km/h
1613 04-11-2013 16:00:00 12.29167 C 9.48 g/m*3 12.29 C 9.13333 km/h
1614 04-11-2013 17:00:00 10.2 C 8.64 g/m*3 8.02 C 16.23333 km/h
1615 04-11-2013 18:00:00 8.125 C 7.58 g/m*3 6.37 C 10.09167 km/h
1616 04-11-2013 19:00:00 7.775 C 7.3 g/m*3 5.99 C 9.925 km/h
1617 04-11-2013 20:00:00 7.69167 C 7.06 g/m*3 6.34 C 7.8 km/h
1618 04-11-2013 21:00:00 6.91667 C 6.84 g/m*3 6.92 C 3.75 km/h
1619 04-11-2013 22:00:00 6.14167 C 6.68 g/m*3 6.14 C 2.8 km/h
1620 04-11-2013 23:00:00 5.875 C 6.54 g/m*3 5.88 C 3.33333 km/h
1621 05-11-2013 00:00:00 5.175 C 6.37 g/m*3 5.18 C 3.20833 km/h
1622 05-11-2013 01:00:00 5.94167 C 6.47 g/m*3 4.19 C 8.19167 km/h
1623 05-11-2013 02:00:00 6.25833 C 6.5 g/m*3 4.7 C 7.66667 km/h
1624 05-11-2013 03:00:00 6.43333 C 6.49 g/m*3 4.98 C 7.36667 km/h
1625 05-11-2013 04:00:00 6.45833 C 6.53 g/m*3 4.58 C 9.13333 km/h
Sensor: Nr:Datum:Temp:Abs-Feuchte:Windchill:Wind:
Aussen-T/F 1626 05-11-2013 05:00:00 6.46667 C 6.44 g/m*3 4.02 C 12.08333 km/h
1627 05-11-2013 06:00:00 6.29167 C 6.35 g/m*3 4.85 C 7.24167 km/h
1628 05-11-2013 07:00:00 6.025 C 6.31 g/m*3 4.5 C 7.39167 km/h
1629 05-11-2013 08:00:00 5.29167 C 6.11 g/m*3 3.88 C 6.575 km/h
1630 05-11-2013 09:00:00 5.73333 C 6.23 g/m*3 3.46 C 10.35 km/h
1631 05-11-2013 10:00:00 5.8 C 6.15 g/m*3 3.49 C 10.61667 km/h
1632 05-11-2013 11:00:00 6.425 C 6.29 g/m*3 4.16 C 11.03333 km/h
1633 05-11-2013 12:00:00 7.60833 C 6.63 g/m*3 6.28 C 7.65833 km/h
1634 05-11-2013 13:00:00 8.24167 C 6.65 g/m*3 6.73 C 9.00833 km/h
1635 05-11-2013 14:00:00 7.9 C 6.48 g/m*3 7.05 C 6.03333 km/h
1636 05-11-2013 15:00:00 7.425 C 6.25 g/m*3 7.43 C 4.40833 km/h
1637 05-11-2013 16:00:00 7.09167 C 6.5 g/m*3 7.09 C 3.875 km/h
1638 05-11-2013 17:00:00 6.81667 C 6.68 g/m*3 6.82 C 3.475 km/h
1639 05-11-2013 18:00:00 6.68333 C 6.89 g/m*3 6.68 C 1.6 km/h
1640 05-11-2013 19:00:00 6.5 C 7.09 g/m*3 6.5 C 0.26667 km/h
1641 05-11-2013 20:00:00 6.625 C 7.28 g/m*3 6.63 C 0.53333 km/h
1642 05-11-2013 21:00:00 7.28333 C 7.57 g/m*3 6.51 C 5.49167 km/h
1643 05-11-2013 22:00:00 8.075 C 7.89 g/m*3 8.07 C 4.40833 km/h
1644 05-11-2013 23:00:00 8.76667 C 7.87 g/m*3 7.49 C 8.33333 km/h
1645 06-11-2013 00:00:00 8.50833 C 7.52 g/m*3 7.37 C 7.50833 km/h
1646 06-11-2013 01:00:00 8.24167 C 7.24 g/m*3 7.09 C 7.375 km/h
1647 06-11-2013 02:00:00 8.28333 C 7.26 g/m*3 7.1 C 7.525 km/h
1648 06-11-2013 03:00:00 8.06667 C 7.56 g/m*3 7.13 C 6.43333 km/h
1649 06-11-2013 04:00:00 8.1 C 7.46 g/m*3 8.1 C 4.4 km/h
1650 06-11-2013 05:00:00 8.01667 C 7.46 g/m*3 8.02 C 4.54167 km/h
Sensor: Nr:Datum:Temp:Abs-Feuchte:Windchill:Wind:
Aussen-T/F 1651 06-11-2013 06:00:00 8.26667 C 7.52 g/m*3 8.27 C 3.33333 km/h
1652 06-11-2013 07:00:00 7.94167 C 7.59 g/m*3 7.94 C 1.6 km/h
1653 06-11-2013 08:00:00 8.80833 C 7.81 g/m*3 8.81 C 4.15 km/h
1654 06-11-2013 09:00:00 9.86667 C 8.11 g/m*3 8.95 C 7.53333 km/h
1655 06-11-2013 10:00:00 10.46364 C 8.21 g/m*3 9.27 C 9.52727 km/h
1656 06-11-2013 11:00:00 11.25833 C 8.3 g/m*3 11.26 C 11.29167 km/h
1657 06-11-2013 12:00:00 11.60833 C 8.35 g/m*3 11.61 C 9.54167 km/h
1658 06-11-2013 13:00:00 11.775 C 8.66 g/m*3 11.78 C 7.78333 km/h
1659 06-11-2013 14:00:00 11.65 C 8.98 g/m*3 11.65 C 5.89167 km/h
1660 06-11-2013 15:00:00 11.25 C 9.33 g/m*3 11.25 C 1.33333 km/h
1661 06-11-2013 16:00:00 10.8 C 9.38 g/m*3 10.8 C 0.8 km/h
1662 06-11-2013 17:00:00 10.625 C 9.38 g/m*3 10.63 C 0 km/h
1663 06-11-2013 18:00:00 11.80833 C 10.15 g/m*3 11.81 C 9.11667 km/h
1664 06-11-2013 19:00:00 13.75833 C 10.93 g/m*3 13.76 C 11 km/h
1665 06-11-2013 20:00:00 14.11667 C 10.86 g/m*3 14.12 C 12.23333 km/h
1666 06-11-2013 21:00:00 14.23333 C 10.86 g/m*3 14.23 C 7.91667 km/h
1667 06-11-2013 22:00:00 14.31667 C 10.75 g/m*3 14.32 C 13.3 km/h
1668 06-11-2013 23:00:00 14.50833 C 10.79 g/m*3 14.51 C 16.23333 km/h
1669 07-11-2013 00:00:00 14.60833 C 10.79 g/m*3 14.61 C 15.43333 km/h
1670 07-11-2013 01:00:00 14.6 C 10.9 g/m*3 14.6 C 12.75833 km/h
1671 07-11-2013 02:00:00 15 C 10.81 g/m*3 15 C 16.36667 km/h
1672 07-11-2013 03:00:00 15 C 10.64 g/m*3 15 C 12.1 km/h
1673 07-11-2013 04:00:00 14.80833 C 10.62 g/m*3 14.81 C 13.7 km/h
1674 07-11-2013 05:00:00 14.69167 C 10.62 g/m*3 14.69 C 26.55833 km/h
1675 07-11-2013 06:00:00 14.76667 C 10.48 g/m*3 14.77 C 24 km/h
Sensor: Nr:Datum:Temp:Abs-Feuchte:Windchill:Wind:
Aussen-T/F 1676 07-11-2013 07:00:00 14.71667 C 10.5 g/m*3 14.72 C 27.09167 km/h
1677 07-11-2013 08:00:00 14.325 C 10.59 g/m*3 14.33 C 21.175 km/h
1678 07-11-2013 09:00:00 14.56667 C 10.76 g/m*3 14.57 C 20.36667 km/h
1679 07-11-2013 10:00:00 15.04167 C 10.89 g/m*3 15.04 C 25.85833 km/h
1680 07-11-2013 11:00:00 15.65 C 10.97 g/m*3 15.65 C 22.63333 km/h
1681 07-11-2013 12:00:00 15.85 C 10.99 g/m*3 15.85 C 20.50833 km/h
1682 07-11-2013 13:00:00 16.19167 C 11.11 g/m*3 16.19 C 18.1 km/h
1683 07-11-2013 14:00:00 16.31667 C 11.06 g/m*3 16.32 C 20.1 km/h
1684 07-11-2013 15:00:00 16.3 C 10.95 g/m*3 16.3 C 18.1 km/h
1685 07-11-2013 16:00:00 15.70833 C 10.9 g/m*3 15.71 C 12.5 km/h
1686 07-11-2013 17:00:00 15.175 C 10.91 g/m*3 15.18 C 9.675 km/h
1687 07-11-2013 18:00:00 14.54167 C 10.98 g/m*3 14.54 C 7.24167 km/h
1688 07-11-2013 19:00:00 13.9 C 10.89 g/m*3 13.9 C 5.225 km/h
1689 07-11-2013 20:00:00 14.36667 C 10.94 g/m*3 14.37 C 6.04167 km/h
1690 07-11-2013 21:00:00 15.01667 C 10.99 g/m*3 15.02 C 7.64167 km/h
1691 07-11-2013 22:00:00 15.15833 C 11.09 g/m*3 15.16 C 8.99167 km/h
1692 07-11-2013 23:00:00 14.69167 C 11.23 g/m*3 14.69 C 7.38333 km/h
1693 08-11-2013 00:00:00 15.00833 C 11.28 g/m*3 15.01 C 7.91667 km/h
1694 08-11-2013 01:00:00 13.65 C 10.75 g/m*3 13.65 C 10.19167 km/h
1695 08-11-2013 02:00:00 11.9 C 9.96 g/m*3 11.9 C 6 km/h
1696 08-11-2013 05:00:00 10.75714 C 9.56 g/m*3 10.76 C 0.45714 km/h
1697 08-11-2013 06:00:00 10.525 C 9.42 g/m*3 10.53 C 1.33333 km/h
1698 08-11-2013 07:00:00 10.06667 C 9.15 g/m*3 10.07 C 0.26667 km/h
1699 08-11-2013 08:00:00 10.11667 C 9.27 g/m*3 10.12 C 0 km/h
1700 08-11-2013 09:00:00 10.55 C 9.53 g/m*3 10.55 C 0 km/h
Sensor: Nr:Datum:Temp:Abs-Feuchte:Windchill:Wind:
Aussen-T/F 1701 08-11-2013 10:00:00 11.2 C 9.87 g/m*3 11.2 C 4.825 km/h
1702 08-11-2013 11:00:00 11.98333 C 9.95 g/m*3 11.98 C 3.46667 km/h
1703 08-11-2013 12:00:00 12.61667 C 10.06 g/m*3 12.62 C 0.8 km/h
1704 08-11-2013 13:00:00 13.325 C 10.44 g/m*3 13.33 C 1.73333 km/h
1705 08-11-2013 14:00:00 13.25 C 10.32 g/m*3 13.25 C 0.66667 km/h
1706 08-11-2013 15:00:00 12.09167 C 10.1 g/m*3 12.09 C 0 km/h
1707 08-11-2013 16:00:00 11.41111 C 9.88 g/m*3 11.41 C 1.96667 km/h
1708 08-11-2013 17:00:00 11.2 C 9.58 g/m*3 11.2 C 6.7 km/h
1709 08-11-2013 18:00:00 11.29167 C 9.6 g/m*3 11.29 C 5.225 km/h
1710 08-11-2013 20:00:00 10.3625 C 9.29 g/m*3 10.36 C 2 km/h
1711 08-11-2013 21:00:00 11.38 C 9.8 g/m*3 11.38 C 10.64 km/h
1712 08-11-2013 22:00:00 12.45 C 9.58 g/m*3 12.45 C 14.36667 km/h
1713 08-11-2013 23:00:00 12.6 C 9.24 g/m*3 12.6 C 18.775 km/h
1714 09-11-2013 00:00:00 12.175 C 8.99 g/m*3 12.18 C 13.83333 km/h
1715 09-11-2013 01:00:00 11.99167 C 8.74 g/m*3 11.99 C 16.1 km/h
1716 09-11-2013 02:00:00 11.4 C 8.63 g/m*3 11.4 C 12.49167 km/h
1717 09-11-2013 03:00:00 10.775 C 8.06 g/m*3 8.82 C 15.43333 km/h
1718 09-11-2013 04:00:00 10.2 C 7.44 g/m*3 7.96 C 16.76667 km/h
1719 09-11-2013 05:00:00 9.58333 C 7.5 g/m*3 8.14 C 9.96667 km/h
1720 09-11-2013 06:00:00 8.95833 C 7.26 g/m*3 7.57 C 9.01667 km/h
1721 09-11-2013 07:00:00 8.61667 C 7.1 g/m*3 6.8 C 11.025 km/h
1722 09-11-2013 08:00:00 8.05833 C 6.99 g/m*3 6.87 C 7.39167 km/h
1723 09-11-2013 09:00:00 8.46667 C 7.21 g/m*3 7 C 8.98333 km/h
1724 09-11-2013 10:00:00 9.4 C 7.31 g/m*3 8.05 C 9.25833 km/h
1725 09-11-2013 11:00:00 9.79167 C 7.22 g/m*3 7.86 C 13.43333 km/h
Sensor: Nr:Datum:Temp:Abs-Feuchte:Windchill:Wind:
Aussen-T/F 1726 09-11-2013 12:00:00 10.05 C 6.94 g/m*3 7.77 C 16.76667 km/h
1727 09-11-2013 13:00:00 9.93333 C 6.78 g/m*3 8.12 C 12.75833 km/h
1728 09-11-2013 14:00:00 10.05833 C 6.89 g/m*3 8.56 C 10.875 km/h
1729 09-11-2013 15:00:00 9.8 C 6.9 g/m*3 9.27 C 5.90833 km/h
1730 09-11-2013 16:00:00 8.625 C 6.99 g/m*3 8.63 C 3.60833 km/h
1731 09-11-2013 17:00:00 7.41667 C 7.02 g/m*3 7.42 C 1.33333 km/h
1732 09-11-2013 18:00:00 7.28333 C 6.93 g/m*3 7.28 C 1.2 km/h
1733 09-11-2013 19:00:00 8.25 C 7.02 g/m*3 8.25 C 4.69167 km/h
1734 09-11-2013 20:00:00 9.11667 C 7.07 g/m*3 8.41 C 6.15833 km/h
1735 09-11-2013 21:00:00 9.25833 C 7.22 g/m*3 9.26 C 4.28333 km/h
1736 09-11-2013 22:00:00 9.36667 C 7.45 g/m*3 8.14 C 8.58333 km/h
1737 09-11-2013 23:00:00 9.13333 C 7.36 g/m*3 7.23 C 12.225 km/h
1738 10-11-2013 00:00:00 8.9 C 7.38 g/m*3 7.25 C 10.35 km/h
1739 10-11-2013 01:00:00 8.86667 C 7.39 g/m*3 8.05 C 6.43333 km/h
1740 10-11-2013 02:00:00 8.74167 C 7.46 g/m*3 7.4 C 8.6 km/h
1741 10-11-2013 03:00:00 8.725 C 7.41 g/m*3 7.92 C 6.3 km/h
1742 10-11-2013 04:00:00 8.21667 C 7.36 g/m*3 8.22 C 3.61667 km/h
1743 10-11-2013 05:00:00 8.1 C 7.36 g/m*3 8.1 C 2.41667 km/h
1744 10-11-2013 06:00:00 7.16667 C 7.19 g/m*3 7.17 C 0 km/h
1745 10-11-2013 07:00:00 6.65833 C 7.11 g/m*3 6.66 C 0 km/h
1746 10-11-2013 08:00:00 6.71667 C 7.17 g/m*3 6.72 C 0 km/h
1747 10-11-2013 09:00:00 7.025 C 7.37 g/m*3 7.03 C 0.13333 km/h
1748 10-11-2013 10:00:00 6.65 C 7.09 g/m*3 6.65 C 3.625 km/h
1749 10-11-2013 11:00:00 6.55 C 6.99 g/m*3 6.55 C 3.625 km/h
1750 10-11-2013 12:00:00 6.13333 C 6.74 g/m*3 4.85 C 6.575 km/h
Sensor: Nr:Datum:Temp:Abs-Feuchte:Windchill:Wind:
Aussen-T/F 1751 10-11-2013 13:00:00 6.56667 C 6.86 g/m*3 4.65 C 9.41667 km/h
1752 10-11-2013 14:00:00 6.41667 C 6.56 g/m*3 4.66 C 8.59167 km/h
1753 10-11-2013 15:00:00 6.58333 C 6.76 g/m*3 5.66 C 5.63333 km/h
1754 10-11-2013 16:00:00 6.75 C 6.68 g/m*3 5.57 C 6.56667 km/h
1755 10-11-2013 17:00:00 6.79167 C 6.68 g/m*3 6.79 C 4.95833 km/h
1756 10-11-2013 18:00:00 5.85833 C 6.5 g/m*3 4.57 C 6.43333 km/h
1757 10-11-2013 19:00:00 5.175 C 6.51 g/m*3 5.18 C 4.96667 km/h
1758 10-11-2013 20:00:00 4.94167 C 6.4 g/m*3 4.94 C 2 km/h
1759 10-11-2013 21:00:00 4.51667 C 6.32 g/m*3 4.52 C 1.86667 km/h
1760 10-11-2013 22:00:00 4.5 C 6.37 g/m*3 4.5 C 0.4 km/h
1761 10-11-2013 23:00:00 3.94167 C 6.14 g/m*3 3.94 C 0.26667 km/h
1762 11-11-2013 00:00:00 3.59167 C 6 g/m*3 3.59 C 0.8 km/h
1763 11-11-2013 01:00:00 3.66667 C 6.03 g/m*3 3.67 C 0 km/h
1764 11-11-2013 02:00:00 3.625 C 6.01 g/m*3 3.63 C 0.4 km/h
1765 11-11-2013 03:00:00 3.23333 C 5.86 g/m*3 3.23 C 0.4 km/h
1766 11-11-2013 04:00:00 2.675 C 5.64 g/m*3 2.68 C 0 km/h
1767 11-11-2013 05:00:00 2.66667 C 5.65 g/m*3 2.67 C 0 km/h
1768 11-11-2013 06:00:00 2.85 C 5.75 g/m*3 2.85 C 3.89167 km/h
1769 11-11-2013 07:00:00 2.96667 C 5.8 g/m*3 0.47 C 9.01667 km/h
1770 11-11-2013 08:00:00 2.875 C 5.77 g/m*3 0.47 C 8.61667 km/h
1771 11-11-2013 09:00:00 3.3 C 5.95 g/m*3 1.19 C 7.8 km/h
1772 11-11-2013 10:00:00 3.725 C 6.12 g/m*3 1.58 C 8.2 km/h
1773 11-11-2013 11:00:00 4.40833 C 6.38 g/m*3 2.57 C 7.525 km/h
1774 11-11-2013 12:00:00 5.19167 C 6.62 g/m*3 5.19 C 3.86667 km/h
1775 11-11-2013 13:00:00 6.03333 C 6.8 g/m*3 5.22 C 5.08333 km/h
Sensor: Nr:Datum:Temp:Abs-Feuchte:Windchill:Wind:
Aussen-T/F 1776 11-11-2013 14:00:00 6.33333 C 6.83 g/m*3 6.33 C 2.93333 km/h
1777 11-11-2013 15:00:00 6.36667 C 6.86 g/m*3 6.37 C 3.06667 km/h
1778 11-11-2013 16:00:00 5.86667 C 6.73 g/m*3 5.87 C 1.2 km/h
1779 11-11-2013 17:00:00 4.68333 C 6.33 g/m*3 4.68 C 0.26667 km/h
1780 11-11-2013 18:00:00 4.21667 C 6.21 g/m*3 4.22 C 0.4 km/h
1781 11-11-2013 19:00:00 4.44167 C 6.34 g/m*3 4.44 C 0.26667 km/h
1782 11-11-2013 20:00:00 3.94167 C 6.14 g/m*3 3.94 C 2.13333 km/h
1783 11-11-2013 21:00:00 3.24167 C 5.81 g/m*3 3.24 C 1.2 km/h
1784 11-11-2013 22:00:00 3.31667 C 5.89 g/m*3 3.32 C 0 km/h
1785 11-11-2013 23:00:00 2.96667 C 5.75 g/m*3 2.97 C 0.4 km/h
1786 12-11-2013 00:00:00 2.56667 C 5.6 g/m*3 2.57 C 2.4 km/h
1787 12-11-2013 01:00:00 2.31667 C 5.51 g/m*3 2.32 C 1.2 km/h
1788 12-11-2013 02:00:00 2.13333 C 5.44 g/m*3 2.13 C 0.13333 km/h
1789 12-11-2013 03:00:00 1.79167 C 5.31 g/m*3 1.79 C 0.26667 km/h
1790 12-11-2013 04:00:00 1.55 C 5.23 g/m*3 1.55 C 0 km/h
1791 12-11-2013 05:00:00 1.51667 C 5.22 g/m*3 1.52 C 0 km/h
1792 12-11-2013 06:00:00 1.35 C 5.16 g/m*3 1.35 C 0 km/h
1793 12-11-2013 07:00:00 1.025 C 5.04 g/m*3 1.02 C 0 km/h
1794 12-11-2013 08:00:00 0.91667 C 5.01 g/m*3 0.92 C 0 km/h
1795 12-11-2013 09:00:00 1.28333 C 5.14 g/m*3 1.28 C 0 km/h
1796 12-11-2013 10:00:00 2.25833 C 5.53 g/m*3 2.26 C 0.13333 km/h
1797 12-11-2013 11:00:00 3.11667 C 5.85 g/m*3 3.12 C 0.26667 km/h
1798 12-11-2013 12:00:00 5.74167 C 6.64 g/m*3 5.74 C 1.86667 km/h
1799 12-11-2013 13:00:00 7.45 C 6.82 g/m*3 7.45 C 2.93333 km/h
1800 12-11-2013 14:00:00 8.15833 C 6.92 g/m*3 8.16 C 4.95 km/h
Sensor: Nr:Datum:Temp:Abs-Feuchte:Windchill:Wind:
Aussen-T/F 1801 12-11-2013 15:00:00 8.30833 C 7.17 g/m*3 8.31 C 1.46667 km/h
1802 12-11-2013 16:00:00 7.78333 C 7.21 g/m*3 7.78 C 0.13333 km/h
1803 12-11-2013 17:00:00 7.14167 C 6.91 g/m*3 7.14 C 0.53333 km/h
1804 12-11-2013 18:00:00 6.975 C 6.98 g/m*3 6.98 C 2 km/h
1805 12-11-2013 19:00:00 6.61667 C 7.01 g/m*3 6.62 C 1.33333 km/h
1806 12-11-2013 20:00:00 6.61667 C 6.99 g/m*3 6.62 C 1.46667 km/h
1807 12-11-2013 21:00:00 6.45 C 7.04 g/m*3 6.45 C 2.4 km/h
1808 12-11-2013 22:00:00 6.38333 C 7.14 g/m*3 6.38 C 0.4 km/h
1809 12-11-2013 23:00:00 6.425 C 7.22 g/m*3 6.43 C 0 km/h
1810 13-11-2013 00:00:00 6.675 C 7.36 g/m*3 6.68 C 0 km/h
1811 13-11-2013 01:00:00 6.84167 C 7.44 g/m*3 6.84 C 0.13333 km/h
1812 13-11-2013 02:00:00 7.275 C 7.68 g/m*3 7.28 C 0.4 km/h
1813 13-11-2013 03:00:00 7.59167 C 7.84 g/m*3 7.59 C 2.13333 km/h
1814 13-11-2013 04:00:00 7.6 C 7.81 g/m*3 7.6 C 0.8 km/h
1815 13-11-2013 05:00:00 7.41667 C 7.72 g/m*3 7.42 C 0.8 km/h
1816 13-11-2013 06:00:00 7.04167 C 7.54 g/m*3 7.04 C 1.86667 km/h
1817 13-11-2013 07:00:00 7.05 C 7.47 g/m*3 7.05 C 1.46667 km/h
1818 13-11-2013 08:00:00 6.725 C 7.31 g/m*3 6.73 C 0 km/h
1819 13-11-2013 09:00:00 6.375 C 7.15 g/m*3 6.38 C 0.26667 km/h
1820 13-11-2013 10:00:00 7.05833 C 7.42 g/m*3 7.06 C 1.06667 km/h
1821 13-11-2013 11:00:00 8.08333 C 7.53 g/m*3 8.08 C 3.86667 km/h
1822 13-11-2013 12:00:00 8.43333 C 7.47 g/m*3 8.43 C 2.4 km/h
1823 13-11-2013 13:00:00 8.69167 C 7.35 g/m*3 8.69 C 1.46667 km/h
1824 13-11-2013 14:00:00 8.45833 C 7.02 g/m*3 7.89 C 5.36667 km/h
1825 13-11-2013 15:00:00 8.90833 C 7.02 g/m*3 8.91 C 4.16667 km/h
Sensor: Nr:Datum:Temp:Abs-Feuchte:Windchill:Wind:
Aussen-T/F 1826 13-11-2013 16:00:00 6.50833 C 6.81 g/m*3 6.51 C 2.53333 km/h
1827 13-11-2013 17:00:00 5.54167 C 6.51 g/m*3 5.54 C 4.13333 km/h
1828 13-11-2013 18:00:00 4.78333 C 6.26 g/m*3 4.78 C 0.93333 km/h
1829 13-11-2013 19:00:00 3.65833 C 5.89 g/m*3 3.66 C 0 km/h
1830 13-11-2013 20:00:00 3.07273 C 5.72 g/m*3 3.07 C 0 km/h
1831 13-11-2013 21:00:00 2.49 C 5.51 g/m*3 2.49 C 0 km/h
1832 13-11-2013 22:00:00 2.05 C 5.39 g/m*3 2.05 C 0 km/h
1833 13-11-2013 23:00:00 1.60833 C 5.24 g/m*3 1.61 C 0 km/h
1834 14-11-2013 00:00:00 1.59167 C 5.24 g/m*3 1.59 C 0.13333 km/h
1835 14-11-2013 01:00:00 1.30833 C 5.14 g/m*3 1.31 C 0.66667 km/h
1836 14-11-2013 02:00:00 1.225 C 5.13 g/m*3 1.23 C 2.26667 km/h
1837 14-11-2013 03:00:00 0.925 C 5.03 g/m*3 0.93 C 3.33333 km/h
1838 14-11-2013 04:00:00 0.875 C 5.04 g/m*3 0.88 C 1.73333 km/h
1839 14-11-2013 05:00:00 0.64167 C 4.96 g/m*3 0.64 C 1.86667 km/h
1840 14-11-2013 06:00:00 0.5 C 4.91 g/m*3 0.5 C 2.4 km/h
1841 14-11-2013 07:00:00 0.6 C 4.95 g/m*3 0.6 C 3.46667 km/h
1842 14-11-2013 08:00:00 0.725 C 4.99 g/m*3 0.73 C 2.26667 km/h
1843 14-11-2013 09:00:00 1.35 C 5.21 g/m*3 1.35 C 1.2 km/h
1844 14-11-2013 10:00:00 2.05833 C 5.47 g/m*3 2.06 C 2.93333 km/h
1845 14-11-2013 11:00:00 2.95 C 5.81 g/m*3 2.95 C 1.86667 km/h
1846 14-11-2013 12:00:00 4.575 C 6.29 g/m*3 2.16 C 9.94167 km/h
1847 14-11-2013 13:00:00 5.41667 C 6.15 g/m*3 4.1 C 6.30833 km/h
1848 14-11-2013 14:00:00 5.96667 C 6.14 g/m*3 5.01 C 5.475 km/h
1849 14-11-2013 15:00:00 6 C 6.16 g/m*3 5.09 C 5.35833 km/h
1850 14-11-2013 16:00:00 5.525 C 6.38 g/m*3 5.53 C 1.2 km/h
Sensor: Nr:Datum:Temp:Abs-Feuchte:Windchill:Wind:
Aussen-T/F 1851 14-11-2013 17:00:00 5.10833 C 6.5 g/m*3 5.11 C 0.53333 km/h
1852 14-11-2013 18:00:00 5.05 C 6.53 g/m*3 5.05 C 0 km/h
1853 14-11-2013 19:00:00 5.06667 C 6.55 g/m*3 5.07 C 0.13333 km/h
1854 14-11-2013 20:00:00 5.16667 C 6.62 g/m*3 5.17 C 0.13333 km/h
1855 14-11-2013 21:00:00 5.40833 C 6.59 g/m*3 5.41 C 2.14167 km/h
1856 14-11-2013 22:00:00 5.45 C 6.52 g/m*3 5.45 C 0.8 km/h
1857 14-11-2013 23:00:00 5.275 C 6.57 g/m*3 5.28 C 0 km/h
1858 15-11-2013 00:00:00 5.125 C 6.58 g/m*3 5.13 C 0 km/h
1859 15-11-2013 01:00:00 4.975 C 6.51 g/m*3 4.97 C 0.26667 km/h
1860 15-11-2013 02:00:00 5.04167 C 6.54 g/m*3 5.04 C 0 km/h
1861 15-11-2013 03:00:00 4.95 C 6.5 g/m*3 4.95 C 0 km/h
1862 15-11-2013 04:00:00 5.15 C 6.59 g/m*3 5.15 C 0 km/h
1863 15-11-2013 05:00:00 5.20833 C 6.61 g/m*3 5.21 C 0 km/h
1864 15-11-2013 06:00:00 5.23333 C 6.62 g/m*3 5.23 C 0 km/h
1865 15-11-2013 07:00:00 5.225 C 6.62 g/m*3 5.23 C 0.66667 km/h
1866 15-11-2013 08:00:00 5.29167 C 6.65 g/m*3 5.29 C 0.4 km/h
1867 15-11-2013 09:00:00 4.7 C 6.37 g/m*3 4.7 C 2.26667 km/h
1868 15-11-2013 10:00:00 5.93333 C 6.82 g/m*3 5.93 C 2 km/h
1869 15-11-2013 11:00:00 7.10833 C 6.77 g/m*3 6.45 C 5.08333 km/h
1870 15-11-2013 12:00:00 7.53333 C 6.62 g/m*3 7.53 C 4.41667 km/h
1871 15-11-2013 13:00:00 7.93333 C 6.29 g/m*3 6.86 C 6.84167 km/h
1872 15-11-2013 14:00:00 7.56667 C 5.95 g/m*3 6.66 C 6.03333 km/h
1873 15-11-2013 15:00:00 6.475 C 5.98 g/m*3 6.48 C 2.93333 km/h
1874 15-11-2013 16:00:00 5.575 C 5.92 g/m*3 5.58 C 3.46667 km/h
1875 15-11-2013 17:00:00 4.775 C 5.75 g/m*3 4.78 C 4.13333 km/h
Sensor: Nr:Datum:Temp:Abs-Feuchte:Windchill:Wind:
Aussen-T/F 1876 15-11-2013 18:00:00 4.21667 C 5.62 g/m*3 4.22 C 2.66667 km/h
1877 15-11-2013 19:00:00 3.41667 C 5.45 g/m*3 3.42 C 2.13333 km/h
1878 15-11-2013 20:00:00 2.61667 C 5.28 g/m*3 2.62 C 0 km/h
1879 15-11-2013 21:00:00 2.1 C 5.2 g/m*3 2.1 C 0.13333 km/h
1880 15-11-2013 22:00:00 1.91667 C 5.18 g/m*3 1.92 C 0.66667 km/h
1881 15-11-2013 23:00:00 1.74167 C 5.16 g/m*3 1.74 C 0.66667 km/h
1882 16-11-2013 00:00:00 2.10833 C 5.32 g/m*3 2.11 C 0 km/h
1883 16-11-2013 01:00:00 2.44167 C 5.44 g/m*3 2.44 C 0.13333 km/h
1884 16-11-2013 02:00:00 2.85 C 5.5 g/m*3 2.85 C 0 km/h
1885 16-11-2013 03:00:00 3.06667 C 5.55 g/m*3 3.07 C 0 km/h
1886 16-11-2013 04:00:00 3.1 C 5.57 g/m*3 3.1 C 0 km/h
1887 16-11-2013 05:00:00 3.14167 C 5.58 g/m*3 3.14 C 0 km/h
1888 16-11-2013 06:00:00 3.2 C 5.63 g/m*3 3.2 C 0 km/h
1889 16-11-2013 07:00:00 3.30833 C 5.7 g/m*3 3.31 C 0 km/h
1890 16-11-2013 08:00:00 3.64167 C 5.81 g/m*3 3.64 C 0 km/h
1891 16-11-2013 09:00:00 4.25833 C 5.82 g/m*3 4.26 C 3.86667 km/h
1892 16-11-2013 10:00:00 4.7 C 5.75 g/m*3 2.73 C 8.21667 km/h
1893 16-11-2013 11:00:00 4.99167 C 5.78 g/m*3 3.53 C 6.575 km/h
1894 16-11-2013 12:00:00 5.29167 C 5.92 g/m*3 4.29 C 5.34167 km/h
1895 16-11-2013 13:00:00 5.49167 C 5.98 g/m*3 4.24 C 6.15 km/h
1896 16-11-2013 14:00:00 5.375 C 5.91 g/m*3 4.43 C 5.21667 km/h
1897 16-11-2013 15:00:00 4.98333 C 5.8 g/m*3 4.98 C 2.8 km/h
1898 16-11-2013 16:00:00 3.15 C 5.46 g/m*3 3.15 C 0.4 km/h
1899 16-11-2013 17:00:00 2.16667 C 5.25 g/m*3 2.17 C 3.06667 km/h
1900 16-11-2013 18:00:00 1.825 C 5.18 g/m*3 1.83 C 0.8 km/h
Sensor: Nr:Datum:Temp:Abs-Feuchte:Windchill:Wind:
Aussen-T/F 1901 16-11-2013 19:00:00 1.425 C 5.09 g/m*3 1.43 C 0 km/h
1902 16-11-2013 20:00:00 1.175 C 5.04 g/m*3 1.18 C 0 km/h
1903 16-11-2013 21:00:00 0.85 C 4.93 g/m*3 0.85 C 0 km/h
1904 16-11-2013 22:00:00 0.44167 C 4.8 g/m*3 0.44 C 0 km/h
1905 16-11-2013 23:00:00 0.21667 C 4.75 g/m*3 0.22 C 0 km/h
1906 17-11-2013 00:00:00 0.60833 C 4.9 g/m*3 0.61 C 0 km/h
1907 17-11-2013 01:00:00 0.95833 C 5.02 g/m*3 0.96 C 0 km/h
1908 17-11-2013 02:00:00 1.325 C 5.15 g/m*3 1.33 C 0 km/h
1909 17-11-2013 03:00:00 1.65833 C 5.27 g/m*3 1.66 C 0.93333 km/h
1910 17-11-2013 04:00:00 1.7 C 5.28 g/m*3 1.7 C 0.53333 km/h
1911 17-11-2013 05:00:00 1.79167 C 5.31 g/m*3 1.79 C 0 km/h
1912 17-11-2013 06:00:00 2.05833 C 5.41 g/m*3 2.06 C 0.13333 km/h
1913 17-11-2013 07:00:00 2.225 C 5.47 g/m*3 2.23 C 1.73333 km/h
1914 17-11-2013 08:00:00 2.4 C 5.54 g/m*3 2.4 C 1.86667 km/h
1915 17-11-2013 09:00:00 2.525 C 5.54 g/m*3 2.53 C 4.26667 km/h
1916 17-11-2013 10:00:00 2.60833 C 5.47 g/m*3 2.61 C 1.46667 km/h
1917 17-11-2013 11:00:00 3.18333 C 5.62 g/m*3 3.18 C 0 km/h
1918 17-11-2013 12:00:00 3.925 C 5.87 g/m*3 3.93 C 2.53333 km/h
1919 17-11-2013 13:00:00 4.5 C 6.04 g/m*3 3.38 C 5.35 km/h
1920 17-11-2013 14:00:00 4.68333 C 6.07 g/m*3 4.68 C 4.54167 km/h
1921 17-11-2013 15:00:00 4.80833 C 6.1 g/m*3 4.81 C 2 km/h
1922 17-11-2013 16:00:00 4.84167 C 6.14 g/m*3 4.84 C 0.26667 km/h
1923 17-11-2013 17:00:00 4.61667 C 6.14 g/m*3 4.62 C 0 km/h
1924 17-11-2013 18:00:00 4.33333 C 6.07 g/m*3 4.33 C 0 km/h
1925 17-11-2013 19:00:00 4.33333 C 6.09 g/m*3 4.33 C 0 km/h
Sensor: Nr:Datum:Temp:Abs-Feuchte:Windchill:Wind:
Aussen-T/F 1926 17-11-2013 20:00:00 4.40833 C 6.14 g/m*3 4.41 C 0 km/h
1927 17-11-2013 21:00:00 4.55 C 6.2 g/m*3 4.55 C 0 km/h
1928 17-11-2013 22:00:00 4.6 C 6.22 g/m*3 4.6 C 0 km/h
1929 17-11-2013 23:00:00 4.6 C 6.24 g/m*3 4.6 C 0 km/h
1930 18-11-2013 00:00:00 4.66667 C 6.31 g/m*3 4.67 C 0 km/h
1931 18-11-2013 01:00:00 4.83333 C 6.29 g/m*3 4.83 C 1.06667 km/h
1932 18-11-2013 02:00:00 4.81667 C 6.31 g/m*3 4.82 C 0 km/h
1933 18-11-2013 03:00:00 4.73333 C 6.33 g/m*3 4.73 C 0 km/h
1934 18-11-2013 04:00:00 4.7 C 6.37 g/m*3 4.7 C 0.13333 km/h
1935 18-11-2013 05:00:00 4.7 C 6.39 g/m*3 4.7 C 0 km/h
1936 18-11-2013 06:00:00 4.7 C 6.39 g/m*3 4.7 C 0.13333 km/h
1937 18-11-2013 07:00:00 4.76667 C 6.42 g/m*3 4.77 C 0.13333 km/h
1938 18-11-2013 08:00:00 4.8 C 6.45 g/m*3 4.8 C 0 km/h
1939 18-11-2013 09:00:00 4.88571 C 6.47 g/m*3 4.89 C 0 km/h
1940 18-11-2013 10:00:00 5.17 C 6.59 g/m*3 5.17 C 0 km/h
1941 18-11-2013 11:00:00 5.60833 C 6.71 g/m*3 5.61 C 0.4 km/h
1942 18-11-2013 12:00:00 5.975 C 6.78 g/m*3 5.98 C 0.26667 km/h
1943 18-11-2013 13:00:00 6.4 C 6.83 g/m*3 6.4 C 2.93333 km/h
1944 18-11-2013 14:00:00 7.025 C 6.97 g/m*3 6.11 C 5.825 km/h
1945 18-11-2013 15:00:00 6.8 C 7.65 g/m*3 6.8 C 0 km/h
1946 18-11-2013 16:00:00 6.7 C 7.14 g/m*3 6.7 C 0.8 km/h
1947 18-11-2013 17:00:00 6.44167 C 6.57 g/m*3 6.44 C 1.86667 km/h
1948 18-11-2013 18:00:00 6.29167 C 6.59 g/m*3 6.29 C 2.13333 km/h
1949 18-11-2013 19:00:00 5.90833 C 6.66 g/m*3 5.91 C 0 km/h
1950 18-11-2013 20:00:00 5.8 C 6.66 g/m*3 5.8 C 0 km/h
Sensor: Nr:Datum:Temp:Abs-Feuchte:Windchill:Wind:
Aussen-T/F 1951 18-11-2013 21:00:00 5.65833 C 6.7 g/m*3 5.66 C 0.26667 km/h
1952 18-11-2013 22:00:00 5.5 C 6.73 g/m*3 5.5 C 0 km/h
1953 18-11-2013 23:00:00 5.4 C 6.7 g/m*3 5.4 C 0 km/h
1954 19-11-2013 00:00:00 5.44167 C 6.79 g/m*3 5.44 C 0 km/h
1955 19-11-2013 01:00:00 5.49167 C 6.81 g/m*3 5.49 C 0 km/h
1956 19-11-2013 02:00:00 5.425 C 6.78 g/m*3 5.43 C 0 km/h
1957 19-11-2013 03:00:00 5.5 C 6.81 g/m*3 5.5 C 0 km/h
1958 19-11-2013 04:00:00 5.51667 C 6.82 g/m*3 5.52 C 0 km/h
1959 19-11-2013 05:00:00 5.6 C 6.86 g/m*3 5.6 C 0 km/h
1960 19-11-2013 06:00:00 5.6 C 6.86 g/m*3 5.6 C 0 km/h
1961 19-11-2013 07:00:00 5.6 C 6.86 g/m*3 5.6 C 0 km/h
1962 19-11-2013 08:00:00 5.6 C 6.86 g/m*3 5.6 C 0 km/h
1963 19-11-2013 11:00:00 6.9 C 6.49 g/m*3 6.9 C 0 km/h
1964 19-11-2013 12:00:00 7.28333 C 6.52 g/m*3 7.28 C 3.33333 km/h
1965 19-11-2013 13:00:00 7.45 C 6.5 g/m*3 7.45 C 3.33333 km/h
1966 19-11-2013 14:00:00 7.525 C 6.53 g/m*3 7.53 C 0.8 km/h
1967 19-11-2013 15:00:00 7.50833 C 6.55 g/m*3 7.51 C 1.46667 km/h
1968 19-11-2013 16:00:00 6.95 C 6.66 g/m*3 5.31 C 8.475 km/h
1969 19-11-2013 17:00:00 6.26667 C 6.81 g/m*3 6.27 C 1.86667 km/h
1970 19-11-2013 21:00:00 5.8 C 6.95 g/m*3 5.8 C 0 km/h
1971 20-11-2013 04:00:00 6.08 C 6.71 g/m*3 4.38 C 8.08 km/h
1972 20-11-2013 05:00:00 5.83636 C 6.61 g/m*3 4.42 C 6.88182 km/h
1973 20-11-2013 06:00:00 5.3 C 6.34 g/m*3 3.31 C 8.7 km/h
1974 20-11-2013 07:00:00 4.96667 C 6.17 g/m*3 3.27 C 7.36667 km/h
1975 20-11-2013 08:00:00 4.7 C 6.06 g/m*3 3.24 C 6.43333 km/h
Sensor: Nr:Datum:Temp:Abs-Feuchte:Windchill:Wind:
Aussen-T/F 1976 20-11-2013 09:00:00 4.3 C 6.49 g/m*3 4.3 C 3.6 km/h
1977 20-11-2013 10:00:00 4.23333 C 5.88 g/m*3 2.69 C 6.45 km/h
1978 20-11-2013 11:00:00 4.34 C 5.92 g/m*3 3.04 C 5.78 km/h
1979 20-11-2013 17:00:00 3.525 C 5.73 g/m*3 3.53 C 1.33333 km/h
1980 20-11-2013 18:00:00 2.96667 C 5.55 g/m*3 2.97 C 1.86667 km/h
1981 20-11-2013 19:00:00 3.11667 C 5.57 g/m*3 3.12 C 1.6 km/h
1982 20-11-2013 20:00:00 3.125 C 5.48 g/m*3 3.13 C 0.93333 km/h
1983 20-11-2013 21:00:00 3.125 C 5.44 g/m*3 3.13 C 0.8 km/h
1984 20-11-2013 22:00:00 3.16667 C 5.44 g/m*3 3.17 C 0.4 km/h
1985 20-11-2013 23:00:00 3.26667 C 5.4 g/m*3 3.27 C 1.46667 km/h
1986 21-11-2013 00:00:00 3.2 C 5.41 g/m*3 3.2 C 0 km/h
1987 21-11-2013 01:00:00 3.28333 C 5.35 g/m*3 3.28 C 3.06667 km/h
1988 21-11-2013 02:00:00 3.03333 C 5.33 g/m*3 3.03 C 3.6 km/h
1989 21-11-2013 03:00:00 3.23333 C 5.1 g/m*3 1.83 C 5.625 km/h
1990 21-11-2013 04:00:00 3.275 C 5.17 g/m*3 1.98 C 5.35 km/h
1991 21-11-2013 05:00:00 3.13333 C 5.29 g/m*3 3.13 C 0.66667 km/h
1992 21-11-2013 06:00:00 2.8 C 5.36 g/m*3 2.8 C 0 km/h
1993 21-11-2013 07:00:00 3.05 C 5.5 g/m*3 3.05 C 0 km/h
1994 21-11-2013 08:00:00 3.325 C 5.62 g/m*3 3.33 C 0 km/h
1995 21-11-2013 09:00:00 3.75 C 5.8 g/m*3 3.75 C 0.13333 km/h
1996 21-11-2013 10:00:00 4.4 C 5.93 g/m*3 4.4 C 0 km/h
1997 21-11-2013 11:00:00 5.01667 C 6.13 g/m*3 5.02 C 1.875 km/h
1998 21-11-2013 12:00:00 5.75 C 6.3 g/m*3 5.75 C 3.33333 km/h
1999 21-11-2013 13:00:00 5.34167 C 6.34 g/m*3 5.34 C 3.475 km/h
2000 21-11-2013 14:00:00 5.19167 C 6.39 g/m*3 5.19 C 0.66667 km/h
Sensor: Nr:Datum:Temp:Abs-Feuchte:Windchill:Wind:
Aussen-T/F 2001 21-11-2013 15:00:00 5.16667 C 6.39 g/m*3 5.17 C 2.68333 km/h
2002 21-11-2013 16:00:00 5.13333 C 6.18 g/m*3 3.77 C 6.31667 km/h
2003 21-11-2013 17:00:00 4.875 C 5.91 g/m*3 3.81 C 5.35833 km/h
2004 21-11-2013 18:00:00 4.68889 C 5.66 g/m*3 2.85 C 7.7 km/h
2005 21-11-2013 19:00:00 4.3 C 5.51 g/m*3 2.15 C 8.61111 km/h
2006 21-11-2013 21:00:00 3.9 C 5.56 g/m*3 2.6 C 5.6 km/h
2007 22-11-2013 04:00:00 3.7 C 5.42 g/m*3 2.09 C 6.4 km/h
2008 22-11-2013 05:00:00 3.7 C 5.42 g/m*3 1.4 C 8.78889 km/h
2009 22-11-2013 07:00:00 3.9 C 5.48 g/m*3 1.76 C 8.3 km/h
2010 22-11-2013 08:00:00 3.99167 C 5.49 g/m*3 2.16 C 7.26667 km/h
2011 22-11-2013 09:00:00 4.05833 C 5.54 g/m*3 1.77 C 9.01667 km/h
2012 22-11-2013 10:00:00 4.20833 C 5.6 g/m*3 2.26 C 7.78333 km/h
2013 22-11-2013 11:00:00 4.40833 C 5.63 g/m*3 2.42 C 8.06667 km/h
2014 22-11-2013 12:00:00 4.775 C 5.75 g/m*3 2.65 C 8.88333 km/h
2015 22-11-2013 13:00:00 4.95 C 5.81 g/m*3 2.36 C 11.16667 km/h
2016 22-11-2013 14:00:00 4.99167 C 5.89 g/m*3 2.97 C 8.6 km/h
2017 22-11-2013 15:00:00 5.03333 C 5.97 g/m*3 3.36 C 7.32222 km/h
2018 23-11-2013 08:00:00 5.2 C 6.27 g/m*3 5.2 C 3.73333 km/h
2019 23-11-2013 11:00:00 6.77778 C 6.7 g/m*3 5.48 C 6.97778 km/h
2020 23-11-2013 12:00:00 7.35 C 6.84 g/m*3 5.61 C 9.275 km/h
2021 23-11-2013 13:00:00 7.7 C 6.57 g/m*3 5.45 C 12.5 km/h
2022 23-11-2013 14:00:00 7.7 C 6.53 g/m*3 5.74 C 10.75833 km/h
2023 23-11-2013 15:00:00 7.55833 C 6.55 g/m*3 5.83 C 9.41667 km/h
2024 23-11-2013 16:00:00 7.225 C 6.73 g/m*3 5.58 C 8.75 km/h
2025 23-11-2013 17:00:00 6.93333 C 6.8 g/m*3 5.56 C 7.375 km/h
Sensor: Nr:Datum:Temp:Abs-Feuchte:Windchill:Wind:
Aussen-T/F 2026 23-11-2013 18:00:00 6.81667 C 6.83 g/m*3 5.68 C 6.43333 km/h
2027 23-11-2013 19:00:00 6.725 C 6.85 g/m*3 5.5 C 6.7 km/h
2028 23-11-2013 20:00:00 6.71667 C 6.85 g/m*3 5.27 C 7.51667 km/h
2029 23-11-2013 21:00:00 6.8 C 6.86 g/m*3 5.4 C 7.375 km/h
2030 23-11-2013 22:00:00 6.8 C 6.88 g/m*3 5.7 C 6.3 km/h
2031 23-11-2013 23:00:00 6.8 C 6.88 g/m*3 6.8 C 2.80833 km/h
2032 24-11-2013 00:00:00 6.8 C 6.88 g/m*3 6.8 C 4.4 km/h
2033 24-11-2013 01:00:00 6.8 C 6.86 g/m*3 6.8 C 3.61667 km/h
2034 24-11-2013 02:00:00 6.71667 C 6.76 g/m*3 5.91 C 5.35 km/h
2035 24-11-2013 03:00:00 6.58333 C 6.6 g/m*3 5.53 C 6.03333 km/h
2036 24-11-2013 04:00:00 6.325 C 6.49 g/m*3 4.92 C 7.1 km/h
2037 24-11-2013 05:00:00 5.68333 C 6.4 g/m*3 4.03 C 7.65833 km/h
2038 24-11-2013 06:00:00 5.29167 C 6.3 g/m*3 3.8 C 6.84167 km/h
2039 24-11-2013 07:00:00 5.04167 C 6.15 g/m*3 5.04 C 4.80833 km/h
2040 24-11-2013 08:00:00 4.7 C 6 g/m*3 4.7 C 3.2 km/h
2041 24-11-2013 09:00:00 4.4 C 5.8 g/m*3 4.4 C 2.66667 km/h
2042 24-11-2013 10:00:00 5.375 C 5.96 g/m*3 5.38 C 2.93333 km/h
2043 24-11-2013 11:00:00 5.55 C 6.07 g/m*3 3.77 C 8.05833 km/h
2044 24-11-2013 12:00:00 4.94167 C 6.1 g/m*3 3.09 C 7.925 km/h
2045 24-11-2013 13:00:00 5.18333 C 6.26 g/m*3 4.02 C 5.75 km/h
2046 24-11-2013 14:00:00 5.4 C 6.35 g/m*3 4.41 C 5.33333 km/h
2047 24-11-2013 15:00:00 5.56667 C 6.49 g/m*3 4.28 C 6.3 km/h
2048 24-11-2013 16:00:00 5.8 C 6.6 g/m*3 5.8 C 4.40833 km/h
2049 24-11-2013 17:00:00 6.10833 C 6.5 g/m*3 4.74 C 6.85 km/h
2050 24-11-2013 18:00:00 6.12 C 5.99 g/m*3 3.96 C 10.17 km/h
Sensor: Nr:Datum:Temp:Abs-Feuchte:Windchill:Wind:
Aussen-T/F 2051 24-11-2013 19:00:00 5.6 C 4.97 g/m*3 5.6 C 4.8 km/h
2052 24-11-2013 20:00:00 5.5 C 4.92 g/m*3 5.5 C 1.6 km/h
2053 25-11-2013 09:00:00 0.53333 C 4.91 g/m*3 -1.77 C 6.96667 km/h
2054 25-11-2013 10:00:00 0.91667 C 4.76 g/m*3 -1.09 C 6.30833 km/h
2055 25-11-2013 11:00:00 1.41667 C 4.84 g/m*3 -0.88 C 7.375 km/h
2056 25-11-2013 12:00:00 2.10833 C 5.05 g/m*3 0.39 C 6.025 km/h
2057 25-11-2013 13:00:00 2.51667 C 5.23 g/m*3 2.52 C 4.55 km/h
2058 25-11-2013 14:00:00 2.93333 C 5.42 g/m*3 2.93 C 2.4 km/h
2059 25-11-2013 15:00:00 3.15 C 5.62 g/m*3 3.15 C 2.66667 km/h
2060 25-11-2013 16:00:00 3.625 C 5.87 g/m*3 3.63 C 1.33333 km/h
2061 25-11-2013 17:00:00 4.1 C 6.08 g/m*3 4.1 C 1.33333 km/h
2062 25-11-2013 18:00:00 4.075 C 6.1 g/m*3 4.08 C 1.74167 km/h
2063 25-11-2013 19:00:00 3.54167 C 5.86 g/m*3 3.54 C 0.53333 km/h
2064 25-11-2013 20:00:00 3.46667 C 5.88 g/m*3 3.47 C 3.35 km/h
2065 25-11-2013 21:00:00 3.1 C 5.59 g/m*3 1.74 C 5.475 km/h
2066 25-11-2013 22:00:00 2.15 C 5.17 g/m*3 2.15 C 2.66667 km/h
2067 25-11-2013 23:00:00 0.59167 C 4.78 g/m*3 0.59 C 4 km/h
2068 26-11-2013 00:00:00 0.51667 C 4.79 g/m*3 0.52 C 1.86667 km/h
2069 26-11-2013 01:00:00 0.25 C 4.7 g/m*3 0.25 C 2.8 km/h
2070 26-11-2013 02:00:00 -0.04167 C 4.64 g/m*3 -0.04 C 2.26667 km/h
2071 26-11-2013 03:00:00 -0.14167 C 4.59 g/m*3 -0.14 C 2.8 km/h
2072 26-11-2013 04:00:00 -0.48333 C 4.49 g/m*3 -0.48 C 1.6 km/h
2073 26-11-2013 05:00:00 -0.7 C 4.43 g/m*3 -0.7 C 0.66667 km/h
2074 26-11-2013 06:00:00 -0.475 C 4.51 g/m*3 -0.48 C 1.6 km/h
2075 26-11-2013 07:00:00 0.01667 C 4.66 g/m*3 0.02 C 1.46667 km/h
Sensor: Nr:Datum:Temp:Abs-Feuchte:Windchill:Wind:
Aussen-T/F 2076 26-11-2013 08:00:00 0.15833 C 4.67 g/m*3 0.16 C 3.73333 km/h
2077 26-11-2013 09:00:00 0.25 C 4.68 g/m*3 0.25 C 3.61667 km/h
2078 26-11-2013 10:00:00 0.40833 C 4.71 g/m*3 0.41 C 1.86667 km/h
2079 26-11-2013 11:00:00 0.88333 C 4.84 g/m*3 0.88 C 2.93333 km/h
2080 26-11-2013 12:00:00 1.30833 C 4.93 g/m*3 1.31 C 2.8 km/h
2081 26-11-2013 13:00:00 1.59167 C 4.98 g/m*3 1.59 C 3.2 km/h
2082 26-11-2013 14:00:00 1.45833 C 4.91 g/m*3 1.46 C 1.73333 km/h
2083 26-11-2013 15:00:00 1.36667 C 4.89 g/m*3 1.37 C 1.2 km/h
2084 26-11-2013 16:00:00 1.125 C 4.85 g/m*3 1.13 C 1.33333 km/h
2085 26-11-2013 17:00:00 0.875 C 4.82 g/m*3 0.88 C 0.53333 km/h
2086 26-11-2013 18:00:00 0.8 C 4.81 g/m*3 0.8 C 0.4 km/h
2087 26-11-2013 19:00:00 0.875 C 4.84 g/m*3 0.88 C 0.8 km/h
2088 26-11-2013 20:00:00 0.78333 C 4.85 g/m*3 0.78 C 3.6 km/h
2089 26-11-2013 21:00:00 0.63333 C 4.81 g/m*3 0.63 C 1.86667 km/h
2090 26-11-2013 22:00:00 0.6 C 4.83 g/m*3 0.6 C 1.06667 km/h
2091 26-11-2013 23:00:00 0.69167 C 4.88 g/m*3 0.69 C 0.93333 km/h
2092 27-11-2013 00:00:00 0.7 C 4.88 g/m*3 0.7 C 1.6 km/h
2093 27-11-2013 01:00:00 0.7 C 4.87 g/m*3 0.7 C 0.8 km/h
2094 27-11-2013 02:00:00 0.61667 C 4.79 g/m*3 0.62 C 3.46667 km/h
2095 27-11-2013 03:00:00 0.55833 C 4.73 g/m*3 0.56 C 2 km/h
2096 27-11-2013 04:00:00 0.40833 C 4.67 g/m*3 0.41 C 1.06667 km/h
2097 27-11-2013 05:00:00 0.26667 C 4.57 g/m*3 0.27 C 3.33333 km/h
2098 27-11-2013 06:00:00 0.09167 C 4.47 g/m*3 0.09 C 3.33333 km/h
2099 27-11-2013 07:00:00 -0.11667 C 4.4 g/m*3 -0.12 C 4.81667 km/h
2100 27-11-2013 08:00:00 -0.2 C 4.38 g/m*3 -1.85 C 5.075 km/h
Sensor: Nr:Datum:Temp:Abs-Feuchte:Windchill:Wind:
Aussen-T/F 2101 27-11-2013 09:00:00 -0.08333 C 4.4 g/m*3 -0.08 C 4.53333 km/h
2102 27-11-2013 10:00:00 0.09167 C 4.45 g/m*3 -1.98 C 6.15833 km/h
2103 27-11-2013 11:00:00 0.14167 C 4.42 g/m*3 -1.92 C 6.15 km/h
2104 27-11-2013 12:00:00 0.68333 C 4.55 g/m*3 0.68 C 3.46667 km/h
2105 27-11-2013 13:00:00 1.14167 C 4.64 g/m*3 1.14 C 1.06667 km/h
2106 27-11-2013 14:00:00 1.63333 C 4.8 g/m*3 1.63 C 1.86667 km/h
2107 27-11-2013 15:00:00 1.375 C 4.79 g/m*3 1.38 C 0.4 km/h
2108 27-11-2013 16:00:00 0.71667 C 4.72 g/m*3 0.72 C 0 km/h
2109 27-11-2013 17:00:00 0.53333 C 4.72 g/m*3 0.53 C 0.13333 km/h
2110 27-11-2013 18:00:00 0.75833 C 4.8 g/m*3 0.76 C 0 km/h
2111 27-11-2013 19:00:00 1.03333 C 4.87 g/m*3 1.03 C 0 km/h
2112 27-11-2013 20:00:00 0.70833 C 4.76 g/m*3 0.71 C 0.13333 km/h
2113 27-11-2013 21:00:00 0.875 C 4.84 g/m*3 0.88 C 0 km/h
2114 27-11-2013 22:00:00 1.21667 C 4.95 g/m*3 1.22 C 0 km/h
2115 27-11-2013 23:00:00 1.475 C 5.01 g/m*3 1.48 C 0 km/h
2116 28-11-2013 00:00:00 1.64167 C 5.04 g/m*3 1.64 C 0 km/h
2117 28-11-2013 01:00:00 1.975 C 5.08 g/m*3 1.98 C 1.46667 km/h
2118 28-11-2013 02:00:00 2.375 C 5.03 g/m*3 0.9 C 5.5 km/h
2119 28-11-2013 03:00:00 2.5 C 5.14 g/m*3 2.5 C 2.26667 km/h
2120 28-11-2013 04:00:00 2.53333 C 5.21 g/m*3 2.53 C 1.46667 km/h
2121 28-11-2013 05:00:00 2.64167 C 5.27 g/m*3 2.64 C 0.53333 km/h
2122 28-11-2013 06:00:00 2.68333 C 5.34 g/m*3 2.68 C 2.14167 km/h
2123 28-11-2013 07:00:00 2.6 C 5.46 g/m*3 2.6 C 1.46667 km/h
2124 28-11-2013 08:00:00 2.5 C 5.5 g/m*3 2.5 C 2.26667 km/h
2125 28-11-2013 09:00:00 2.60833 C 5.56 g/m*3 2.61 C 2.93333 km/h
Sensor: Nr:Datum:Temp:Abs-Feuchte:Windchill:Wind:
Aussen-T/F 2126 28-11-2013 10:00:00 2.95833 C 5.71 g/m*3 2.96 C 4.14167 km/h
2127 28-11-2013 11:00:00 3.44167 C 5.88 g/m*3 3.44 C 4.8 km/h
2128 28-11-2013 12:00:00 3.93333 C 6.08 g/m*3 2.79 C 5.20833 km/h
2129 28-11-2013 13:00:00 4.10833 C 6.15 g/m*3 4.11 C 4.28333 km/h
2130 28-11-2013 14:00:00 4.275 C 6.22 g/m*3 4.28 C 4.4 km/h
2131 28-11-2013 15:00:00 4.375 C 6.27 g/m*3 4.38 C 2.8 km/h
2132 28-11-2013 16:00:00 4.45833 C 6.29 g/m*3 4.46 C 2 km/h
2133 28-11-2013 17:00:00 4.6 C 6.35 g/m*3 4.6 C 3.75 km/h
2134 28-11-2013 18:00:00 4.7 C 6.39 g/m*3 3.55 C 5.51429 km/h
2135 28-11-2013 19:00:00 4.74 C 6.41 g/m*3 4.74 C 4.48 km/h
2136 28-11-2013 20:00:00 4.8 C 6.44 g/m*3 4.8 C 3.86667 km/h
2137 28-11-2013 21:00:00 4.81667 C 6.44 g/m*3 4.82 C 2.13333 km/h
2138 28-11-2013 22:00:00 4.8 C 6.44 g/m*3 4.8 C 1.86667 km/h
2139 28-11-2013 23:00:00 4.78333 C 6.43 g/m*3 4.78 C 3.75833 km/h
2140 29-11-2013 00:00:00 4.8 C 6.44 g/m*3 4.8 C 3.33333 km/h
2141 29-11-2013 01:00:00 4.825 C 6.45 g/m*3 4.83 C 1.6 km/h
2142 29-11-2013 02:00:00 4.78333 C 6.43 g/m*3 4.78 C 2.4 km/h
2143 29-11-2013 03:00:00 4.7 C 6.39 g/m*3 4.7 C 3.74167 km/h
2144 29-11-2013 04:00:00 4.68333 C 6.4 g/m*3 4.68 C 2.93333 km/h
2145 29-11-2013 05:00:00 4.6 C 6.35 g/m*3 4.6 C 3.60833 km/h
2146 29-11-2013 06:00:00 4.64167 C 6.37 g/m*3 4.64 C 2.4 km/h
2147 29-11-2013 07:00:00 4.7 C 6.37 g/m*3 4.7 C 3.06667 km/h
2148 29-11-2013 08:00:00 4.76667 C 6.33 g/m*3 4.77 C 1.2 km/h
2149 29-11-2013 09:00:00 4.93333 C 6.33 g/m*3 4.93 C 4.00833 km/h
2150 29-11-2013 10:00:00 5.29167 C 6.36 g/m*3 5.29 C 3.73333 km/h
Sensor: Nr:Datum:Temp:Abs-Feuchte:Windchill:Wind:
Aussen-T/F 2151 29-11-2013 11:00:00 5.93333 C 6.41 g/m*3 4.02 C 8.88333 km/h
2152 29-11-2013 12:00:00 6.64167 C 6.51 g/m*3 4.6 C 10.08333 km/h
2153 29-11-2013 13:00:00 6.68333 C 6.51 g/m*3 4.47 C 11.01667 km/h
2154 29-11-2013 14:00:00 6.5 C 6.61 g/m*3 4.82 C 8.33333 km/h
2155 29-11-2013 15:00:00 6.76667 C 6.73 g/m*3 5.26 C 7.78333 km/h
2156 29-11-2013 16:00:00 6.90833 C 6.84 g/m*3 4.62 C 11.7 km/h
2157 29-11-2013 17:00:00 6.875 C 6.89 g/m*3 4.27 C 13.56667 km/h
2158 29-11-2013 18:00:00 7.21667 C 6.99 g/m*3 4.55 C 14.5 km/h
2159 29-11-2013 19:00:00 7.125 C 7.06 g/m*3 4.77 C 12.36667 km/h
2160 29-11-2013 20:00:00 6.3 C 6.53 g/m*3 3.99 C 11.14167 km/h
2161 29-11-2013 21:00:00 5.9 C 6.39 g/m*3 4.28 C 7.64167 km/h
2162 29-11-2013 22:00:00 5.35 C 6.14 g/m*3 5.35 C 4.68333 km/h
2163 29-11-2013 23:00:00 4.51667 C 5.96 g/m*3 4.52 C 4.13333 km/h
2164 30-11-2013 00:00:00 4.35 C 5.88 g/m*3 4.35 C 3.20833 km/h
2165 30-11-2013 01:00:00 3.65833 C 5.7 g/m*3 3.66 C 4.26667 km/h
2166 30-11-2013 02:00:00 3.80833 C 5.73 g/m*3 3.81 C 3.86667 km/h
2167 30-11-2013 03:00:00 3.36667 C 5.52 g/m*3 3.37 C 3.2 km/h
2168 30-11-2013 04:00:00 2.90833 C 5.45 g/m*3 2.91 C 2.93333 km/h
2169 30-11-2013 05:00:00 2.90833 C 5.45 g/m*3 2.91 C 4.675 km/h
2170 30-11-2013 06:00:00 3.30833 C 5.52 g/m*3 3.31 C 3.73333 km/h
2171 30-11-2013 07:00:00 3.45833 C 5.65 g/m*3 3.46 C 4.40833 km/h
2172 30-11-2013 08:00:00 3.36667 C 5.72 g/m*3 3.37 C 3.73333 km/h
2173 30-11-2013 09:00:00 3.68333 C 5.88 g/m*3 3.68 C 3.2 km/h
2174 30-11-2013 10:00:00 4.1 C 6.01 g/m*3 4.1 C 2.93333 km/h
2175 30-11-2013 11:00:00 4.73333 C 6.21 g/m*3 4.73 C 1.86667 km/h
Sensor: Nr:Datum:Temp:Abs-Feuchte:Windchill:Wind:
Aussen-T/F 2176 30-11-2013 12:00:00 5.24167 C 6.38 g/m*3 5.24 C 3.33333 km/h
2177 30-11-2013 13:00:00 5.61667 C 6.56 g/m*3 5.62 C 2 km/h
2178 30-11-2013 14:00:00 5.83333 C 6.79 g/m*3 5.83 C 0.93333 km/h
2179 30-11-2013 15:00:00 6.125 C 6.98 g/m*3 6.13 C 0.66667 km/h
2180 30-11-2013 16:00:00 5.90833 C 6.93 g/m*3 5.91 C 1.46667 km/h
2181 30-11-2013 17:00:00 5.69167 C 6.83 g/m*3 5.69 C 0.8 km/h
2182 30-11-2013 18:00:00 5.43333 C 6.71 g/m*3 5.43 C 1.46667 km/h
2183 30-11-2013 19:00:00 5.25 C 6.63 g/m*3 5.25 C 2.13333 km/h
2184 30-11-2013 20:00:00 4.29167 C 6.18 g/m*3 4.29 C 2.13333 km/h
2185 30-11-2013 21:00:00 3.48333 C 5.9 g/m*3 3.48 C 0.26667 km/h
2186 30-11-2013 22:00:00 3.55 C 5.98 g/m*3 3.55 C 0 km/h
2187 30-11-2013 23:00:00 3.75 C 6.06 g/m*3 3.75 C 0.4 km/h
2188 01-12-2013 00:00:00 3.775 C 6.08 g/m*3 3.78 C 2.275 km/h
2189 01-12-2013 01:00:00 4.01667 C 6.17 g/m*3 4.02 C 2.13333 km/h
2190 01-12-2013 02:00:00 3.94167 C 6.08 g/m*3 3.94 C 1.73333 km/h
2191 01-12-2013 03:00:00 3.96667 C 6.12 g/m*3 3.97 C 0.66667 km/h
2192 01-12-2013 04:00:00 3.76667 C 6.05 g/m*3 3.77 C 0.93333 km/h
2193 01-12-2013 05:00:00 4.05 C 6.19 g/m*3 4.05 C 1.33333 km/h
2194 01-12-2013 06:00:00 4.18333 C 6.19 g/m*3 4.18 C 3.60833 km/h
2195 01-12-2013 07:00:00 4.28182 C 6.2 g/m*3 4.28 C 2.91818 km/h
2196 01-12-2013 08:00:00 4.4 C 6.2 g/m*3 4.4 C 1.06667 km/h
2197 01-12-2013 09:00:00 4.48333 C 6.24 g/m*3 4.48 C 4.26667 km/h
2198 01-12-2013 10:00:00 4.74167 C 6.35 g/m*3 4.74 C 2 km/h
2199 01-12-2013 11:00:00 5.49167 C 6.6 g/m*3 5.49 C 2.13333 km/h
2200 01-12-2013 12:00:00 6.09167 C 6.77 g/m*3 6.09 C 2.53333 km/h
Sensor: Nr:Datum:Temp:Abs-Feuchte:Windchill:Wind:
Aussen-T/F 2201 01-12-2013 13:00:00 6.65 C 6.89 g/m*3 6.65 C 2.13333 km/h
2202 01-12-2013 14:00:00 6.99167 C 6.94 g/m*3 6.99 C 1.6 km/h
2203 01-12-2013 15:00:00 7 C 6.85 g/m*3 7 C 0.53333 km/h
2204 01-12-2013 16:00:00 5.88333 C 6.6 g/m*3 5.88 C 1.6 km/h
2205 01-12-2013 17:00:00 5.025 C 6.4 g/m*3 5.03 C 1.46667 km/h
2206 01-12-2013 18:00:00 4.75 C 6.35 g/m*3 4.75 C 0.4 km/h
2207 01-12-2013 19:00:00 4.875 C 6.47 g/m*3 4.88 C 0 km/h
2208 01-12-2013 20:00:00 5.24167 C 6.61 g/m*3 5.24 C 0.13333 km/h
2209 01-12-2013 21:00:00 5.41667 C 6.68 g/m*3 5.42 C 0.13333 km/h
2210 01-12-2013 22:00:00 5.5 C 6.74 g/m*3 5.5 C 0.8 km/h
2211 01-12-2013 23:00:00 5.71667 C 6.88 g/m*3 5.72 C 0.26667 km/h
2212 02-12-2013 00:00:00 5.71667 C 6.9 g/m*3 5.72 C 0 km/h
2213 02-12-2013 01:00:00 5.69167 C 6.9 g/m*3 5.69 C 0.26667 km/h
2214 02-12-2013 02:00:00 5.76667 C 6.93 g/m*3 5.77 C 0.66667 km/h
2215 02-12-2013 03:00:00 5.88333 C 6.99 g/m*3 5.88 C 0.13333 km/h
2216 02-12-2013 04:00:00 5.76667 C 6.93 g/m*3 5.77 C 0 km/h
2217 02-12-2013 05:00:00 5.66667 C 6.89 g/m*3 5.67 C 0 km/h
2218 02-12-2013 06:00:00 5.58333 C 6.85 g/m*3 5.58 C 0 km/h
2219 02-12-2013 07:00:00 5.38333 C 6.76 g/m*3 5.38 C 0 km/h
2220 02-12-2013 08:00:00 5.35833 C 6.7 g/m*3 5.36 C 0 km/h
2221 02-12-2013 09:00:00 5.94167 C 6.87 g/m*3 5.94 C 0 km/h
2222 02-12-2013 10:00:00 6.61667 C 6.66 g/m*3 6.62 C 2.80833 km/h
2223 02-12-2013 11:00:00 5.68333 C 6.37 g/m*3 5.68 C 2.8 km/h
2224 02-12-2013 12:00:00 6.43333 C 6.37 g/m*3 6.43 C 3.33333 km/h
2225 02-12-2013 13:00:00 6.74167 C 6.42 g/m*3 5.93 C 5.35833 km/h
Sensor: Nr:Datum:Temp:Abs-Feuchte:Windchill:Wind:
Aussen-T/F 2226 02-12-2013 14:00:00 6.45 C 6.38 g/m*3 6.45 C 2.66667 km/h
2227 02-12-2013 15:00:00 5.90833 C 6.28 g/m*3 5.91 C 3.2 km/h
2228 02-12-2013 16:00:00 4.98333 C 6.07 g/m*3 4.98 C 2.93333 km/h
2229 02-12-2013 17:00:00 4.08333 C 5.79 g/m*3 4.08 C 4 km/h
2230 02-12-2013 18:00:00 3.39167 C 5.62 g/m*3 3.39 C 2.8 km/h
2231 02-12-2013 19:00:00 2.825 C 5.47 g/m*3 2.83 C 1.86667 km/h
2232 02-12-2013 20:00:00 1.96667 C 5.23 g/m*3 1.97 C 0 km/h
2233 02-12-2013 21:00:00 1.33333 C 5.04 g/m*3 1.33 C 0.26667 km/h
2234 02-12-2013 22:00:00 0.76667 C 4.89 g/m*3 0.77 C 0 km/h
2235 02-12-2013 23:00:00 0.40833 C 4.78 g/m*3 0.41 C 0 km/h
2236 03-12-2013 00:00:00 0.05833 C 4.67 g/m*3 0.06 C 0.13333 km/h
2237 03-12-2013 01:00:00 -0.19167 C 4.6 g/m*3 -0.19 C 0 km/h
2238 03-12-2013 02:00:00 -0.3 C 4.6 g/m*3 -0.3 C 0 km/h
2239 03-12-2013 03:00:00 -0.51667 C 4.53 g/m*3 -0.52 C 0.13333 km/h
2240 03-12-2013 04:00:00 -1.11667 C 4.35 g/m*3 -1.12 C 0 km/h
2241 03-12-2013 05:00:00 -1.5 C 4.23 g/m*3 -1.5 C 0 km/h
2242 03-12-2013 06:00:00 -1.73333 C 4.17 g/m*3 -1.73 C 0 km/h
2243 03-12-2013 07:00:00 -2.05833 C 4.07 g/m*3 -2.06 C 0.13333 km/h
2244 03-12-2013 08:00:00 -2.01667 C 4.08 g/m*3 -2.02 C 0.53333 km/h
2245 03-12-2013 09:00:00 -1.85 C 4.13 g/m*3 -1.85 C 0 km/h
2246 03-12-2013 10:00:00 -1.575 C 4.21 g/m*3 -1.58 C 0.26667 km/h
2247 03-12-2013 11:00:00 -1.23333 C 4.33 g/m*3 -1.23 C 0 km/h
2248 03-12-2013 12:00:00 -0.275 C 4.66 g/m*3 -0.28 C 0 km/h
2249 03-12-2013 13:00:00 0.45 C 4.9 g/m*3 0.45 C 0 km/h
2250 03-12-2013 14:00:00 0.88333 C 5.05 g/m*3 0.88 C 0 km/h
Sensor: Nr:Datum:Temp:Abs-Feuchte:Windchill:Wind:
Aussen-T/F 2251 03-12-2013 15:00:00 1.10833 C 5.12 g/m*3 1.11 C 0.26667 km/h
2252 03-12-2013 16:00:00 0.95 C 5.02 g/m*3 0.95 C 0 km/h
2253 03-12-2013 17:00:00 0.4 C 4.83 g/m*3 0.4 C 0.26667 km/h
2254 03-12-2013 18:00:00 0.04167 C 4.71 g/m*3 0.04 C 0 km/h
2255 03-12-2013 19:00:00 -0.35833 C 4.58 g/m*3 -0.36 C 0 km/h
2256 03-12-2013 20:00:00 -0.78333 C 4.45 g/m*3 -0.78 C 0 km/h
2257 03-12-2013 21:00:00 -0.75 C 4.47 g/m*3 -0.75 C 0.13333 km/h
2258 03-12-2013 22:00:00 0.55833 C 4.93 g/m*3 0.56 C 0.26667 km/h
2259 03-12-2013 23:00:00 0.83333 C 5 g/m*3 0.83 C 0.26667 km/h
2260 04-12-2013 00:00:00 1.09167 C 5.07 g/m*3 1.09 C 2.68333 km/h
2261 04-12-2013 01:00:00 1.175 C 5.05 g/m*3 1.18 C 4.80833 km/h
2262 04-12-2013 02:00:00 1.29167 C 5 g/m*3 -1.36 C 8.475 km/h
2263 04-12-2013 03:00:00 1.3 C 4.95 g/m*3 -2.28 C 12.23333 km/h
2264 04-12-2013 04:00:00 1.44167 C 4.97 g/m*3 -1.44 C 9.41667 km/h
2265 04-12-2013 05:00:00 1.65 C 5.05 g/m*3 -0.09 C 5.90833 km/h
2266 04-12-2013 06:00:00 1.75 C 5.13 g/m*3 -0.9 C 8.74167 km/h
2267 04-12-2013 07:00:00 2 C 5.21 g/m*3 -0.78 C 9.43333 km/h
2268 04-12-2013 08:00:00 2.41667 C 5.31 g/m*3 -0.64 C 10.9 km/h
2269 04-12-2013 09:00:00 2.71667 C 5.4 g/m*3 -0.24 C 10.75833 km/h
2270 04-12-2013 10:00:00 2.98333 C 5.51 g/m*3 0.56 C 8.74167 km/h
2271 04-12-2013 11:00:00 3.29167 C 5.58 g/m*3 0.72 C 9.56667 km/h
2272 04-12-2013 12:00:00 3.6 C 5.64 g/m*3 1.47 C 8.075 km/h
2273 04-12-2013 13:00:00 3.99167 C 5.72 g/m*3 2.42 C 6.43333 km/h
2274 04-12-2013 14:00:00 4.48333 C 5.67 g/m*3 2.7 C 7.39167 km/h
2275 04-12-2013 15:00:00 4.81667 C 5.7 g/m*3 2.51 C 9.68333 km/h
Sensor: Nr:Datum:Temp:Abs-Feuchte:Windchill:Wind:
Aussen-T/F 2276 04-12-2013 16:00:00 4.74167 C 5.74 g/m*3 2.93 C 7.64167 km/h
2277 04-12-2013 17:00:00 4.84167 C 5.84 g/m*3 2.6 C 9.40833 km/h
2278 04-12-2013 18:00:00 4.875 C 6 g/m*3 1.97 C 12.76667 km/h
2279 04-12-2013 19:00:00 4.80833 C 6.06 g/m*3 1.93 C 12.5 km/h
2280 04-12-2013 20:00:00 4.9 C 6.15 g/m*3 2.35 C 10.9 km/h
2281 04-12-2013 21:00:00 4.8 C 6.26 g/m*3 2.74 C 8.60833 km/h
2282 04-12-2013 22:00:00 4.76667 C 6.37 g/m*3 3.73 C 5.21667 km/h
2283 04-12-2013 23:00:00 4.96667 C 6.51 g/m*3 4.97 C 3.2 km/h
2284 05-12-2013 00:00:00 4.275 C 6.21 g/m*3 4.28 C 2.53333 km/h
2285 05-12-2013 01:00:00 3.025 C 5.74 g/m*3 3.03 C 2.13333 km/h
2286 05-12-2013 02:00:00 2.44167 C 5.55 g/m*3 2.44 C 1.73333 km/h
2287 05-12-2013 03:00:00 2.275 C 5.49 g/m*3 2.28 C 4.675 km/h
2288 05-12-2013 04:00:00 2.24167 C 5.48 g/m*3 -0.2 C 8.33333 km/h
2289 05-12-2013 05:00:00 2.15833 C 5.45 g/m*3 -0.1 C 7.65833 km/h
2290 05-12-2013 06:00:00 2.4 C 5.53 g/m*3 0.35 C 7.10833 km/h
2291 05-12-2013 07:00:00 2.34444 C 5.45 g/m*3 0.1 C 7.7 km/h
2292 05-12-2013 08:00:00 1.41667 C 5.1 g/m*3 1.42 C 4.81667 km/h
2293 05-12-2013 09:00:00 2.30833 C 5.4 g/m*3 -0.19 C 8.58333 km/h
2294 05-12-2013 10:00:00 3.31667 C 5.61 g/m*3 0.72 C 9.675 km/h
2295 05-12-2013 11:00:00 3.81667 C 5.63 g/m*3 0.51 C 13.7 km/h
2296 05-12-2013 12:00:00 3.925 C 5.42 g/m*3 -0.09 C 18.5 km/h
2297 05-12-2013 13:00:00 4.18333 C 5.33 g/m*3 0.59 C 15.96667 km/h
2298 05-12-2013 14:00:00 4.56667 C 5.33 g/m*3 0.86 C 17.43333 km/h
2299 05-12-2013 15:00:00 5.13333 C 5.24 g/m*3 0.48 C 27.1 km/h
2300 05-12-2013 16:00:00 5.50833 C 5.03 g/m*3 0.81 C 28.83333 km/h
Sensor: Nr:Datum:Temp:Abs-Feuchte:Windchill:Wind:
Aussen-T/F 2301 05-12-2013 17:00:00 5.51111 C 5.26 g/m*3 1.15 C 25.2 km/h
2302 05-12-2013 18:00:00 5.53333 C 5.71 g/m*3 1.07 C 26.41667 km/h
2303 05-12-2013 19:00:00 5.26667 C 5.96 g/m*3 0.73 C 26.29167 km/h
2304 05-12-2013 20:00:00 5.20833 C 6.17 g/m*3 1.21 C 21.03333 km/h
2305 05-12-2013 21:00:00 6.91667 C 6.02 g/m*3 3.4 C 20.79167 km/h
2306 05-12-2013 22:00:00 5.70833 C 5.51 g/m*3 2.33 C 17.04167 km/h
2307 05-12-2013 23:00:00 4.95 C 5.34 g/m*3 1.41 C 16.90833 km/h
2308 06-12-2013 00:00:00 3.075 C 5.34 g/m*3 0.01 C 11.55833 km/h
2309 06-12-2013 01:00:00 3.5 C 5.09 g/m*3 1.07 C 9.13333 km/h
2310 06-12-2013 02:00:00 3.60833 C 4.73 g/m*3 0.92 C 10.35 km/h
2311 06-12-2013 03:00:00 3.55 C 4.71 g/m*3 0.76 C 10.75833 km/h
2312 06-12-2013 04:00:00 4.15833 C 4.78 g/m*3 0.86 C 14.1 km/h
2313 06-12-2013 05:00:00 4.48333 C 4.62 g/m*3 1.04 C 15.44167 km/h
2314 06-12-2013 06:00:00 4.28333 C 4.57 g/m*3 0.78 C 15.56667 km/h
2315 06-12-2013 07:00:00 3.60833 C 4.58 g/m*3 -0.08 C 15.7 km/h
2316 06-12-2013 08:00:00 3.68333 C 4.32 g/m*3 0.56 C 12.5 km/h
2317 06-12-2013 09:00:00 3.85 C 4.33 g/m*3 0.16 C 16.1 km/h
2318 06-12-2013 10:00:00 4.28333 C 4.37 g/m*3 0.32 C 18.775 km/h
2319 06-12-2013 11:00:00 4.54167 C 4.39 g/m*3 0.9 C 16.9 km/h
2320 06-12-2013 12:00:00 4.725 C 4.44 g/m*3 0.93 C 18.36667 km/h
2321 06-12-2013 13:00:00 4.89167 C 4.3 g/m*3 0.9 C 20.23333 km/h
2322 06-12-2013 14:00:00 4.88333 C 4.27 g/m*3 0.97 C 19.575 km/h
2323 06-12-2013 15:00:00 4.6 C 4.32 g/m*3 0.93 C 17.16667 km/h
2324 06-12-2013 16:00:00 4.225 C 4.48 g/m*3 1.03 C 13.56667 km/h
2325 06-12-2013 17:00:00 2.83333 C 5 g/m*3 0.65 C 7.775 km/h
Sensor: Nr:Datum:Temp:Abs-Feuchte:Windchill:Wind:
Aussen-T/F 2326 06-12-2013 18:00:00 2.23333 C 5.07 g/m*3 -0.36 C 8.88333 km/h
2327 06-12-2013 19:00:00 2.4 C 5.05 g/m*3 0.35 C 7.10833 km/h
2328 06-12-2013 20:00:00 2.725 C 5.01 g/m*3 0.23 C 8.85 km/h
2329 06-12-2013 21:00:00 3.225 C 4.85 g/m*3 0.17 C 11.7 km/h
2330 06-12-2013 22:00:00 3.41667 C 4.74 g/m*3 0.6 C 10.75833 km/h
2331 06-12-2013 23:00:00 3.5 C 4.77 g/m*3 0.29 C 12.76667 km/h
2332 07-12-2013 00:00:00 3.325 C 4.74 g/m*3 0.73 C 9.7 km/h
2333 07-12-2013 01:00:00 3.35 C 4.73 g/m*3 0.76 C 9.68333 km/h
2334 07-12-2013 02:00:00 3.06667 C 4.74 g/m*3 1.04 C 7.38333 km/h
2335 07-12-2013 03:00:00 3.1 C 4.78 g/m*3 1.21 C 6.98333 km/h
2336 07-12-2013 04:00:00 3.375 C 4.78 g/m*3 1.33 C 7.65 km/h
2337 07-12-2013 05:00:00 3.34167 C 4.74 g/m*3 1.25 C 7.79167 km/h
2338 07-12-2013 06:00:00 2.90833 C 4.68 g/m*3 0.55 C 8.45833 km/h
2339 07-12-2013 07:00:00 2.74167 C 4.72 g/m*3 0.07 C 9.55833 km/h
2340 07-12-2013 08:00:00 2.8 C 4.87 g/m*3 0.61 C 7.78333 km/h
2341 07-12-2013 09:00:00 2.53333 C 5.17 g/m*3 0.98 C 5.75833 km/h
2342 07-12-2013 10:00:00 2.71667 C 5.41 g/m*3 2.72 C 1.6 km/h
2343 07-12-2013 11:00:00 3.24167 C 5.63 g/m*3 3.24 C 4.83333 km/h
2344 07-12-2013 12:00:00 4.175 C 5.86 g/m*3 1.62 C 10.225 km/h
2345 07-12-2013 13:00:00 4.80833 C 6.05 g/m*3 2.08 C 11.69167 km/h
2346 07-12-2013 14:00:00 5.34167 C 6.22 g/m*3 2.35 C 13.83333 km/h
2347 07-12-2013 15:00:00 5.94167 C 6.37 g/m*3 3.29 C 12.625 km/h
2348 07-12-2013 16:00:00 5.94167 C 6.41 g/m*3 3.36 C 12.225 km/h
2349 07-12-2013 17:00:00 6.00833 C 6.45 g/m*3 3.42 C 12.35833 km/h
2350 07-12-2013 18:00:00 5.98333 C 6.44 g/m*3 3.79 C 10.225 km/h
Sensor: Nr:Datum:Temp:Abs-Feuchte:Windchill:Wind:
Aussen-T/F 2351 07-12-2013 19:00:00 6.13333 C 6.55 g/m*3 4.17 C 9.275 km/h
2352 07-12-2013 20:00:00 6.23333 C 6.55 g/m*3 4.06 C 10.35 km/h
2353 07-12-2013 21:00:00 6.18333 C 6.52 g/m*3 4.2 C 9.40833 km/h
2354 07-12-2013 22:00:00 6.01667 C 6.48 g/m*3 4.06 C 9.14167 km/h
2355 07-12-2013 23:00:00 6.025 C 6.42 g/m*3 4.39 C 7.8 km/h
2356 08-12-2013 00:00:00 5.76667 C 6.29 g/m*3 4.12 C 7.65833 km/h
2357 08-12-2013 01:00:00 5.54167 C 6.29 g/m*3 4.09 C 6.825 km/h
2358 08-12-2013 02:00:00 5.525 C 6.36 g/m*3 4.65 C 5.08333 km/h
2359 08-12-2013 03:00:00 5.65833 C 6.36 g/m*3 4.38 C 6.30833 km/h
2360 08-12-2013 04:00:00 5.69167 C 6.31 g/m*3 5.69 C 3.34167 km/h
2361 08-12-2013 05:00:00 5.63333 C 6.36 g/m*3 4.44 C 6.03333 km/h
2362 08-12-2013 06:00:00 6.05 C 6.49 g/m*3 4.76 C 6.56667 km/h
2363 08-12-2013 07:00:00 6.10833 C 6.52 g/m*3 4.52 C 7.65833 km/h
2364 08-12-2013 08:00:00 6.06667 C 6.62 g/m*3 3.94 C 9.95 km/h
2365 08-12-2013 09:00:00 6.56667 C 6.68 g/m*3 4.35 C 10.9 km/h
2366 08-12-2013 10:00:00 6.73333 C 6.76 g/m*3 4.74 C 9.94167 km/h
2367 08-12-2013 11:00:00 7.68333 C 6.95 g/m*3 5.32 C 13.16667 km/h
2368 08-12-2013 12:00:00 7.90833 C 7.01 g/m*3 5.44 C 14.23333 km/h
2369 08-12-2013 13:00:00 7.71667 C 7.04 g/m*3 5.84 C 10.35 km/h
2370 08-12-2013 14:00:00 7.74167 C 7.05 g/m*3 5.97 C 9.81667 km/h
2371 08-12-2013 15:00:00 8.075 C 6.99 g/m*3 5.95 C 12.21667 km/h
2372 08-12-2013 16:00:00 7.66667 C 6.96 g/m*3 5.36 C 12.76667 km/h
2373 08-12-2013 17:00:00 7.31667 C 6.9 g/m*3 4.75 C 13.96667 km/h
2374 08-12-2013 18:00:00 7.33333 C 6.95 g/m*3 4.83 C 13.56667 km/h
2375 08-12-2013 19:00:00 7.38333 C 6.99 g/m*3 5.44 C 10.34167 km/h
Sensor: Nr:Datum:Temp:Abs-Feuchte:Windchill:Wind:
Aussen-T/F 2376 08-12-2013 20:00:00 7.78333 C 6.98 g/m*3 5.04 C 16.1 km/h
2377 08-12-2013 21:00:00 8.21667 C 6.96 g/m*3 5.3 C 18.36667 km/h
2378 08-12-2013 22:00:00 8.1 C 6.93 g/m*3 5.58 C 14.9 km/h
2379 08-12-2013 23:00:00 7.85833 C 6.97 g/m*3 5.44 C 13.83333 km/h
2380 09-12-2013 00:00:00 7.90833 C 6.97 g/m*3 5.68 C 12.625 km/h
2381 09-12-2013 01:00:00 7.825 C 6.85 g/m*3 5.19 C 15.3 km/h
2382 09-12-2013 02:00:00 7.44167 C 6.63 g/m*3 5.27 C 11.7 km/h
2383 09-12-2013 03:00:00 6.875 C 6.46 g/m*3 4.99 C 9.55 km/h
2384 09-12-2013 04:00:00 6.78333 C 6.3 g/m*3 4.97 C 9.14167 km/h
2385 09-12-2013 05:00:00 6.78333 C 6.19 g/m*3 4.36 C 12.36667 km/h
2386 09-12-2013 06:00:00 6.625 C 6.11 g/m*3 3.91 C 13.96667 km/h
2387 09-12-2013 07:00:00 6.26667 C 6.05 g/m*3 4.51 C 8.475 km/h
2388 09-12-2013 08:00:00 6.55833 C 6.1 g/m*3 4.15 C 11.96667 km/h
2389 09-12-2013 09:00:00 6.91667 C 6.11 g/m*3 4.18 C 14.5 km/h
2390 09-12-2013 10:00:00 7.28333 C 6.19 g/m*3 4.43 C 15.96667 km/h
2391 09-12-2013 11:00:00 7.49167 C 6.33 g/m*3 5.24 C 12.225 km/h
2392 09-12-2013 12:00:00 8.21667 C 6.64 g/m*3 6.9 C 8.05833 km/h
2393 09-12-2013 13:00:00 8.40833 C 6.71 g/m*3 6.89 C 9.15 km/h
2394 09-12-2013 14:00:00 7.95 C 6.56 g/m*3 5.97 C 11.16667 km/h
2395 09-12-2013 15:00:00 7.825 C 6.53 g/m*3 6.18 C 9.26667 km/h
2396 09-12-2013 16:00:00 6.73333 C 6.4 g/m*3 5.98 C 5.2 km/h
2397 09-12-2013 17:00:00 6.23333 C 6.35 g/m*3 5.45 C 5.075 km/h
2398 09-12-2013 18:00:00 6.16667 C 6.34 g/m*3 4.9 C 6.55 km/h
2399 09-12-2013 19:00:00 5.30833 C 6.16 g/m*3 5.31 C 1.6 km/h
2400 09-12-2013 20:00:00 3.975 C 5.9 g/m*3 3.98 C 0.4 km/h
Sensor: Nr:Datum:Temp:Abs-Feuchte:Windchill:Wind:
Aussen-T/F 2401 09-12-2013 21:00:00 3.43333 C 5.75 g/m*3 3.43 C 0.4 km/h
2402 09-12-2013 22:00:00 2.79167 C 5.56 g/m*3 2.79 C 0 km/h
2403 09-12-2013 23:00:00 2.33333 C 5.42 g/m*3 2.33 C 0 km/h
2404 10-12-2013 00:00:00 1.9 C 5.3 g/m*3 1.9 C 0 km/h
2405 10-12-2013 01:00:00 1.625 C 5.2 g/m*3 1.63 C 0.4 km/h
2406 10-12-2013 02:00:00 1.20833 C 5.07 g/m*3 1.21 C 0 km/h
2407 10-12-2013 03:00:00 1.125 C 5.08 g/m*3 1.13 C 0.13333 km/h
2408 10-12-2013 04:00:00 1.43333 C 5.19 g/m*3 1.43 C 0.13333 km/h
2409 10-12-2013 05:00:00 1.59167 C 5.24 g/m*3 1.59 C 0.26667 km/h
2410 10-12-2013 06:00:00 1.66667 C 5.27 g/m*3 1.67 C 0.26667 km/h
2411 10-12-2013 07:00:00 1.725 C 5.29 g/m*3 1.73 C 1.33333 km/h
2412 10-12-2013 08:00:00 1.85 C 5.32 g/m*3 1.85 C 1.2 km/h
2413 10-12-2013 09:00:00 2.25 C 5.42 g/m*3 2.25 C 2.8 km/h
2414 10-12-2013 10:00:00 2.96667 C 5.69 g/m*3 2.97 C 1.6 km/h
2415 10-12-2013 11:00:00 3.54167 C 5.92 g/m*3 3.54 C 2.53333 km/h
2416 10-12-2013 12:00:00 4.35833 C 6.22 g/m*3 4.36 C 4.00833 km/h
2417 10-12-2013 13:00:00 4.925 C 6.37 g/m*3 4.93 C 2.66667 km/h
2418 10-12-2013 14:00:00 5.60833 C 6.57 g/m*3 5.61 C 0.66667 km/h
2419 10-12-2013 15:00:00 5.16667 C 6.4 g/m*3 5.17 C 0.26667 km/h
2420 10-12-2013 16:00:00 4.55 C 6.28 g/m*3 4.55 C 0.13333 km/h
2421 10-12-2013 17:00:00 4.68333 C 6.39 g/m*3 4.68 C 0.13333 km/h
2422 10-12-2013 18:00:00 4.80833 C 6.44 g/m*3 4.81 C 0 km/h
2423 10-12-2013 19:00:00 4.9 C 6.48 g/m*3 4.9 C 0 km/h
2424 10-12-2013 20:00:00 4.85 C 6.46 g/m*3 4.85 C 0 km/h
2425 10-12-2013 21:00:00 4.33333 C 6.24 g/m*3 4.33 C 1.6 km/h
Sensor: Nr:Datum:Temp:Abs-Feuchte:Windchill:Wind:
Aussen-T/F 2426 10-12-2013 22:00:00 3.65 C 5.99 g/m*3 3.65 C 2.93333 km/h
2427 10-12-2013 23:00:00 3.25833 C 5.87 g/m*3 3.26 C 3.2 km/h
2428 11-12-2013 00:00:00 3.03333 C 5.78 g/m*3 3.03 C 2.53333 km/h
2429 11-12-2013 01:00:00 2.79167 C 5.7 g/m*3 2.79 C 3.6 km/h
2430 11-12-2013 02:00:00 2.51667 C 5.62 g/m*3 2.52 C 4.13333 km/h
2431 11-12-2013 03:00:00 2.24167 C 5.53 g/m*3 2.24 C 3.06667 km/h
2432 11-12-2013 04:00:00 2.28333 C 5.55 g/m*3 2.28 C 2.93333 km/h
2433 11-12-2013 05:00:00 2.275 C 5.55 g/m*3 2.28 C 3.46667 km/h
2434 11-12-2013 06:00:00 2.24167 C 5.54 g/m*3 2.24 C 4.95 km/h
2435 11-12-2013 07:00:00 2.29167 C 5.55 g/m*3 2.29 C 4.275 km/h
2436 11-12-2013 08:00:00 2.34167 C 5.57 g/m*3 2.34 C 4.41667 km/h
2437 11-12-2013 09:00:00 2.475 C 5.62 g/m*3 2.48 C 4.66667 km/h
2438 11-12-2013 10:00:00 2.775 C 5.74 g/m*3 2.78 C 4.4 km/h
2439 11-12-2013 11:00:00 3.24167 C 5.87 g/m*3 1.9 C 5.475 km/h
2440 11-12-2013 12:00:00 3.83333 C 6.08 g/m*3 3.83 C 2.8 km/h
2441 11-12-2013 13:00:00 4.375 C 6.26 g/m*3 4.38 C 1.2 km/h
2442 11-12-2013 14:00:00 4.725 C 6.41 g/m*3 4.72 C 0.8 km/h
2443 11-12-2013 15:00:00 4.91667 C 6.48 g/m*3 4.92 C 0.4 km/h
2444 11-12-2013 16:00:00 5.275 C 6.64 g/m*3 5.28 C 0 km/h
2445 11-12-2013 17:00:00 5.44167 C 6.72 g/m*3 5.44 C 0.53333 km/h
2446 11-12-2013 18:00:00 5.41667 C 6.69 g/m*3 5.42 C 0.13333 km/h
2447 11-12-2013 19:00:00 5.29167 C 6.58 g/m*3 5.29 C 1.73333 km/h
2448 11-12-2013 20:00:00 5.14167 C 6.5 g/m*3 5.14 C 1.46667 km/h
2449 11-12-2013 21:00:00 4.99167 C 6.41 g/m*3 4.99 C 2.68333 km/h
2450 11-12-2013 22:00:00 4.81667 C 6.35 g/m*3 4.82 C 2.80833 km/h
Sensor: Nr:Datum:Temp:Abs-Feuchte:Windchill:Wind:
Aussen-T/F 2451 11-12-2013 23:00:00 4.65833 C 6.24 g/m*3 4.66 C 4.15 km/h
2452 12-12-2013 00:00:00 4.45833 C 6.16 g/m*3 4.46 C 1.46667 km/h
2453 12-12-2013 01:00:00 4.325 C 6.11 g/m*3 4.33 C 2.93333 km/h
2454 12-12-2013 02:00:00 4.25833 C 6.08 g/m*3 4.26 C 1.73333 km/h
2455 12-12-2013 03:00:00 4.29167 C 6.12 g/m*3 4.29 C 0.13333 km/h
2456 12-12-2013 04:00:00 4.3 C 6.1 g/m*3 4.3 C 1.73333 km/h
2457 12-12-2013 05:00:00 4.26667 C 6.08 g/m*3 4.27 C 1.20833 km/h
2458 12-12-2013 06:00:00 4.14167 C 6.03 g/m*3 4.14 C 3.075 km/h
2459 12-12-2013 07:00:00 4.025 C 5.93 g/m*3 4.03 C 3.2 km/h
2460 12-12-2013 08:00:00 3.85 C 5.83 g/m*3 3.85 C 2.66667 km/h
2461 12-12-2013 09:00:00 3.91667 C 5.81 g/m*3 3.92 C 4.53333 km/h
2462 12-12-2013 10:00:00 4.11667 C 5.79 g/m*3 4.12 C 3.33333 km/h
2463 12-12-2013 11:00:00 4.26667 C 5.82 g/m*3 4.27 C 4.26667 km/h
2464 12-12-2013 12:00:00 4.6 C 5.95 g/m*3 4.6 C 3.2 km/h
2465 12-12-2013 13:00:00 4.78333 C 5.99 g/m*3 3.66 C 5.475 km/h
2466 12-12-2013 14:00:00 4.99167 C 6.07 g/m*3 4.99 C 2.26667 km/h
2467 12-12-2013 15:00:00 4.74167 C 5.97 g/m*3 4.74 C 3.73333 km/h
2468 12-12-2013 16:00:00 3.84167 C 5.76 g/m*3 3.84 C 4.4 km/h
2469 12-12-2013 17:00:00 3.6 C 5.69 g/m*3 3.6 C 2.8 km/h
2470 12-12-2013 18:00:00 3.6 C 5.69 g/m*3 3.6 C 0.66667 km/h
2471 12-12-2013 19:00:00 3.54167 C 5.67 g/m*3 3.54 C 0.4 km/h
2472 12-12-2013 20:00:00 3.525 C 5.73 g/m*3 3.53 C 0 km/h
2473 12-12-2013 21:00:00 3.60833 C 5.76 g/m*3 3.61 C 0 km/h
2474 12-12-2013 22:00:00 3.6 C 5.76 g/m*3 3.6 C 0 km/h
2475 12-12-2013 23:00:00 3.50833 C 5.67 g/m*3 3.51 C 0.66667 km/h
Sensor: Nr:Datum:Temp:Abs-Feuchte:Windchill:Wind:
Aussen-T/F 2476 13-12-2013 00:00:00 3.325 C 5.5 g/m*3 3.33 C 4.01667 km/h
2477 13-12-2013 01:00:00 2.99167 C 5.34 g/m*3 1.46 C 5.86667 km/h
2478 13-12-2013 02:00:00 2.55 C 5.27 g/m*3 0.66 C 6.70833 km/h
2479 13-12-2013 03:00:00 2.4 C 5.25 g/m*3 0.27 C 7.38333 km/h
2480 13-12-2013 04:00:00 2.4 C 5.25 g/m*3 0.58 C 6.41667 km/h
2481 13-12-2013 05:00:00 2.31667 C 5.21 g/m*3 0.05 C 7.78333 km/h
2482 13-12-2013 06:00:00 2.3 C 5.18 g/m*3 0.07 C 7.65 km/h
2483 13-12-2013 07:00:00 2.11667 C 5.15 g/m*3 -0.39 C 8.48333 km/h
2484 13-12-2013 08:00:00 2.075 C 5.14 g/m*3 0.25 C 6.3 km/h
2485 13-12-2013 09:00:00 2.05 C 5.12 g/m*3 0.59 C 5.35 km/h
2486 13-12-2013 10:00:00 2.275 C 5.16 g/m*3 0.29 C 6.84167 km/h
2487 13-12-2013 11:00:00 2.625 C 5.25 g/m*3 0.44 C 7.66667 km/h
2488 13-12-2013 12:00:00 2.96667 C 5.32 g/m*3 1.29 C 6.28333 km/h
2489 13-12-2013 13:00:00 3.2 C 5.36 g/m*3 1.7 C 5.875 km/h
2490 13-12-2013 14:00:00 3.45 C 5.44 g/m*3 3.45 C 3.2 km/h
2491 13-12-2013 15:00:00 3.38333 C 5.39 g/m*3 3.38 C 4.80833 km/h
2492 13-12-2013 16:00:00 3.11667 C 5.35 g/m*3 3.12 C 2.13333 km/h
2493 13-12-2013 17:00:00 2.83333 C 5.29 g/m*3 2.83 C 1.6 km/h
2494 13-12-2013 18:00:00 2.89167 C 5.36 g/m*3 2.89 C 1.2 km/h
2495 13-12-2013 19:00:00 2.76667 C 5.24 g/m*3 2.77 C 3.46667 km/h
2496 13-12-2013 20:00:00 2.55833 C 5.19 g/m*3 2.56 C 1.46667 km/h
2497 13-12-2013 21:00:00 2.66667 C 5.27 g/m*3 2.67 C 2.8 km/h
2498 13-12-2013 22:00:00 2.425 C 5.18 g/m*3 2.42 C 4.675 km/h
2499 13-12-2013 23:00:00 2.08333 C 5.02 g/m*3 0.67 C 5.24167 km/h
2500 14-12-2013 00:00:00 1.89167 C 4.96 g/m*3 0.09 C 6.16667 km/h
Sensor: Nr:Datum:Temp:Abs-Feuchte:Windchill:Wind:
Aussen-T/F 2501 14-12-2013 01:00:00 1.88333 C 4.96 g/m*3 -0.7 C 8.61667 km/h
2502 14-12-2013 02:00:00 1.625 C 4.93 g/m*3 1.63 C 4.81667 km/h
2503 14-12-2013 03:00:00 1.71667 C 5.01 g/m*3 1.72 C 4.40833 km/h
2504 14-12-2013 04:00:00 1.93333 C 5.09 g/m*3 1.93 C 0.26667 km/h
2505 14-12-2013 05:00:00 2.18333 C 5.23 g/m*3 2.18 C 0 km/h
2506 14-12-2013 06:00:00 2.56667 C 5.37 g/m*3 2.57 C 4.55833 km/h
2507 14-12-2013 07:00:00 3.05833 C 5.6 g/m*3 0.41 C 9.69167 km/h
2508 14-12-2013 08:00:00 3.3 C 5.76 g/m*3 0.97 C 8.6 km/h
2509 14-12-2013 09:00:00 3.43 C 5.81 g/m*3 0.75 C 10.15 km/h
2510 14-12-2013 10:00:00 3.74167 C 5.92 g/m*3 1.2 C 9.81667 km/h
2511 14-12-2013 11:00:00 4.11667 C 6.05 g/m*3 1.78 C 9.25833 km/h
2512 14-12-2013 12:00:00 4.78333 C 6.24 g/m*3 2.35 C 10.21667 km/h
2513 14-12-2013 13:00:00 5.13333 C 6.38 g/m*3 3.21 C 8.33333 km/h
2514 14-12-2013 14:00:00 5.56667 C 6.47 g/m*3 3.49 C 9.28333 km/h
2515 14-12-2013 15:00:00 5.43333 C 6.4 g/m*3 4.04 C 6.56667 km/h
2516 14-12-2013 16:00:00 5.375 C 6.37 g/m*3 3.98 C 6.55833 km/h
2517 14-12-2013 17:00:00 4.76667 C 6.16 g/m*3 3.79 C 5.08333 km/h
2518 14-12-2013 18:00:00 3.075 C 5.7 g/m*3 3.08 C 3.33333 km/h
2519 14-12-2013 19:00:00 3.76667 C 5.96 g/m*3 1.78 C 7.65833 km/h
2520 14-12-2013 20:00:00 3.93333 C 5.89 g/m*3 2.64 C 5.60833 km/h
2521 14-12-2013 21:00:00 3.83333 C 5.83 g/m*3 2.19 C 6.56667 km/h
2522 14-12-2013 22:00:00 4.24167 C 5.9 g/m*3 1.8 C 9.80833 km/h
2523 14-12-2013 23:00:00 4.775 C 6.06 g/m*3 1.66 C 13.825 km/h
2524 15-12-2013 00:00:00 5.04167 C 6.07 g/m*3 3 C 8.71667 km/h
2525 15-12-2013 01:00:00 4.9 C 6.08 g/m*3 3.56 C 6.15 km/h
Sensor: Nr:Datum:Temp:Abs-Feuchte:Windchill:Wind:
Aussen-T/F 2526 15-12-2013 02:00:00 5.04167 C 6.12 g/m*3 4 C 5.35833 km/h
2527 15-12-2013 03:00:00 5.16667 C 6.15 g/m*3 5.17 C 4.825 km/h
2528 15-12-2013 04:00:00 5.075 C 6.1 g/m*3 5.08 C 3.2 km/h
2529 15-12-2013 05:00:00 4.90833 C 6.08 g/m*3 3.2 C 7.375 km/h
2530 15-12-2013 06:00:00 5.55833 C 6 g/m*3 4.11 C 6.83333 km/h
2531 15-12-2013 07:00:00 5.11667 C 5.91 g/m*3 5.12 C 2.80833 km/h
2532 15-12-2013 08:00:00 4.84167 C 5.97 g/m*3 4.84 C 1.06667 km/h
2533 15-12-2013 09:00:00 5.45 C 5.92 g/m*3 3.83 C 7.38333 km/h
2534 15-12-2013 10:00:00 6.65833 C 5.82 g/m*3 4.79 C 9.25833 km/h
2535 15-12-2013 11:00:00 6.95 C 5.82 g/m*3 4.39 C 13.43333 km/h
2536 15-12-2013 12:00:00 7.69167 C 5.87 g/m*3 4.97 C 15.7 km/h
2537 15-12-2013 13:00:00 8.21667 C 5.88 g/m*3 5.73 C 14.9 km/h
2538 15-12-2013 14:00:00 7.91667 C 6.04 g/m*3 6.74 C 7.25833 km/h
2539 15-12-2013 15:00:00 6.39167 C 6.11 g/m*3 6.39 C 3.74167 km/h
2540 15-12-2013 16:00:00 5.075 C 5.93 g/m*3 5.08 C 3.33333 km/h
2541 15-12-2013 17:00:00 4.43333 C 5.76 g/m*3 4.43 C 2.53333 km/h
2542 15-12-2013 18:00:00 4.51667 C 5.91 g/m*3 4.52 C 0.93333 km/h
2543 15-12-2013 19:00:00 3.54167 C 5.58 g/m*3 3.54 C 0.8 km/h
2544 15-12-2013 20:00:00 2.64167 C 5.37 g/m*3 2.64 C 0.26667 km/h
2545 15-12-2013 21:00:00 2.09167 C 5.22 g/m*3 2.09 C 0.26667 km/h
2546 15-12-2013 22:00:00 1.48333 C 5.03 g/m*3 1.48 C 0.53333 km/h
2547 15-12-2013 23:00:00 1.21667 C 4.99 g/m*3 1.22 C 0.13333 km/h
2548 16-12-2013 00:00:00 1.05 C 4.95 g/m*3 1.05 C 0.66667 km/h
2549 16-12-2013 01:00:00 0.78333 C 4.86 g/m*3 0.78 C 0 km/h
2550 16-12-2013 02:00:00 0.475 C 4.76 g/m*3 0.48 C 0.66667 km/h
Sensor: Nr:Datum:Temp:Abs-Feuchte:Windchill:Wind:
Aussen-T/F 2551 16-12-2013 03:00:00 0.325 C 4.71 g/m*3 0.33 C 0.66667 km/h
2552 16-12-2013 04:00:00 -0.03333 C 4.6 g/m*3 -0.03 C 0.13333 km/h
2553 16-12-2013 05:00:00 0.29167 C 4.74 g/m*3 0.29 C 0.26667 km/h
2554 16-12-2013 06:00:00 0 C 4.63 g/m*3 0 C 0.43636 km/h
2555 16-12-2013 07:00:00 -0.3 C 4.56 g/m*3 -0.3 C 0 km/h
2556 16-12-2013 08:00:00 -0.30833 C 4.55 g/m*3 -0.31 C 0.8 km/h
2557 16-12-2013 09:00:00 -0.3 C 4.56 g/m*3 -0.3 C 0.26667 km/h
2558 16-12-2013 10:00:00 0.31667 C 4.75 g/m*3 0.32 C 0.4 km/h
2559 16-12-2013 11:00:00 1.24167 C 5.03 g/m*3 1.24 C 0.13333 km/h
2560 16-12-2013 12:00:00 2.31667 C 5.37 g/m*3 2.32 C 1.46667 km/h
2561 16-12-2013 13:00:00 3.33333 C 5.66 g/m*3 3.33 C 2.8 km/h
2562 16-12-2013 14:00:00 4.175 C 5.92 g/m*3 4.18 C 3.73333 km/h
2563 16-12-2013 15:00:00 4.49167 C 6.02 g/m*3 4.49 C 3.06667 km/h
2564 16-12-2013 16:00:00 4.09167 C 5.84 g/m*3 4.09 C 2.66667 km/h
2565 16-12-2013 17:00:00 3.225 C 5.62 g/m*3 3.23 C 1.6 km/h
2566 16-12-2013 18:00:00 2.575 C 5.4 g/m*3 2.58 C 0.66667 km/h
2567 16-12-2013 19:00:00 2.29167 C 5.38 g/m*3 2.29 C 0.13333 km/h
2568 16-12-2013 20:00:00 1.78333 C 5.19 g/m*3 1.78 C 0.93333 km/h
2569 16-12-2013 21:00:00 1.1 C 4.97 g/m*3 1.1 C 0 km/h
2570 16-12-2013 22:00:00 0.88333 C 4.94 g/m*3 0.88 C 0.8 km/h
2571 16-12-2013 23:00:00 0.64167 C 4.87 g/m*3 0.64 C 0.26667 km/h
2572 17-12-2013 00:00:00 0.15 C 4.7 g/m*3 0.15 C 0.26667 km/h
2573 17-12-2013 01:00:00 -0.175 C 4.62 g/m*3 -0.18 C 0 km/h
2574 17-12-2013 02:00:00 -0.325 C 4.6 g/m*3 -0.33 C 0 km/h
2575 17-12-2013 03:00:00 -0.575 C 4.52 g/m*3 -0.57 C 0 km/h
Sensor: Nr:Datum:Temp:Abs-Feuchte:Windchill:Wind:
Aussen-T/F 2576 17-12-2013 04:00:00 -0.86667 C 4.43 g/m*3 -0.87 C 0.13333 km/h
2577 17-12-2013 05:00:00 -1.175 C 4.33 g/m*3 -1.18 C 0 km/h
2578 17-12-2013 06:00:00 -1.15 C 4.34 g/m*3 -1.15 C 0.66667 km/h
2579 17-12-2013 07:00:00 -1.34167 C 4.28 g/m*3 -1.34 C 0.8 km/h
2580 17-12-2013 08:00:00 -1.5 C 4.23 g/m*3 -1.5 C 0 km/h
2581 17-12-2013 09:00:00 -0.94167 C 4.41 g/m*3 -0.94 C 0.93333 km/h
2582 17-12-2013 10:00:00 -0.50833 C 4.55 g/m*3 -0.51 C 0 km/h
2583 17-12-2013 11:00:00 1.175 C 5.15 g/m*3 1.18 C 1.6 km/h
2584 17-12-2013 12:00:00 3.04167 C 5.84 g/m*3 3.04 C 0.66667 km/h
2585 17-12-2013 13:00:00 4.44167 C 6.26 g/m*3 4.44 C 2.8 km/h
2586 17-12-2013 14:00:00 5.31667 C 6.34 g/m*3 5.32 C 2.93333 km/h
2587 17-12-2013 15:00:00 5.86667 C 6.4 g/m*3 5.87 C 4.53333 km/h
2588 17-12-2013 16:00:00 5.10833 C 6.07 g/m*3 5.11 C 2.66667 km/h
2589 17-12-2013 17:00:00 3.84167 C 5.8 g/m*3 3.84 C 1.06667 km/h
2590 17-12-2013 18:00:00 3.00833 C 5.54 g/m*3 3.01 C 0.4 km/h
2591 17-12-2013 19:00:00 2.35833 C 5.37 g/m*3 2.36 C 0 km/h
2592 17-12-2013 20:00:00 1.66667 C 5.15 g/m*3 1.67 C 0.26667 km/h
2593 17-12-2013 21:00:00 1.08333 C 5 g/m*3 1.08 C 0 km/h
2594 17-12-2013 22:00:00 0.99167 C 4.99 g/m*3 0.99 C 0.53333 km/h
2595 17-12-2013 23:00:00 0.61667 C 4.87 g/m*3 0.62 C 0 km/h
2596 18-12-2013 00:00:00 0.35833 C 4.82 g/m*3 0.36 C 0.13333 km/h
2597 18-12-2013 01:00:00 0.4 C 4.83 g/m*3 0.4 C 0 km/h
2598 18-12-2013 02:00:00 0.75833 C 4.95 g/m*3 0.76 C 0.26667 km/h
2599 18-12-2013 03:00:00 1.04167 C 5.05 g/m*3 1.04 C 0.13333 km/h
2600 18-12-2013 04:00:00 1.2 C 5.1 g/m*3 1.2 C 0 km/h
Sensor: Nr:Datum:Temp:Abs-Feuchte:Windchill:Wind:
Aussen-T/F 2601 18-12-2013 05:00:00 1.49167 C 5.22 g/m*3 1.49 C 0.13333 km/h
2602 18-12-2013 06:00:00 1.70833 C 5.29 g/m*3 1.71 C 0.93333 km/h
2603 18-12-2013 07:00:00 1.775 C 5.31 g/m*3 1.78 C 1.06667 km/h
2604 18-12-2013 08:00:00 1.93333 C 5.37 g/m*3 1.93 C 0.93333 km/h
2605 18-12-2013 09:00:00 2.66667 C 5.64 g/m*3 2.67 C 2 km/h
2606 18-12-2013 10:00:00 3.29167 C 5.83 g/m*3 3.29 C 2.4 km/h
2607 18-12-2013 11:00:00 3.98333 C 6.01 g/m*3 3.98 C 1.86667 km/h
2608 18-12-2013 12:00:00 4.475 C 6.15 g/m*3 4.47 C 0 km/h
2609 18-12-2013 13:00:00 6.85833 C 7.1 g/m*3 5.54 C 7.11667 km/h
2610 18-12-2013 14:00:00 8.98333 C 7.6 g/m*3 8.15 C 6.56667 km/h
2611 18-12-2013 15:00:00 8.75 C 7.61 g/m*3 8.75 C 4.68333 km/h
2612 18-12-2013 16:00:00 8.20833 C 7.46 g/m*3 8.21 C 2.13333 km/h
2613 18-12-2013 17:00:00 7.35 C 7.26 g/m*3 7.35 C 2 km/h
2614 18-12-2013 18:00:00 7.11667 C 7.07 g/m*3 7.12 C 3.2 km/h
2615 18-12-2013 19:00:00 5.9 C 6.66 g/m*3 5.9 C 2.8 km/h
2616 18-12-2013 20:00:00 5.23333 C 6.47 g/m*3 5.23 C 3.2 km/h
2617 18-12-2013 21:00:00 5.11667 C 6.49 g/m*3 5.12 C 3.06667 km/h
2618 18-12-2013 22:00:00 5.80833 C 6.77 g/m*3 5.81 C 4.13333 km/h
2619 18-12-2013 23:00:00 6.38333 C 6.94 g/m*3 6.38 C 2.93333 km/h
2620 19-12-2013 00:00:00 7.03333 C 7.09 g/m*3 7.03 C 4.40833 km/h
2621 19-12-2013 01:00:00 8.35833 C 7.24 g/m*3 7.54 C 6.16667 km/h
2622 19-12-2013 02:00:00 9.18333 C 7.31 g/m*3 8.53 C 6.025 km/h
2623 19-12-2013 03:00:00 9.3 C 7.4 g/m*3 8.42 C 6.975 km/h
2624 19-12-2013 04:00:00 9.38333 C 7.47 g/m*3 9.38 C 4.40833 km/h
2625 19-12-2013 05:00:00 9.01667 C 7.83 g/m*3 9.02 C 4.675 km/h
Sensor: Nr:Datum:Temp:Abs-Feuchte:Windchill:Wind:
Aussen-T/F 2626 19-12-2013 06:00:00 8.66667 C 7.99 g/m*3 8.67 C 4.94167 km/h
2627 19-12-2013 07:00:00 8.53333 C 8.04 g/m*3 8.53 C 4.95 km/h
2628 19-12-2013 08:00:00 8.45833 C 8.14 g/m*3 8.46 C 3.46667 km/h
2629 19-12-2013 09:00:00 8.925 C 8.37 g/m*3 8.93 C 4.69167 km/h
2630 19-12-2013 10:00:00 9.725 C 8.59 g/m*3 9.22 C 5.775 km/h
2631 19-12-2013 11:00:00 10.64167 C 8.36 g/m*3 8.77 C 14.48333 km/h
2632 19-12-2013 12:00:00 10.80833 C 7.93 g/m*3 9.03 C 13.96667 km/h
2633 19-12-2013 13:00:00 10.6 C 7.65 g/m*3 9.19 C 11.025 km/h
2634 19-12-2013 14:00:00 10.23333 C 7.41 g/m*3 8.57 C 12.21667 km/h
2635 19-12-2013 15:00:00 9.3 C 7.17 g/m*3 7.6 C 11.16667 km/h
2636 19-12-2013 16:00:00 8.6 C 7 g/m*3 7.1 C 9.275 km/h
2637 19-12-2013 17:00:00 7.6 C 7.02 g/m*3 7.6 C 2.4 km/h
2638 19-12-2013 18:00:00 6.58333 C 6.84 g/m*3 6.58 C 2.93333 km/h
2639 19-12-2013 19:00:00 6.25 C 6.94 g/m*3 6.25 C 2 km/h
2640 19-12-2013 20:00:00 5.425 C 6.61 g/m*3 5.43 C 2.13333 km/h
2641 19-12-2013 21:00:00 4.9 C 6.42 g/m*3 4.9 C 1.33333 km/h
2642 19-12-2013 22:00:00 4.19167 C 6.14 g/m*3 4.19 C 2 km/h
2643 19-12-2013 23:00:00 3.575 C 5.91 g/m*3 3.58 C 0.66667 km/h
2644 20-12-2013 00:00:00 2.98333 C 5.71 g/m*3 2.98 C 1.33333 km/h
2645 20-12-2013 01:00:00 2.61667 C 5.59 g/m*3 2.62 C 0.53333 km/h
2646 20-12-2013 02:00:00 2.99167 C 5.76 g/m*3 2.99 C 0.53333 km/h
2647 20-12-2013 03:00:00 2.96667 C 5.75 g/m*3 2.97 C 0.53333 km/h
2648 20-12-2013 04:00:00 2.98333 C 5.76 g/m*3 2.98 C 0 km/h
2649 20-12-2013 05:00:00 3.275 C 5.9 g/m*3 3.28 C 0.4 km/h
2650 20-12-2013 06:00:00 3.15833 C 5.83 g/m*3 3.16 C 0.53333 km/h
Sensor: Nr:Datum:Temp:Abs-Feuchte:Windchill:Wind:
Aussen-T/F 2651 20-12-2013 07:00:00 4.04167 C 6.24 g/m*3 4.04 C 2 km/h
2652 20-12-2013 08:00:00 4.05833 C 6.2 g/m*3 4.06 C 0.93333 km/h
2653 20-12-2013 09:00:00 4.65 C 6.41 g/m*3 4.65 C 4.14167 km/h
2654 20-12-2013 10:00:00 5.73333 C 6.57 g/m*3 5.73 C 4.53333 km/h
2655 20-12-2013 11:00:00 6.35833 C 6.64 g/m*3 5.11 C 6.575 km/h
2656 20-12-2013 12:00:00 6.35 C 6.54 g/m*3 5.53 C 5.23333 km/h
2657 20-12-2013 13:00:00 6.50833 C 6.38 g/m*3 5.03 C 7.51667 km/h
2658 20-12-2013 14:00:00 6.325 C 6.28 g/m*3 5.04 C 6.69167 km/h
2659 20-12-2013 15:00:00 5.9 C 6.24 g/m*3 4.88 C 5.61667 km/h
2660 20-12-2013 16:00:00 5.36667 C 6.09 g/m*3 5.37 C 4.26667 km/h
2661 20-12-2013 17:00:00 4.2 C 5.88 g/m*3 4.2 C 4.40833 km/h
2662 20-12-2013 18:00:00 4.05 C 5.84 g/m*3 4.05 C 4.66667 km/h
2663 20-12-2013 19:00:00 4.20833 C 5.77 g/m*3 3.1 C 5.20833 km/h
2664 20-12-2013 20:00:00 4.05 C 5.7 g/m*3 2.92 C 5.21667 km/h
2665 20-12-2013 21:00:00 3.45 C 5.62 g/m*3 3.45 C 3.2 km/h
2666 20-12-2013 22:00:00 3.675 C 5.72 g/m*3 3.68 C 4.675 km/h
2667 20-12-2013 23:00:00 5.31667 C 5.97 g/m*3 3.79 C 6.975 km/h
2668 21-12-2013 00:00:00 4.89167 C 5.84 g/m*3 3.38 C 6.7 km/h
2669 21-12-2013 01:00:00 5.125 C 5.88 g/m*3 3.86 C 6.01667 km/h
2670 21-12-2013 02:00:00 4.625 C 5.73 g/m*3 4.63 C 4.53333 km/h
2671 21-12-2013 03:00:00 3.28333 C 5.48 g/m*3 3.28 C 2.8 km/h
2672 21-12-2013 04:00:00 2.675 C 5.4 g/m*3 2.68 C 3.33333 km/h
2673 21-12-2013 05:00:00 2.76667 C 5.44 g/m*3 2.77 C 1.33333 km/h
2674 21-12-2013 06:00:00 3.28333 C 5.56 g/m*3 3.28 C 1.6 km/h
2675 21-12-2013 07:00:00 3.925 C 5.59 g/m*3 3.93 C 2.54167 km/h
Sensor: Nr:Datum:Temp:Abs-Feuchte:Windchill:Wind:
Aussen-T/F 2676 21-12-2013 08:00:00 3.45833 C 5.51 g/m*3 3.46 C 0.8 km/h
2677 21-12-2013 09:00:00 2.93333 C 5.46 g/m*3 2.93 C 0.8 km/h
2678 21-12-2013 10:00:00 4.5 C 5.71 g/m*3 4.5 C 1.2 km/h
2679 21-12-2013 11:00:00 6 C 5.81 g/m*3 6 C 3.33333 km/h
2680 21-12-2013 12:00:00 6.95 C 5.57 g/m*3 5.35 C 8.31667 km/h
2681 21-12-2013 13:00:00 7.21667 C 5.51 g/m*3 6.57 C 5.09167 km/h
2682 21-12-2013 14:00:00 6.9 C 5.59 g/m*3 6.9 C 1.86667 km/h
2683 21-12-2013 15:00:00 6.31667 C 5.45 g/m*3 6.32 C 2.13333 km/h
2684 21-12-2013 16:00:00 5.65833 C 5.32 g/m*3 5.66 C 2.13333 km/h
2685 21-12-2013 17:00:00 5.025 C 5.3 g/m*3 5.03 C 2 km/h
2686 21-12-2013 18:00:00 4.86667 C 5.15 g/m*3 4.87 C 2.13333 km/h
2687 21-12-2013 19:00:00 4.81667 C 5.2 g/m*3 4.82 C 2.66667 km/h
2688 21-12-2013 20:00:00 5.00833 C 5.25 g/m*3 5.01 C 4.01667 km/h
2689 21-12-2013 21:00:00 4.78333 C 5.31 g/m*3 4.78 C 2.8 km/h
2690 21-12-2013 22:00:00 4.79167 C 5.23 g/m*3 4.79 C 3.06667 km/h
2691 21-12-2013 23:00:00 5.725 C 4.99 g/m*3 5.73 C 4.40833 km/h
2692 22-12-2013 00:00:00 6.39167 C 4.57 g/m*3 5.12 C 6.69167 km/h
2693 22-12-2013 01:00:00 7.3 C 4.31 g/m*3 6.62 C 5.21667 km/h
2694 22-12-2013 02:00:00 7.425 C 4.9 g/m*3 6.31 C 6.7 km/h
2695 22-12-2013 03:00:00 8.35 C 5.78 g/m*3 5.47 C 18.375 km/h
2696 22-12-2013 04:00:00 8.01667 C 6.26 g/m*3 5.34 C 15.96667 km/h
2697 22-12-2013 05:00:00 7.28333 C 6.84 g/m*3 4.5 C 15.43333 km/h
2698 22-12-2013 06:00:00 7.34167 C 7.01 g/m*3 4.14 C 18.9 km/h
2699 22-12-2013 07:00:00 7.66667 C 7.3 g/m*3 5.5 C 11.94167 km/h
2700 22-12-2013 08:00:00 7.35833 C 7.46 g/m*3 7.36 C 2.13333 km/h
Sensor: Nr:Datum:Temp:Abs-Feuchte:Windchill:Wind:
Aussen-T/F 2701 22-12-2013 09:00:00 8.13333 C 7.78 g/m*3 7.48 C 5.49167 km/h
2702 22-12-2013 10:00:00 9.16667 C 7.91 g/m*3 7.88 C 8.71667 km/h
2703 22-12-2013 11:00:00 9.46667 C 7.94 g/m*3 8.65 C 6.83333 km/h
2704 22-12-2013 12:00:00 9.71667 C 8.04 g/m*3 9.33 C 5.35833 km/h
2705 22-12-2013 13:00:00 10.16667 C 8.01 g/m*3 8.69 C 10.88333 km/h
2706 22-12-2013 14:00:00 10.21667 C 7.99 g/m*3 8.34 C 13.7 km/h
2707 22-12-2013 15:00:00 9.96667 C 8.05 g/m*3 8.06 C 13.56667 km/h
2708 22-12-2013 16:00:00 10.09167 C 7.95 g/m*3 8.12 C 14.23333 km/h
2709 22-12-2013 17:00:00 10 C 7.92 g/m*3 7.93 C 14.9 km/h
2710 22-12-2013 18:00:00 9.925 C 7.93 g/m*3 7.51 C 17.7 km/h
2711 22-12-2013 19:00:00 9.9 C 7.95 g/m*3 7.19 C 20.65 km/h
2712 22-12-2013 20:00:00 9.93333 C 7.94 g/m*3 7.23 C 20.63333 km/h
2713 22-12-2013 21:00:00 9.725 C 8 g/m*3 7.67 C 14.23333 km/h
2714 22-12-2013 22:00:00 9.38333 C 8.15 g/m*3 8.08 C 9.00833 km/h
2715 22-12-2013 23:00:00 8.63333 C 8.06 g/m*3 8.63 C 3.60833 km/h
2716 23-12-2013 00:00:00 8.025 C 7.84 g/m*3 8.03 C 4.26667 km/h
2717 23-12-2013 01:00:00 7.83333 C 7.39 g/m*3 5.43 C 13.675 km/h
2718 23-12-2013 02:00:00 5.83333 C 6.77 g/m*3 5.83 C 4.14167 km/h
2719 23-12-2013 03:00:00 5.975 C 6.82 g/m*3 5.11 C 5.20833 km/h
2720 23-12-2013 04:00:00 5.9 C 6.82 g/m*3 5.9 C 4.13333 km/h
2721 23-12-2013 05:00:00 7.15833 C 6.88 g/m*3 5.19 C 10.21667 km/h
2722 23-12-2013 06:00:00 6.43333 C 6.73 g/m*3 5.4 C 5.9 km/h
2723 23-12-2013 07:00:00 5.95 C 6.74 g/m*3 5.95 C 3.46667 km/h
2724 23-12-2013 08:00:00 5.51667 C 6.58 g/m*3 5.52 C 2 km/h
2725 23-12-2013 09:00:00 5.175 C 6.53 g/m*3 5.18 C 0.8 km/h
Sensor: Nr:Datum:Temp:Abs-Feuchte:Windchill:Wind:
Aussen-T/F 2726 23-12-2013 10:00:00 6.825 C 7.14 g/m*3 5.17 C 8.4625 km/h
2727 23-12-2013 11:00:00 8.99167 C 7.38 g/m*3 7.67 C 8.73333 km/h
2728 23-12-2013 12:00:00 9.54167 C 7.54 g/m*3 8.54 C 7.65833 km/h
2729 23-12-2013 13:00:00 10.1125 C 7.52 g/m*3 9.7 C 5.625 km/h
2730 23-12-2013 14:00:00 10.69167 C 7.61 g/m*3 9.76 C 8.325 km/h
2731 23-12-2013 15:00:00 10.9 C 7.6 g/m*3 9.88 C 9 km/h
2732 23-12-2013 16:00:00 10.1 C 7.61 g/m*3 9.48 C 6.4 km/h
2733 23-12-2013 17:00:00 10.58333 C 7.78 g/m*3 9.82 C 7.4 km/h
2734 23-12-2013 18:00:00 10.55833 C 7.8 g/m*3 10.21 C 5.625 km/h
2735 23-12-2013 19:00:00 9.97778 C 7.59 g/m*3 9.43 C 6.07778 km/h
2736 23-12-2013 20:00:00 10.26667 C 7.46 g/m*3 9.2 C 8.58333 km/h
2737 23-12-2013 21:00:00 10.21667 C 7.42 g/m*3 9.19 C 8.34167 km/h
2738 23-12-2013 22:00:00 10.43333 C 7.42 g/m*3 9.23 C 9.54167 km/h
2739 23-12-2013 23:00:00 10.25833 C 7.26 g/m*3 8.99 C 9.69167 km/h
2740 24-12-2013 00:00:00 9.9 C 6.99 g/m*3 8.72 C 8.86667 km/h
2741 24-12-2013 01:00:00 9.575 C 6.84 g/m*3 8.62 C 7.5 km/h
2742 24-12-2013 02:00:00 8.85833 C 6.65 g/m*3 7.9 C 6.98333 km/h
2743 24-12-2013 03:00:00 8.51667 C 6.66 g/m*3 7.88 C 5.61667 km/h
2744 24-12-2013 04:00:00 8.625 C 6.75 g/m*3 7.96 C 5.75833 km/h
2745 24-12-2013 05:00:00 9.61667 C 6.84 g/m*3 8.88 C 6.575 km/h
2746 24-12-2013 06:00:00 9.81667 C 6.97 g/m*3 9.26 C 6.01667 km/h
2747 24-12-2013 07:00:00 9.95833 C 7.05 g/m*3 9.12 C 7.25 km/h
2748 24-12-2013 08:00:00 11.84167 C 7.24 g/m*3 11.84 C 8.05833 km/h
2749 24-12-2013 09:00:00 12.26667 C 7.36 g/m*3 12.27 C 8.18333 km/h
2750 24-12-2013 10:00:00 12.8 C 7.57 g/m*3 12.8 C 8.73333 km/h
Sensor: Nr:Datum:Temp:Abs-Feuchte:Windchill:Wind:
Aussen-T/F 2751 24-12-2013 11:00:00 13.88333 C 7.48 g/m*3 13.88 C 16.10833 km/h
2752 24-12-2013 12:00:00 13.96667 C 7.71 g/m*3 13.97 C 9.94167 km/h
2753 24-12-2013 13:00:00 13.85833 C 7.8 g/m*3 13.86 C 10.71667 km/h
2754 24-12-2013 14:00:00 13.90833 C 7.92 g/m*3 13.91 C 10.225 km/h
2755 24-12-2013 15:00:00 13.08333 C 8.39 g/m*3 13.08 C 8.45833 km/h
2756 24-12-2013 16:00:00 12.75 C 8.32 g/m*3 12.75 C 8.6 km/h
2757 24-12-2013 17:00:00 12.74167 C 8.3 g/m*3 12.74 C 9.26667 km/h
2758 24-12-2013 18:00:00 12.78333 C 8.22 g/m*3 12.78 C 6.70833 km/h
2759 24-12-2013 19:00:00 12.73333 C 8.25 g/m*3 12.73 C 8.05 km/h
2760 24-12-2013 20:00:00 12.58333 C 8.27 g/m*3 12.58 C 8.6 km/h
2761 24-12-2013 21:00:00 11.98182 C 8.58 g/m*3 11.98 C 9.82727 km/h
2762 24-12-2013 22:00:00 11.16 C 8.77 g/m*3 11.16 C 5.3 km/h
2763 24-12-2013 23:00:00 10.575 C 8.62 g/m*3 10.58 C 4.81667 km/h
2764 25-12-2013 00:00:00 10.85833 C 8.53 g/m*3 10 C 8.05833 km/h
2765 25-12-2013 01:00:00 10.64167 C 8.6 g/m*3 10.14 C 6.29167 km/h
2766 25-12-2013 02:00:00 10.675 C 8.56 g/m*3 9.9 C 7.50833 km/h
2767 25-12-2013 03:00:00 10.8 C 8.7 g/m*3 10.22 C 6.70833 km/h
2768 25-12-2013 04:00:00 10.775 C 8.85 g/m*3 10.25 C 6.44167 km/h
2769 25-12-2013 05:00:00 10.53333 C 8.86 g/m*3 9.52 C 8.6 km/h
2770 25-12-2013 06:00:00 10.025 C 8.58 g/m*3 9.32 C 6.71667 km/h
2771 25-12-2013 07:00:00 9.425 C 8.27 g/m*3 7.91 C 10.2 km/h
2772 25-12-2013 08:00:00 8.275 C 7.57 g/m*3 7.44 C 6.16667 km/h
2773 25-12-2013 09:00:00 7.55 C 7.47 g/m*3 7.55 C 2.93333 km/h
2774 25-12-2013 11:00:00 8.16667 C 8.08 g/m*3 8.17 C 0 km/h
2775 25-12-2013 16:00:00 7.775 C 7.82 g/m*3 7.78 C 0.26667 km/h
Sensor: Nr:Datum:Temp:Abs-Feuchte:Windchill:Wind:
Aussen-T/F 2776 25-12-2013 17:00:00 7.40833 C 7.59 g/m*3 7.41 C 0.93333 km/h
2777 25-12-2013 18:00:00 6.28333 C 7.06 g/m*3 6.28 C 2.66667 km/h
2778 25-12-2013 19:00:00 5.85 C 6.94 g/m*3 5.85 C 1.46667 km/h
2779 25-12-2013 20:00:00 6.275 C 7.11 g/m*3 6.28 C 0.8 km/h
2780 25-12-2013 21:00:00 5.65 C 6.78 g/m*3 5.65 C 1.73333 km/h
2781 25-12-2013 22:00:00 6.06667 C 7.01 g/m*3 6.07 C 1.74167 km/h
2782 25-12-2013 23:00:00 6.375 C 7.09 g/m*3 6.38 C 1.33333 km/h
2783 26-12-2013 00:00:00 5.80833 C 6.8 g/m*3 5.81 C 2.13333 km/h
2784 26-12-2013 01:00:00 5.41667 C 6.69 g/m*3 5.42 C 0.26667 km/h
2785 26-12-2013 02:00:00 5.30833 C 6.66 g/m*3 5.31 C 0.13333 km/h
2786 26-12-2013 03:00:00 5.50833 C 6.76 g/m*3 5.51 C 0.13333 km/h
2787 26-12-2013 04:00:00 5.79167 C 6.87 g/m*3 5.79 C 0 km/h
2788 26-12-2013 05:00:00 5.74167 C 6.85 g/m*3 5.74 C 0 km/h
2789 26-12-2013 06:00:00 5.65833 C 6.81 g/m*3 5.66 C 0 km/h
2790 26-12-2013 07:00:00 5.7 C 6.83 g/m*3 5.7 C 0.4 km/h
2791 26-12-2013 08:00:00 5.79167 C 6.91 g/m*3 5.79 C 0 km/h
2792 26-12-2013 09:00:00 5.975 C 7.03 g/m*3 5.98 C 0 km/h
2793 26-12-2013 10:00:00 6.15833 C 7.11 g/m*3 6.16 C 0 km/h
2794 26-12-2013 11:00:00 6.39167 C 7.2 g/m*3 6.39 C 3.33333 km/h
2795 26-12-2013 12:00:00 6.5 C 7.2 g/m*3 5.58 C 5.6 km/h
2796 26-12-2013 13:00:00 7.42857 C 7.33 g/m*3 7.43 C 0.68571 km/h
2797 26-12-2013 14:00:00 7.65 C 7.37 g/m*3 7.65 C 0.53333 km/h
2798 26-12-2013 15:00:00 7.68 C 7.36 g/m*3 7.68 C 0.16 km/h
2799 26-12-2013 16:00:00 7.21818 C 7.38 g/m*3 7.22 C 0 km/h
2800 26-12-2013 17:00:00 7.05833 C 7.29 g/m*3 7.06 C 1.6 km/h
Sensor: Nr:Datum:Temp:Abs-Feuchte:Windchill:Wind:
Aussen-T/F 2801 26-12-2013 18:00:00 6.65 C 7.19 g/m*3 6.65 C 2.53333 km/h
2802 26-12-2013 19:00:00 6.11667 C 6.98 g/m*3 6.12 C 2.93333 km/h
2803 26-12-2013 20:00:00 5.71667 C 6.84 g/m*3 5.72 C 2.66667 km/h
2804 26-12-2013 21:00:00 4.83333 C 6.36 g/m*3 4.83 C 4.40833 km/h
2805 26-12-2013 22:00:00 5.18333 C 6.41 g/m*3 4.11 C 5.49167 km/h
2806 26-12-2013 23:00:00 5.55833 C 6.28 g/m*3 3.96 C 7.36667 km/h
2807 27-12-2013 00:00:00 4.73333 C 6.05 g/m*3 3.32 C 6.29167 km/h
2808 27-12-2013 01:00:00 4.975 C 6 g/m*3 3.35 C 7.1 km/h
2809 27-12-2013 02:00:00 3.525 C 5.69 g/m*3 3.53 C 3.46667 km/h
2810 27-12-2013 03:00:00 2.50833 C 5.46 g/m*3 2.51 C 2.53333 km/h
2811 27-12-2013 04:00:00 3.53333 C 5.84 g/m*3 3.53 C 3.73333 km/h
2812 27-12-2013 05:00:00 5.075 C 6.02 g/m*3 3.94 C 5.625 km/h
2813 27-12-2013 06:00:00 4.95833 C 5.87 g/m*3 4.96 C 3.875 km/h
2814 27-12-2013 07:00:00 4.25833 C 5.84 g/m*3 4.26 C 2.13333 km/h
2815 27-12-2013 08:00:00 3.90833 C 5.78 g/m*3 3.91 C 3.46667 km/h
2816 27-12-2013 09:00:00 5.175 C 5.95 g/m*3 4.15 C 5.35833 km/h
2817 27-12-2013 10:00:00 6.55833 C 5.82 g/m*3 4.25 C 11.40833 km/h
2818 27-12-2013 11:00:00 7.125 C 5.85 g/m*3 5.59 C 8.18333 km/h
2819 27-12-2013 12:00:00 7.71111 C 6 g/m*3 5.96 C 9.68889 km/h
2820 27-12-2013 13:00:00 8.35 C 6.26 g/m*3 6.43 C 11.275 km/h
2821 27-12-2013 14:00:00 8.8 C 6.44 g/m*3 7.59 C 8.05 km/h
2822 27-12-2013 16:00:00 9.2 C 6.71 g/m*3 8.05 C 8.0625 km/h
2823 27-12-2013 17:00:00 8.85 C 6.96 g/m*3 8.45 C 5.0125 km/h
2824 27-12-2013 18:00:00 8.9 C 7.1 g/m*3 7.82 C 7.525 km/h
2825 27-12-2013 19:00:00 9.25 C 7.29 g/m*3 8.71 C 5.625 km/h
Sensor: Nr:Datum:Temp:Abs-Feuchte:Windchill:Wind:
Aussen-T/F 2826 27-12-2013 20:00:00 9.66667 C 7.64 g/m*3 9.35 C 5.08333 km/h
2827 27-12-2013 21:00:00 9.925 C 7.85 g/m*3 9.93 C 4.28333 km/h
2828 27-12-2013 22:00:00 10.03333 C 8.25 g/m*3 9.3 C 6.84167 km/h
2829 27-12-2013 23:00:00 9.675 C 8.39 g/m*3 9.09 C 6.025 km/h
2830 28-12-2013 00:00:00 9.71667 C 8.38 g/m*3 9.72 C 4.675 km/h
2831 28-12-2013 01:00:00 9.94167 C 8.27 g/m*3 9.94 C 3.2 km/h
2832 28-12-2013 02:00:00 10.85 C 8.06 g/m*3 10.37 C 6.3 km/h
2833 28-12-2013 03:00:00 10.79167 C 7.87 g/m*3 10.45 C 5.74167 km/h
2834 28-12-2013 04:00:00 10.54167 C 7.77 g/m*3 10.54 C 4.8 km/h
2835 28-12-2013 05:00:00 9.9 C 7.99 g/m*3 9.9 C 4.275 km/h
2836 28-12-2013 06:00:00 9.20833 C 7.94 g/m*3 9.21 C 4.53333 km/h
2837 28-12-2013 07:00:00 9.35 C 7.86 g/m*3 9.35 C 4.95 km/h
2838 28-12-2013 08:00:00 10.06667 C 7.96 g/m*3 9.16 C 7.64167 km/h
2839 28-12-2013 09:00:00 9.95833 C 7.92 g/m*3 8.95 C 8.05833 km/h
2840 28-12-2013 10:00:00 10.25 C 8.07 g/m*3 8.87 C 10.34167 km/h
2841 28-12-2013 11:00:00 10.48333 C 8.19 g/m*3 9.95 C 6.30833 km/h
2842 28-12-2013 12:00:00 9.84167 C 8.47 g/m*3 9.84 C 2.54167 km/h
2843 28-12-2013 13:00:00 9.45 C 8.51 g/m*3 9.45 C 0.4 km/h
2844 28-12-2013 14:00:00 9.36667 C 8.57 g/m*3 9.37 C 0.13333 km/h
2845 28-12-2013 15:00:00 9.24167 C 8.58 g/m*3 9.24 C 0 km/h
2846 28-12-2013 16:00:00 8.86667 C 8.4 g/m*3 8.87 C 0 km/h
2847 28-12-2013 17:00:00 8.51667 C 8.28 g/m*3 8.52 C 0.13333 km/h
2848 28-12-2013 18:00:00 8.24167 C 8.15 g/m*3 8.24 C 0 km/h
2849 28-12-2013 19:00:00 7.93333 C 7.98 g/m*3 7.93 C 0.4 km/h
2850 28-12-2013 20:00:00 7.73333 C 7.9 g/m*3 7.73 C 0.13333 km/h
Sensor: Nr:Datum:Temp:Abs-Feuchte:Windchill:Wind:
Aussen-T/F 2851 28-12-2013 21:00:00 7.29167 C 7.67 g/m*3 7.29 C 4.28333 km/h
2852 28-12-2013 22:00:00 6.58333 C 7.08 g/m*3 5.58 C 5.89167 km/h
2853 28-12-2013 23:00:00 5.34167 C 6.43 g/m*3 2.65 C 12.09167 km/h
2854 29-12-2013 00:00:00 4.66667 C 6.21 g/m*3 3.19 C 6.45 km/h
2855 29-12-2013 01:00:00 4.4 C 6.2 g/m*3 4.4 C 2.13333 km/h
2856 29-12-2013 02:00:00 5.075 C 6.29 g/m*3 2.3 C 12.23333 km/h
2857 29-12-2013 03:00:00 5.3 C 6.27 g/m*3 3.65 C 7.375 km/h
2858 29-12-2013 04:00:00 5.60833 C 6.45 g/m*3 5.61 C 4.95 km/h
2859 29-12-2013 05:00:00 5.46667 C 6.59 g/m*3 5.47 C 1.6 km/h
2860 29-12-2013 06:00:00 5.51667 C 6.66 g/m*3 5.52 C 3.475 km/h
2861 29-12-2013 07:00:00 5.025 C 6.48 g/m*3 5.03 C 2.93333 km/h
2862 29-12-2013 08:00:00 5.10833 C 6.57 g/m*3 5.11 C 3.75 km/h
2863 29-12-2013 09:00:00 4.925 C 6.46 g/m*3 4.93 C 3.86667 km/h
2864 29-12-2013 10:00:00 5.05 C 6.47 g/m*3 5.05 C 4.97 km/h
2865 29-12-2013 13:00:00 7.16667 C 6.66 g/m*3 5.1 C 10.76667 km/h
2866 29-12-2013 18:00:00 3.62 C 6.2 g/m*3 3.62 C 3.84 km/h
2867 29-12-2013 21:00:00 2.95 C 5.57 g/m*3 2.95 C 4.8 km/h
2868 29-12-2013 22:00:00 3.375 C 5.74 g/m*3 3.38 C 4.95833 km/h
2869 29-12-2013 23:00:00 2.65 C 5.51 g/m*3 2.65 C 2.54167 km/h
2870 30-12-2013 00:00:00 3.13333 C 5.66 g/m*3 3.13 C 3.48333 km/h
2871 30-12-2013 01:00:00 3.69167 C 5.82 g/m*3 3.69 C 2.80833 km/h
2872 30-12-2013 02:00:00 4.26667 C 5.86 g/m*3 4.27 C 3.6 km/h
2873 30-12-2013 03:00:00 3.89167 C 5.75 g/m*3 3.89 C 3.73333 km/h
2874 30-12-2013 04:00:00 4.35 C 5.8 g/m*3 4.35 C 3.60833 km/h
2875 30-12-2013 05:00:00 4.66667 C 5.76 g/m*3 4.67 C 3.075 km/h
Sensor: Nr:Datum:Temp:Abs-Feuchte:Windchill:Wind:
Aussen-T/F 2876 30-12-2013 06:00:00 4.82 C 5.68 g/m*3 4.82 C 3.2 km/h
2877 30-12-2013 07:00:00 4.8 C 5.63 g/m*3 4.8 C 3.2 km/h
2878 30-12-2013 13:00:00 6 C 5.81 g/m*3 4.73 C 6.45 km/h
2879 30-12-2013 14:00:00 5.77143 C 5.81 g/m*3 5.77 C 3.2 km/h
2880 30-12-2013 15:00:00 4.7 C 5.86 g/m*3 4.7 C 2.4 km/h
2881 30-12-2013 16:00:00 4.2 C 5.8 g/m*3 4.2 C 1.6 km/h
2882 30-12-2013 18:00:00 4.16667 C 5.79 g/m*3 4.17 C 2.66667 km/h
2883 30-12-2013 20:00:00 3.7 C 5.73 g/m*3 3.7 C 0 km/h
2884 30-12-2013 21:00:00 3.70833 C 5.74 g/m*3 3.71 C 0 km/h
2885 30-12-2013 22:00:00 3.8 C 5.77 g/m*3 3.8 C 0.53333 km/h
2886 31-12-2013 01:00:00 3.33333 C 5.53 g/m*3 3.33 C 3.2 km/h
2887 31-12-2013 02:00:00 3.2 C 5.48 g/m*3 3.2 C 3.2 km/h
2888 31-12-2013 07:00:00 1.02727 C 4.96 g/m*3 1.03 C 2.03636 km/h
2889 31-12-2013 08:00:00 1.075 C 4.96 g/m*3 1.08 C 0.4 km/h
2890 31-12-2013 09:00:00 1.15 C 5 g/m*3 1.15 C 0.13333 km/h
2891 31-12-2013 10:00:00 1.78333 C 5.26 g/m*3 1.78 C 0.26667 km/h
2892 31-12-2013 11:00:00 2.7 C 5.56 g/m*3 2.7 C 0.64 km/h
2893 31-12-2013 12:00:00 3.1 C 5.78 g/m*3 3.1 C 2.4 km/h
2894 31-12-2013 13:00:00 4.35 C 5.92 g/m*3 4.35 C 1.2 km/h
2895 31-12-2013 18:00:00 4.14444 C 5.4 g/m*3 1.93 C 8.76667 km/h
2896 31-12-2013 19:00:00 4.60833 C 5.38 g/m*3 2.59 C 8.325 km/h
2897 31-12-2013 20:00:00 4.35833 C 5.39 g/m*3 3.11 C 5.63333 km/h
2898 31-12-2013 21:00:00 3.925 C 5.39 g/m*3 3.93 C 3.20833 km/h
2899 31-12-2013 22:00:00 3.8 C 5.29 g/m*3 3.8 C 4.55 km/h
2900 31-12-2013 23:00:00 2.775 C 5.23 g/m*3 2.78 C 2.13333 km/h
Sensor: Nr:Datum:Temp:Abs-Feuchte:Windchill:Wind:
Aussen-T/F 2901 01-01-2014 00:00:00 2.65 C 5.19 g/m*3 2.65 C 1.46667 km/h
2902 01-01-2014 01:00:00 3 C 5.35 g/m*3 3 C 1.2 km/h
2903 01-01-2014 02:00:00 3.675 C 5.46 g/m*3 3.68 C 2.80833 km/h
2904 01-01-2014 03:00:00 4.36667 C 5.71 g/m*3 4.37 C 2 km/h
2905 01-01-2014 04:00:00 4.60833 C 5.98 g/m*3 4.61 C 1.46667 km/h
2906 01-01-2014 05:00:00 5.16667 C 6.13 g/m*3 5.17 C 1.86667 km/h
2907 01-01-2014 06:00:00 5.48333 C 6.37 g/m*3 5.48 C 0.66667 km/h
2908 01-01-2014 07:00:00 5.575 C 6.53 g/m*3 5.58 C 0.53333 km/h
2909 01-01-2014 08:00:00 5.025 C 6.34 g/m*3 5.03 C 2.26667 km/h
2910 01-01-2014 09:00:00 5.1 C 6.48 g/m*3 5.1 C 1.24444 km/h
2911 01-01-2014 10:00:00 6.325 C 6.68 g/m*3 6.33 C 1.6 km/h
2912 01-01-2014 11:00:00 7.025 C 6.8 g/m*3 7.03 C 2.54167 km/h
2913 01-01-2014 12:00:00 6.95833 C 6.82 g/m*3 6.96 C 2.93333 km/h
2914 01-01-2014 13:00:00 8.69167 C 6.7 g/m*3 8.69 C 4.14167 km/h
2915 01-01-2014 14:00:00 8.78333 C 6.79 g/m*3 8.78 C 4.68333 km/h
2916 01-01-2014 15:00:00 8.39167 C 6.83 g/m*3 8.39 C 2.8 km/h
2917 01-01-2014 16:00:00 7.6 C 6.76 g/m*3 7.6 C 4.55 km/h
2918 01-01-2014 17:00:00 7.8 C 6.87 g/m*3 7.01 C 5.76667 km/h
2919 01-01-2014 18:00:00 7.95 C 6.98 g/m*3 6.75 C 7.38333 km/h
2920 01-01-2014 19:00:00 8.15 C 6.91 g/m*3 7.29 C 6.175 km/h
2921 01-01-2014 20:00:00 7.91667 C 6.93 g/m*3 7.92 C 4.81667 km/h
2922 01-01-2014 21:00:00 8.5 C 6.97 g/m*3 7.59 C 6.575 km/h
2923 01-01-2014 22:00:00 8.13333 C 6.98 g/m*3 7.57 C 5.21667 km/h
2924 01-01-2014 23:00:00 8.04167 C 7.02 g/m*3 7.42 C 5.35 km/h
2925 02-01-2014 00:00:00 8.63333 C 7.11 g/m*3 8.09 C 5.35833 km/h
Sensor: Nr:Datum:Temp:Abs-Feuchte:Windchill:Wind:
Aussen-T/F 2926 02-01-2014 01:00:00 8.89167 C 7.19 g/m*3 8.34 C 5.49167 km/h
2927 02-01-2014 02:00:00 9.375 C 7.42 g/m*3 8.51 C 6.96667 km/h
2928 02-01-2014 03:00:00 8.95833 C 7.53 g/m*3 8.96 C 4.95 km/h
2929 02-01-2014 04:00:00 8.1 C 7.57 g/m*3 8.1 C 4.8 km/h
2930 02-01-2014 05:00:00 7.69167 C 7.57 g/m*3 7.69 C 3.46667 km/h
2931 02-01-2014 06:00:00 7.7 C 7.66 g/m*3 7.7 C 3.2 km/h
2932 02-01-2014 07:00:00 7.84545 C 7.78 g/m*3 7.85 C 3.64545 km/h
2933 02-01-2014 08:00:00 8.8 C 8.18 g/m*3 7.47 C 8.6 km/h
2934 02-01-2014 09:00:00 9.08 C 8.05 g/m*3 9.08 C 3.52 km/h
2935 02-01-2014 10:00:00 9.53333 C 8.18 g/m*3 9.53 C 4.68333 km/h
2936 02-01-2014 11:00:00 10.38333 C 8.52 g/m*3 10.38 C 4.66667 km/h
2937 02-01-2014 12:00:00 11.01667 C 8.3 g/m*3 11.02 C 9.79167 km/h
2938 02-01-2014 13:00:00 10.89167 C 7.94 g/m*3 8.96 C 15.43333 km/h
2939 02-01-2014 14:00:00 10.54167 C 7.84 g/m*3 8.63 C 14.63333 km/h
2940 02-01-2014 15:00:00 9.29167 C 7.74 g/m*3 8.13 C 8.2 km/h
2941 02-01-2014 16:00:00 8.70833 C 7.31 g/m*3 7.23 C 9.275 km/h
2942 02-01-2014 17:00:00 7.71111 C 7.08 g/m*3 7.71 C 4.45556 km/h
2943 02-01-2014 18:00:00 6.81667 C 7.02 g/m*3 6.82 C 2.8 km/h
2944 02-01-2014 19:00:00 6.80833 C 7.14 g/m*3 6.81 C 3.2 km/h
2945 02-01-2014 20:00:00 6.31667 C 7.01 g/m*3 6.32 C 2.93333 km/h
2946 02-01-2014 21:00:00 6.06667 C 6.88 g/m*3 6.07 C 2.66667 km/h
2947 02-01-2014 22:00:00 5.85 C 6.8 g/m*3 5.85 C 2.13333 km/h
2948 02-01-2014 23:00:00 4.95833 C 6.43 g/m*3 4.96 C 0.13333 km/h
2949 03-01-2014 00:00:00 4.025 C 6.1 g/m*3 4.03 C 0.26667 km/h
2950 03-01-2014 01:00:00 3.80833 C 6.06 g/m*3 3.81 C 0.26667 km/h
Sensor: Nr:Datum:Temp:Abs-Feuchte:Windchill:Wind:
Aussen-T/F 2951 03-01-2014 02:00:00 4.39167 C 6.33 g/m*3 4.39 C 1.73333 km/h
2952 03-01-2014 03:00:00 5.03333 C 6.63 g/m*3 5.03 C 2.26667 km/h
2953 03-01-2014 04:00:00 6.08333 C 7.02 g/m*3 6.08 C 3.46667 km/h
2954 03-01-2014 05:00:00 5.925 C 6.8 g/m*3 5.93 C 3.48333 km/h
2955 03-01-2014 06:00:00 5.71667 C 6.81 g/m*3 5.72 C 3.33333 km/h
2956 03-01-2014 07:00:00 5.91667 C 6.9 g/m*3 5.92 C 2.8 km/h
2957 03-01-2014 08:00:00 6.175 C 7.05 g/m*3 6.18 C 1.2 km/h
2958 03-01-2014 09:00:00 7.31667 C 7.34 g/m*3 7.32 C 4.94167 km/h
2959 03-01-2014 10:00:00 9.15 C 7.83 g/m*3 8.38 C 6.43333 km/h
2960 03-01-2014 11:00:00 9.28333 C 8.08 g/m*3 8.83 C 5.36667 km/h
2961 03-01-2014 12:00:00 10.55 C 8.46 g/m*3 8.95 C 12.225 km/h
2962 03-01-2014 13:00:00 11.08333 C 8.48 g/m*3 11.08 C 8.18333 km/h
2963 03-01-2014 14:00:00 12.00833 C 8.41 g/m*3 12.01 C 8.59167 km/h
2964 03-01-2014 15:00:00 11.86667 C 8.37 g/m*3 11.87 C 4.68333 km/h
2965 03-01-2014 16:00:00 11.06667 C 8.28 g/m*3 11.07 C 4.68333 km/h
2966 03-01-2014 17:00:00 10.85 C 8.18 g/m*3 10.41 C 6.16667 km/h
2967 03-01-2014 18:00:00 10.96667 C 8.17 g/m*3 10.08 C 8.33333 km/h
2968 03-01-2014 19:00:00 11.86667 C 8.16 g/m*3 11.87 C 11.01667 km/h
2969 03-01-2014 20:00:00 12.36667 C 8.05 g/m*3 12.37 C 20.78333 km/h
2970 03-01-2014 21:00:00 12.08333 C 7.84 g/m*3 12.08 C 20.375 km/h
2971 03-01-2014 22:00:00 11.55 C 7.49 g/m*3 11.55 C 16.63333 km/h
2972 03-01-2014 23:00:00 10.88333 C 6.91 g/m*3 8.92 C 15.7 km/h
2973 04-01-2014 00:00:00 9.73333 C 6.63 g/m*3 8.23 C 10.475 km/h
2974 04-01-2014 01:00:00 8.58333 C 6.7 g/m*3 8.04 C 5.35 km/h
2975 04-01-2014 02:00:00 7.55833 C 6.71 g/m*3 7.56 C 4.80833 km/h
Sensor: Nr:Datum:Temp:Abs-Feuchte:Windchill:Wind:
Aussen-T/F 2976 04-01-2014 03:00:00 7.925 C 6.75 g/m*3 7.93 C 4.54167 km/h
2977 04-01-2014 04:00:00 7.38333 C 6.81 g/m*3 7.38 C 2.66667 km/h
2978 04-01-2014 05:00:00 6.20833 C 6.56 g/m*3 6.21 C 3.2 km/h
2979 04-01-2014 06:00:00 5.3 C 6.37 g/m*3 5.3 C 3.6 km/h
2980 04-01-2014 07:00:00 6.10833 C 6.59 g/m*3 5.17 C 5.48333 km/h
2981 04-01-2014 08:00:00 7.01667 C 6.74 g/m*3 5.8 C 6.85 km/h
2982 04-01-2014 09:00:00 7.20833 C 6.81 g/m*3 6.1 C 6.55 km/h
2983 04-01-2014 10:00:00 7.91667 C 7.07 g/m*3 6.84 C 6.85 km/h
2984 04-01-2014 11:00:00 8.275 C 7.14 g/m*3 7.09 C 7.51667 km/h
2985 04-01-2014 12:00:00 9.04167 C 7.23 g/m*3 8.64 C 5.075 km/h
2986 04-01-2014 13:00:00 9.41667 C 7.28 g/m*3 8.46 C 7.375 km/h
2987 04-01-2014 14:00:00 9.04167 C 7.31 g/m*3 9.04 C 2.40833 km/h
2988 04-01-2014 15:00:00 7.9 C 7.63 g/m*3 7.9 C 0.13333 km/h
2989 04-01-2014 16:00:00 7.28333 C 7.53 g/m*3 7.28 C 0 km/h
2990 04-01-2014 17:00:00 6.71667 C 7.3 g/m*3 6.72 C 0.26667 km/h
2991 04-01-2014 18:00:00 6.66667 C 7.32 g/m*3 6.67 C 1.475 km/h
2992 04-01-2014 19:00:00 6.59167 C 7.31 g/m*3 6.59 C 2 km/h
2993 04-01-2014 20:00:00 6.575 C 7.31 g/m*3 6.58 C 0.4 km/h
2994 04-01-2014 21:00:00 7.04167 C 7.54 g/m*3 7.04 C 2.4 km/h
2995 04-01-2014 22:00:00 6.89167 C 7.39 g/m*3 6.89 C 2.8 km/h
2996 04-01-2014 23:00:00 6.90833 C 7.45 g/m*3 6.91 C 3.73333 km/h
2997 05-01-2014 00:00:00 6.85833 C 7.45 g/m*3 6.86 C 3.06667 km/h
2998 05-01-2014 01:00:00 7.225 C 7.63 g/m*3 7.23 C 2.66667 km/h
2999 05-01-2014 02:00:00 7.45 C 7.68 g/m*3 7.45 C 1.33333 km/h
3000 05-01-2014 03:00:00 7.74167 C 7.68 g/m*3 6.75 C 6.425 km/h
Sensor: Nr:Datum:Temp:Abs-Feuchte:Windchill:Wind:
Aussen-T/F 3001 05-01-2014 04:00:00 7.39167 C 7.46 g/m*3 7.39 C 3.86667 km/h
3002 05-01-2014 05:00:00 7.10833 C 7.45 g/m*3 7.11 C 4.01667 km/h
3003 05-01-2014 06:00:00 6.94167 C 7.33 g/m*3 6.94 C 4.4 km/h
3004 05-01-2014 07:00:00 6.85833 C 7.1 g/m*3 5.65 C 6.70833 km/h
3005 05-01-2014 08:00:00 6.00833 C 6.62 g/m*3 5.01 C 5.61667 km/h
3006 05-01-2014 09:00:00 6 C 6.52 g/m*3 5.14 C 5.20833 km/h
3007 05-01-2014 10:00:00 6.15833 C 6.48 g/m*3 4.92 C 6.43333 km/h
3008 05-01-2014 11:00:00 6.5875 C 6.37 g/m*3 4.8 C 8.8625 km/h
3009 05-01-2014 13:00:00 6.46667 C 6.24 g/m*3 4.07 C 11.8 km/h
3010 05-01-2014 16:00:00 5.76667 C 6.12 g/m*3 4.82 C 5.36667 km/h
3011 05-01-2014 17:00:00 5.6 C 6.23 g/m*3 5.6 C 2.74286 km/h
3012 05-01-2014 18:00:00 5.79167 C 6.17 g/m*3 5.79 C 1.86667 km/h
3013 05-01-2014 19:00:00 5.875 C 6.13 g/m*3 5.88 C 2.53333 km/h
3014 05-01-2014 20:00:00 4.34167 C 5.83 g/m*3 4.34 C 2.26667 km/h
3015 05-01-2014 21:00:00 3.85 C 5.76 g/m*3 3.85 C 2.8 km/h
3016 05-01-2014 22:00:00 4.71667 C 6.01 g/m*3 4.72 C 2.13333 km/h
3017 05-01-2014 23:00:00 3.925 C 5.78 g/m*3 3.93 C 2.93333 km/h
3018 06-01-2014 00:00:00 3.31667 C 5.65 g/m*3 3.32 C 2.4 km/h
3019 06-01-2014 01:00:00 3.59167 C 5.76 g/m*3 3.59 C 2.40833 km/h
3020 06-01-2014 02:00:00 3.8 C 5.87 g/m*3 3.8 C 2.8 km/h
3021 06-01-2014 03:00:00 5.075 C 6.28 g/m*3 5.08 C 3.06667 km/h
3022 06-01-2014 04:00:00 5.69167 C 6.44 g/m*3 5.69 C 2.4 km/h
3023 06-01-2014 05:00:00 5.95 C 6.44 g/m*3 5.95 C 1.73333 km/h
3024 06-01-2014 06:00:00 6.25833 C 6.57 g/m*3 6.26 C 1.2 km/h
3025 06-01-2014 07:00:00 6.51667 C 6.78 g/m*3 6.52 C 1.6 km/h
Sensor: Nr:Datum:Temp:Abs-Feuchte:Windchill:Wind:
Aussen-T/F 3026 06-01-2014 08:00:00 7.2 C 7.2 g/m*3 7.2 C 1.46667 km/h
3027 06-01-2014 09:00:00 8.21667 C 7.64 g/m*3 8.22 C 1.46667 km/h
3028 06-01-2014 10:00:00 8.8 C 7.88 g/m*3 8.8 C 3.06667 km/h
3029 06-01-2014 11:00:00 9.80833 C 8.22 g/m*3 9.81 C 3.475 km/h
3030 06-01-2014 12:00:00 11.475 C 8.68 g/m*3 11.48 C 4.66667 km/h
3031 06-01-2014 13:00:00 12.00833 C 8.73 g/m*3 12.01 C 3.475 km/h
3032 06-01-2014 14:00:00 11.71667 C 8.42 g/m*3 11.72 C 4.00833 km/h
3033 06-01-2014 15:00:00 10.71667 C 8.23 g/m*3 10.72 C 2.26667 km/h
3034 06-01-2014 16:00:00 10.475 C 7.95 g/m*3 10.48 C 4.54167 km/h
3035 06-01-2014 17:00:00 9.81667 C 7.97 g/m*3 9.82 C 2.94167 km/h
3036 06-01-2014 18:00:00 10.275 C 8.08 g/m*3 10.28 C 4.80833 km/h
3037 06-01-2014 19:00:00 10.65 C 8.52 g/m*3 10.47 C 5.08333 km/h
3038 06-01-2014 20:00:00 9.79167 C 8.72 g/m*3 9.79 C 4.13333 km/h
3039 06-01-2014 21:00:00 9.74167 C 8.78 g/m*3 9.74 C 3.33333 km/h
3040 06-01-2014 22:00:00 9.61667 C 8.68 g/m*3 9.62 C 2.66667 km/h
3041 06-01-2014 23:00:00 9.60833 C 8.65 g/m*3 8.68 C 7.38333 km/h
3042 07-01-2014 00:00:00 10.76667 C 9.04 g/m*3 8.7 C 16.375 km/h
3043 07-01-2014 01:00:00 10.70833 C 8.68 g/m*3 9.49 C 9.94167 km/h
3044 07-01-2014 02:00:00 10.325 C 8.74 g/m*3 9.38 C 8.05833 km/h
3045 07-01-2014 03:00:00 9.91667 C 8.47 g/m*3 9.45 C 5.74167 km/h
3046 07-01-2014 04:00:00 9.28333 C 8.36 g/m*3 9.28 C 3.74167 km/h
3047 07-01-2014 05:00:00 10.30833 C 8.25 g/m*3 9.44 C 7.64167 km/h
3048 07-01-2014 06:00:00 10.31667 C 8.07 g/m*3 9.83 C 6.03333 km/h
3049 07-01-2014 07:00:00 9.64167 C 7.91 g/m*3 9.64 C 4.8 km/h
3050 07-01-2014 08:00:00 9.66667 C 7.87 g/m*3 9.27 C 5.35 km/h
Sensor: Nr:Datum:Temp:Abs-Feuchte:Windchill:Wind:
Aussen-T/F 3051 07-01-2014 09:00:00 10.69167 C 7.91 g/m*3 9.65 C 8.86667 km/h
3052 07-01-2014 10:00:00 11.35833 C 8.12 g/m*3 11.36 C 10.46667 km/h
3053 07-01-2014 11:00:00 11.81667 C 8.24 g/m*3 11.82 C 8.59167 km/h
3054 07-01-2014 12:00:00 11.84167 C 8.39 g/m*3 11.84 C 6.84167 km/h
3055 07-01-2014 13:00:00 11.55 C 8.66 g/m*3 11.55 C 3.34167 km/h
3056 07-01-2014 14:00:00 12.93333 C 8.39 g/m*3 12.93 C 6.975 km/h
3057 07-01-2014 15:00:00 13.25 C 8.11 g/m*3 13.25 C 6.7 km/h
3058 07-01-2014 16:00:00 11.85833 C 8.34 g/m*3 11.86 C 3.06667 km/h
3059 07-01-2014 17:00:00 10.63333 C 8.39 g/m*3 10.63 C 2 km/h
3060 07-01-2014 18:00:00 10.25 C 8.35 g/m*3 10.25 C 3.06667 km/h
3061 07-01-2014 19:00:00 10.4 C 8.66 g/m*3 10.4 C 2.13333 km/h
3062 07-01-2014 20:00:00 9.63333 C 8.6 g/m*3 9.63 C 1.86667 km/h
3063 07-01-2014 21:00:00 9.79167 C 8.78 g/m*3 9.79 C 2.66667 km/h
3064 07-01-2014 22:00:00 10.14167 C 8.8 g/m*3 10.14 C 2.26667 km/h
3065 07-01-2014 23:00:00 10.40833 C 8.92 g/m*3 10.41 C 2.93333 km/h
3066 08-01-2014 00:00:00 11.3 C 9.06 g/m*3 11.3 C 5.48333 km/h
3067 08-01-2014 01:00:00 11.525 C 9.06 g/m*3 11.53 C 7.38333 km/h
3068 08-01-2014 02:00:00 11.525 C 9.09 g/m*3 11.53 C 5.35 km/h
3069 08-01-2014 03:00:00 11.08333 C 9.06 g/m*3 11.08 C 4.28333 km/h
3070 08-01-2014 04:00:00 10.84167 C 9.09 g/m*3 10.84 C 3.34167 km/h
3071 08-01-2014 05:00:00 11.51667 C 9.12 g/m*3 11.52 C 10.06667 km/h
3072 08-01-2014 06:00:00 12.175 C 9.02 g/m*3 12.18 C 13.56667 km/h
3073 08-01-2014 07:00:00 11.95833 C 8.82 g/m*3 11.96 C 10.9 km/h
3074 08-01-2014 08:00:00 11.45 C 8.61 g/m*3 11.45 C 9.28333 km/h
3075 08-01-2014 09:00:00 11.33333 C 8.48 g/m*3 11.33 C 8.06667 km/h
Sensor: Nr:Datum:Temp:Abs-Feuchte:Windchill:Wind:
Aussen-T/F 3076 08-01-2014 10:00:00 11.52 C 8.46 g/m*3 11.52 C 9.68 km/h
3077 08-01-2014 11:00:00 11.175 C 8.35 g/m*3 11.18 C 7.375 km/h
3078 08-01-2014 12:00:00 11.25833 C 8.27 g/m*3 11.26 C 6.43333 km/h
3079 08-01-2014 13:00:00 12.45833 C 8.34 g/m*3 12.46 C 10.06667 km/h
3080 08-01-2014 14:00:00 12.03333 C 8.38 g/m*3 12.03 C 8.04167 km/h
3081 08-01-2014 15:00:00 11.49167 C 8.25 g/m*3 11.49 C 8.45833 km/h
3082 08-01-2014 16:00:00 10.38333 C 8.09 g/m*3 10.13 C 5.20833 km/h
3083 08-01-2014 17:00:00 9.00833 C 7.92 g/m*3 9.01 C 2.66667 km/h
3084 08-01-2014 18:00:00 8.2 C 7.7 g/m*3 8.2 C 1.33333 km/h
3085 08-01-2014 19:00:00 7.325 C 7.47 g/m*3 7.33 C 0.26667 km/h
3086 08-01-2014 20:00:00 6.98333 C 7.37 g/m*3 6.98 C 0.13333 km/h
3087 08-01-2014 21:00:00 6.63333 C 7.26 g/m*3 6.63 C 0 km/h
3088 08-01-2014 22:00:00 6.26667 C 7.09 g/m*3 6.27 C 0 km/h
3089 09-01-2014 01:00:00 6.5 C 7.27 g/m*3 6.5 C 0.26667 km/h
3090 09-01-2014 02:00:00 6.7 C 7.37 g/m*3 6.7 C 0.26667 km/h
3091 09-01-2014 03:00:00 6.68333 C 7.36 g/m*3 6.68 C 0.4 km/h
3092 09-01-2014 04:00:00 6.75833 C 7.4 g/m*3 6.76 C 0.8 km/h
3093 09-01-2014 05:00:00 7 C 7.59 g/m*3 7 C 1.30909 km/h
3094 09-01-2014 07:00:00 9.425 C 8.45 g/m*3 9.1 C 5 km/h
3095 09-01-2014 08:00:00 9.53333 C 8.16 g/m*3 9.53 C 2.54167 km/h
3096 09-01-2014 09:00:00 9.33333 C 8.2 g/m*3 9.33 C 2.53333 km/h
3097 09-01-2014 10:00:00 10.01667 C 8.42 g/m*3 10.02 C 2.53333 km/h
3098 09-01-2014 11:00:00 11.28333 C 8.54 g/m*3 11.28 C 8.19167 km/h
3099 09-01-2014 12:00:00 12.46667 C 8.55 g/m*3 12.47 C 12.23333 km/h
3100 09-01-2014 13:00:00 12.7 C 8.57 g/m*3 12.7 C 13.96667 km/h
Sensor: Nr:Datum:Temp:Abs-Feuchte:Windchill:Wind:
Aussen-T/F 3101 09-01-2014 14:00:00 12.71667 C 8.6 g/m*3 12.72 C 18.64167 km/h
3102 09-01-2014 15:00:00 11.45833 C 8.59 g/m*3 11.46 C 16.1 km/h
3103 09-01-2014 16:00:00 10.44167 C 8.17 g/m*3 8.19 C 17.43333 km/h
3104 09-01-2014 17:00:00 9.94167 C 8.04 g/m*3 7.79 C 15.43333 km/h
3105 09-01-2014 18:00:00 9.91667 C 7.84 g/m*3 7.49 C 17.83333 km/h
3106 09-01-2014 19:00:00 9.71667 C 7.78 g/m*3 7.27 C 17.575 km/h
3107 09-01-2014 20:00:00 9.53333 C 7.25 g/m*3 7.35 C 14.9 km/h
3108 09-01-2014 21:00:00 8.49167 C 6.36 g/m*3 6.14 C 14.35833 km/h
3109 09-01-2014 22:00:00 6.95 C 5.84 g/m*3 5.48 C 7.79167 km/h
3110 09-01-2014 23:00:00 6.425 C 5.86 g/m*3 6.43 C 4.275 km/h
3111 10-01-2014 00:00:00 5.925 C 6.16 g/m*3 5.93 C 0 km/h
3112 10-01-2014 01:00:00 5.7 C 6.3 g/m*3 5.7 C 1.33333 km/h
3113 10-01-2014 02:00:00 6.2 C 6.35 g/m*3 6.2 C 3.86667 km/h
3114 10-01-2014 03:00:00 5.88333 C 6.22 g/m*3 5.88 C 4.68333 km/h
3115 10-01-2014 04:00:00 4.79167 C 5.95 g/m*3 4.79 C 4.80833 km/h
3116 10-01-2014 05:00:00 5 C 5.95 g/m*3 3.02 C 8.45 km/h
3117 10-01-2014 06:00:00 4.74167 C 5.91 g/m*3 3.76 C 5.075 km/h
3118 10-01-2014 07:00:00 5.05833 C 6.02 g/m*3 3.05 C 8.61667 km/h
3119 10-01-2014 08:00:00 5.41667 C 6.04 g/m*3 3 C 10.74167 km/h
3120 10-01-2014 09:00:00 5.34167 C 6.1 g/m*3 3.7 C 7.38333 km/h
3121 10-01-2014 10:00:00 5.69167 C 6.26 g/m*3 4.08 C 7.50833 km/h
3122 10-01-2014 11:00:00 6.675 C 6.35 g/m*3 4.14 C 12.88333 km/h
3123 10-01-2014 12:00:00 7.5 C 6.5 g/m*3 5.36 C 11.55 km/h
3124 10-01-2014 13:00:00 7.71667 C 6.53 g/m*3 5.43 C 12.76667 km/h
3125 10-01-2014 14:00:00 7.74167 C 6.59 g/m*3 5.89 C 10.20833 km/h
Sensor: Nr:Datum:Temp:Abs-Feuchte:Windchill:Wind:
Aussen-T/F 3126 10-01-2014 15:00:00 7.85833 C 6.64 g/m*3 6.57 C 7.65 km/h
3127 10-01-2014 16:00:00 6.5 C 6.37 g/m*3 6.5 C 4.26667 km/h
3128 10-01-2014 17:00:00 5.1 C 6.12 g/m*3 5.1 C 3.6 km/h
3129 10-01-2014 18:00:00 5.08333 C 6.06 g/m*3 4.15 C 5.06667 km/h
3130 10-01-2014 19:00:00 5.36667 C 6.08 g/m*3 4.32 C 5.475 km/h
3131 10-01-2014 20:00:00 4.7 C 5.91 g/m*3 4.7 C 4 km/h
3132 10-01-2014 21:00:00 4.075 C 5.81 g/m*3 4.08 C 1.46667 km/h
3133 10-01-2014 22:00:00 3.25 C 5.64 g/m*3 3.25 C 0.4 km/h
3134 10-01-2014 23:00:00 3.05833 C 5.64 g/m*3 3.06 C 0 km/h
3135 11-01-2014 00:00:00 2.525 C 5.47 g/m*3 2.53 C 0 km/h
3136 11-01-2014 01:00:00 2.08333 C 5.31 g/m*3 2.08 C 0.13333 km/h
3137 11-01-2014 02:00:00 1.78333 C 5.25 g/m*3 1.78 C 0.4 km/h
3138 11-01-2014 03:00:00 1.54167 C 5.17 g/m*3 1.54 C 0.26667 km/h
3139 11-01-2014 04:00:00 1.35 C 5.11 g/m*3 1.35 C 0.4 km/h
3140 11-01-2014 05:00:00 0.89167 C 4.97 g/m*3 0.89 C 0 km/h
3141 11-01-2014 06:00:00 1.10833 C 5.07 g/m*3 1.11 C 0.66667 km/h
3142 11-01-2014 07:00:00 1.4 C 5.17 g/m*3 1.4 C 1.73333 km/h
3143 11-01-2014 08:00:00 1.86667 C 5.34 g/m*3 1.87 C 1.2 km/h
3144 11-01-2014 09:00:00 2.25833 C 5.49 g/m*3 2.26 C 0 km/h
3145 11-01-2014 10:00:00 2.6 C 5.61 g/m*3 2.6 C 0.26667 km/h
3146 11-01-2014 11:00:00 3.79167 C 6.12 g/m*3 3.79 C 2.81667 km/h
3147 11-01-2014 12:00:00 5.975 C 6.68 g/m*3 3.92 C 9.55833 km/h
3148 11-01-2014 13:00:00 6.85 C 6.71 g/m*3 5.14 C 8.73333 km/h
3149 11-01-2014 14:00:00 7.66667 C 6.81 g/m*3 5.41 C 12.48333 km/h
3150 11-01-2014 15:00:00 7.13333 C 6.79 g/m*3 5.5 C 8.59167 km/h
Sensor: Nr:Datum:Temp:Abs-Feuchte:Windchill:Wind:
Aussen-T/F 3151 11-01-2014 16:00:00 7.36667 C 6.99 g/m*3 5.47 C 10.09167 km/h
3152 11-01-2014 17:00:00 6.41667 C 7.01 g/m*3 5.56 C 5.36667 km/h
3153 11-01-2014 18:00:00 6.24167